     2.11           OBSERVATION DATA    G (GPS)             RINEX VERSION / TYPE
teqc 2010Oct21 OPUS Account 20111031 20:43:08UTC            PGM / RUN BY / DATE
Y 1382                                                      MARKER NAME
2082                                                        MARKER NUMBER
CSMIDDLETON NGS                                             OBSERVER / AGENCY
4619K01307 TRIMBLE NETR5 4.41                               REC # / TYPE / VERS
12668873 TRM41249.00 NONE                                   ANT # / TYPE
  -745907.3783 -5576114.3378  2995126.7590                  APPROX POSITION XYZ
        1.9990        0.0000        0.0000                  ANTENNA: DELTA H/E/N
     1     1                                                WAVELENGTH FACT L1/2
     5    L1    L2    C1    P1    P2                        # / TYPES OF OBSERV
    15                                                      LEAP SECONDS
  2011     8    20    16    27   30.0000000     GPS         TIME OF FIRST OBS
                                                            END OF HEADER
 11  8 20 16 27 30.0000000  0 11G03G07G28G16G23G19G08G11G06G10G13
 112766631.75917  87870135.81055  21458776.906                    21458786.375
 114612048.77416  89308184.59516  21809967.234                    21809975.266
 127203549.16816  99119705.32453  24206037.930                    24206047.801
 125520883.03117  97808671.17554  23885871.820                    23885881.348
 109373044.98618  85225768.95256  20812998.063                    20813004.715
 110045166.17918  85749503.64756  20940898.703                    20940904.887
 124298672.38216  96856113.48553  23653242.336                    23653253.047
 127545497.56615  99386144.68753  24271099.875                    24271112.422
 122613278.47917  95542983.80154  23332562.797                    23332572.727
 126489331.32816  98563142.59053  24070119.383                    24070130.582
 105435444.17718  82157520.00356  20063698.133                    20063706.445
 11  8 20 16 28  0.0000000  0 11G03G07G28G16G23G19G08G11G06G10G13
 112830096.203 8  87919588.61045  21470853.445                    21470862.469
 114558026.314 6  89266089.169 6  21799686.094                    21799695.035
 127137942.654 7  99068583.43643  24193553.961                    24193563.031
 125610302.584 7  97878348.62043  23902886.789                    23902896.992
 109442688.417 8  85280036.54946  20826250.586                    20826256.523
 110035847.524 8  85742242.31646  20939125.117                    20939132.242
 124229781.561 6  96802432.39043  23640132.945                    23640143.777
 127468454.408 6  99326111.11243  24256440.516                    24256452.508
 122693524.972 7  95605513.44143  23347833.703                    23347843.316
 126519337.838 6  98586524.23344  24075830.109                    24075840.594
 105450921.701 8  82169580.37746  20066643.422                    20066651.750
 11  8 20 16 28 30.0000000  0 11G03G07G28G16G23G19G08G11G06G10G13
 112894071.721 7  87969439.62045  21483027.734                    21483036.148
 114504063.698 6  89224040.410 6  21789417.406                    21789427.066
 127072561.897 6  99017637.34643  24181111.586                    24181122.020
 125699680.090 7  97947993.36743  23919895.445                    23919904.281
 109512812.789 8  85334678.87146  20839594.641                    20839601.234
 110027143.489 8  85735459.94346  20937468.789                    20937475.797
 124160828.913 6  96748703.07143  23627012.898                    23627022.711
 127391339.045 6  99266021.26943  24241766.539                    24241776.988
 122774121.117 7  95668315.53944  23363170.383                    23363179.996
 126549721.314 6  98610199.63543  24081611.258                    24081622.844
 105466995.029 8  82182105.01946  20069702.133                    20069710.020
 11  8 20 16 29  0.0000000  0 11G03G07G28G16G23G19G08G11G06G10G13
 112958556.595 8  88019687.52745  21495298.523                    21495307.664
 114450162.858 6  89182039.654 6  21779161.039                    21779169.363
 127007406.113 6  98966866.65043  24168712.883                    24168723.699
 125789015.190 7  98017605.08143  23936896.109                    23936904.383
 109583415.583 8  85389693.98546  20853029.992                    20853036.758
 110019054.955 8  85729157.18346  20935929.383                    20935936.461
 124091815.032 6  96694926.09343  23613879.352                    23613889.262
 127314153.351 5  99205876.64143  24227077.875                    24227088.844
 122855065.309 7  95731388.88044  23378573.734                    23378583.617
 126580479.983 7  98634167.31843  24087465.188                    24087476.355
 105483664.412 8  82195094.13846  20072873.984                    20072882.137
 11  8 20 16 29 30.0000000  0 11G03G07G28G16G23G19G08G11G06G10G13
 113023548.366 8  88070330.44445  21507666.375                    21507675.227
 114396324.341 6  89140087.687 6  21768915.406                    21768924.234
 126942477.111 6  98916272.59843  24156356.695                    24156367.781
 125878305.961 6  98087182.21444  23953886.320                    23953895.676
 109654495.726 8  85445081.09246  20866556.000                    20866563.234
 110011582.232 8  85723334.29946  20934507.711                    20934514.637
 124022740.662 6  96641101.94743  23600734.125                    23600745.066
 127236900.442 6  99145679.70743  24212377.156                    24212388.219
 122936354.528 7  95794731.05044  23394042.820                    23394053.082
 126611612.342 6  98658426.26043  24093388.922                    24093400.660
 105500930.281 8  82208548.04246  20076159.523                    20076167.664
 11  8 20 16 30  0.0000000  0 11G03G07G28G16G23G19G08G11G06G10G13
 113089044.904 7  88121366.63545  21520130.156                    21520138.996
 114342549.823 6  89098185.502 6  21758683.102                    21758691.035
 126877774.539 6  98865855.04643  24144045.078                    24144055.723
 125967551.352 6  98156723.96143  23970869.961                    23970878.820
 109726050.926 8  85500838.33546  20880172.789                    20880180.004
 110004726.446 8  85717992.11146  20933202.609                    20933209.617
 123953606.335 6  96587231.10143  23587578.602                    23587588.867
 127159582.825 6  99085432.31543  24197663.852                    24197675.316
 123017986.725 7  95858340.46844  23409577.586                    23409586.926
 126643116.233 6  98682974.75943  24099383.547                    24099394.555
 105518792.771 8  82222466.84546  20079558.961                    20079567.031
 11  8 20 16 30 30.0000000  0 11G03G07G28G16G23G19G08G11G06G10G13
 113155043.221 8  88172793.84945  21532689.461                    21532698.301
 114288839.744 7  89056333.510 6  21748461.703                    21748470.324
 126813298.031 6  98815613.63043  24131775.508                    24131786.258
 126056749.716 7  98226229.08643  23987844.242                    23987853.281
 109798078.654 8  85556963.80946  20893879.297                    20893886.441
 109998487.589 8  85713130.65246  20932015.883                    20932022.734
 123884411.862 6  96533313.37143  23574411.406                    23574421.680
 127082202.749 6  99025136.22043  24182938.906                    24182950.535
 123099959.183 7  95922215.05744  23425176.133                    23425185.965
 126674988.941 6  98707810.54243  24105449.070                    24105460.648
 105537251.113 8  82236849.94846  20083071.430                    20083079.238
 11  8 20 16 31  0.0000000  0 11G03G07G28G16G23G19G08G11G06G10G13
 113221541.188 8  88224610.42145  21545343.516                    21545353.012
 114235195.019 7  89014532.428 6  21738254.141                    21738262.457
 126749047.438 6  98765548.30643  24119548.547                    24119558.723
 126145899.633 6  98295696.46443  24004808.727                    24004818.059
 109870576.809 8  85613455.84746  20907674.992                    20907682.559
 109992865.818 8  85708750.04246  20930946.000                    20930952.727
 123815157.366 6  96479348.87343  23561232.844                    23561242.820
 127004762.760 6  98964793.46243  24168203.648                    24168213.629
 123182269.285 7  95986352.71644  23440838.813                    23440849.430
 126707227.784 6  98732931.69843  24111582.914                    24111596.129
 105556305.060 8  82251697.16846  20086697.281                    20086705.250
 11  8 20 16 31 30.0000000  0 11G03G07G28G16G23G19G08G11G06G10G13
 113288536.247 8  88276814.31245  21558091.820                    21558101.141
 114181616.684 7  88972783.093 6  21728057.852                    21728066.727
 126685023.129 6  98715659.27543  24107365.445                    24107374.523
 126234999.473 6  98365124.77143  24021763.180                    24021773.344
 109943543.413 8  85670312.88946  20921559.727                    20921567.020
 109987861.486 8  85704850.57646  20929993.625                    20930000.805
 123745843.379 6  96425338.02643  23548042.180                    23548052.578
 126927265.007 6  98904405.69143  24153456.133                    24153467.051
 123264914.413 6  96050751.43044  23456565.828                    23456575.820
 126739830.881 6  98758336.66643  24117788.055                    24117800.273
 105575954.599 8  82267008.46846  20090436.000                    20090444.301
 11  8 20 16 32  0.0000000  0 11G03G07G28G16G23G19G08G11G06G10G13
 113356026.213 8  88329403.84945  21570934.477                    21570944.082
 114128106.200 7  88931086.602 6  21717875.094                    21717882.996
 126621224.867 6  98665946.47543  24095224.164                    24095234.738
 126324048.648 6  98434513.64143  24038709.172                    24038719.203
 110016976.429 8  85727533.38446  20935533.727                    20935541.031
 109983475.169 8  85701432.66846  20929158.789                    20929166.246
 123676470.199 6  96371281.01143  23534841.031                    23534851.457
 126849712.437 6  98843975.21043  24138697.375                    24138709.895
 123347892.191 6  96115409.36944  23472355.766                    23472365.949
 126772795.940 6  98784023.69143  24124061.320                    24124072.883
 105596199.754 8  82282783.88146  20094288.773                    20094296.914
 11  8 20 16 32 30.0000000  0 11G03G07G28G16G23G19G08G11G06G10G13
 113424007.909 7  88382376.57545  21583871.117                    21583880.188
 114074664.194 7  88889443.492 6  21707705.969                    21707714.039
 126557652.559 6  98616409.68443  24083128.156                    24083137.453
 126413045.378 6  98503861.64943  24055644.773                    24055653.781
 110090873.850 8  85785115.75546  20949596.250                    20949603.711
 109979706.860 8  85698496.32546  20928442.094                    20928449.324
 123607038.128 6  96317178.17343  23521628.773                    23521638.613
 126772107.338 6  98783503.78043  24123930.789                    24123942.031
 123431199.947 6  96180324.40744  23488209.281                    23488219.734
 126806120.596 6  98809990.90343  24130403.000                    24130413.469
 105617039.789 8  82299022.85046  20098254.273                    20098262.688
 11  8 20 16 33  0.0000000  0 11G03G07G28G16G23G19G08G11G06G10G13
 113492479.350 7  88435730.96045  21596900.469                    21596910.406
 114021291.994 7  88847854.812 7  21697549.445                    21697558.434
 126494306.322 6  98567049.07743  24071072.188                    24071083.289
 126501988.293 6  98573167.77343  24072570.141                    24072579.711
 110165233.366 8  85843058.24546  20963746.695                    20963753.539
 109976557.489 8  85696042.32046  20927842.391                    20927849.891
 123537547.645 6  96263029.85543  23508405.852                    23508415.488
 126694452.905 6  98722993.97243  24109152.953                    24109164.004
 123514835.395 7  96245494.86344  23504123.891                    23504135.348
 126839802.871 6  98836236.90143  24136812.844                    24136822.906
 105638475.301 8  82315725.89146  20102333.813                    20102341.762
 11  8 20 16 33 30.0000000  0 11G03G07G28G16G23G19G08G11G06G10G13
 113561438.012 7  88489464.94645  21610023.117                    21610032.879
 113967990.620 7  88806321.263 7  21687406.336                    21687415.113
 126431186.185 6  98517864.57543  24059061.359                    24059072.219
 126590876.620 6  98642431.30143  24089485.219                    24089494.680
 110240052.755 8  85901359.01646  20977984.117                    20977991.309
 109974026.980 8  85694070.48546  20927361.008                    20927367.734
 123467999.209 6  96208836.31143  23495170.578                    23495181.309
 126616751.099 5  98662447.17942  24094366.672                    24094377.762
 123598795.905 6  96310918.59444  23520101.445                    23520112.047
 126873840.394 7  98862759.59243  24143289.813                    24143299.785
 105660505.736 8  82332892.45246  20106526.203                    20106533.730
 11  8 20 16 34  0.0000000  0 11G03G07G28G16G23G19G08G11G06G10G13
 113630881.519 7  88543576.74245  21623237.625                    21623247.277
 113914760.947 7  88764843.612 7  21677276.813                    21677285.793
 126368292.213 6  98468856.30743  24047092.930                    24047103.527
 126679708.617 6  98711650.96943  24106389.016                    24106398.879
 110315330.342 8  85960016.83646  20992308.883                    20992316.020
 109972115.712 8  85692581.18246  20926997.156                    20927004.082
 123398392.874 6  96154597.65943  23481923.938                    23481935.527
 126539005.097 5  98601865.95742  24079571.195                    24079584.168
 123683079.003 6  96376593.65344  23536139.578                    23536150.316
 126908230.572 6  98889557.11043  24149833.773                    24149843.836
 105683130.802 8  82350522.35846  20110831.609                    20110839.742
 11  8 20 16 34 30.0000000  0 11G03G07G28G16G23G19G08G11G06G10G13
 113700807.383 7  88598064.37145  21636544.992                    21636554.574
 113861604.581 7  88723423.085 7  21667161.586                    21667169.898
 126305624.393 6  98420024.26744  24035167.492                    24035179.078
 126768483.415 7  98780826.00444  24123282.977                    24123292.453
 110391063.575 8  86019029.71246  21006721.016                    21006727.613
 109970824.117 8  85691574.73546  20926751.352                    20926758.422
 123328729.218 6  96100314.29643  23468667.664                    23468678.250
 126461217.059 6  98541251.97543  24064768.656                    24064780.680
 123767682.286 7  96442518.23244  23552240.398                    23552250.238
 126942971.126 6  98916627.64843  24156444.914                    24156454.809
 105706350.058 8  82368615.24946  20115249.828                    20115258.445
 11  8 20 16 35  0.0000000  0 11G03G07G28G16G23G19G08G11G06G10G13
 113771212.891 7  88652925.77945  21649941.844                    21649952.047
 113808522.274 8  88682060.229 7  21657061.086                    21657069.199
 126243182.461 6  98371368.23044  24023285.461                    24023295.598
 126857199.392 6  98849955.26943  24140165.484                    24140174.809
 110467250.280 8  86078395.95946  21021218.641                    21021225.590
 109970151.770 8  85691050.81546  20926624.008                    20926631.063
 123259008.659 6  96045986.65643  23455400.211                    23455410.309
 126383389.715 6  98480607.28642  24049959.078                    24049970.848
 123852603.096 7  96508690.23544  23568399.836                    23568409.676
 126978059.654 6  98943969.33243  24163121.352                    24163131.703
 105730163.075 8  82387170.82046  20119781.633                    20119790.156
 11  8 20 16 35 30.0000000  0 11G03G07G28G16G23G19G08G11G06G10G13
 113842095.748 7  88708159.11545  21663430.891                    21663440.203
 113755515.060 8  88640755.914 6  21646973.953                    21646981.816
 126180966.570 6  98322888.34443  24011446.211                    24011456.215
 126945855.555 6  98919037.88043  24157035.477                    24157045.645
 110543888.228 8  86138113.78646  21035802.648                    21035809.398
 109970099.309 8  85691009.94146  20926613.820                    20926620.316
 123189231.563 6  95991614.88343  23442122.148                    23442132.508
 126305525.715 6  98419934.04642  24035142.898                    24035153.512
 123937838.812 7  96575107.59444  23584620.305                    23584629.996
 127013493.956 6  98971580.41243  24169864.969                    24169875.281
 105754569.969 8  82406189.16946  20124425.578                    20124434.406
 11  8 20 16 36  0.0000000  0 11G03G07G28G16G23G19G08G11G06G10G13
 113913453.184 7  88763762.26145  21677009.961                    21677018.887
 113702584.249 8  88599511.118 6  21636901.750                    21636909.730
 126118976.490 6  98274584.38843  23999649.555                    23999659.629
 127034450.625 6  98988072.89144  24173894.594                    24173905.570
 110620975.271 8  86198181.56746  21050471.836                    21050478.723
 109970666.884 8  85691452.20846  20926721.695                    20926728.305
 123119398.594 6  95937199.60342  23428833.313                    23428843.887
 126227627.736 6  98359234.46442  24020320.219                    24020328.828
 124023386.988 7  96641768.43544  23600899.453                    23600909.293
 127049271.680 6  98999459.17143  24176673.570                    24176683.918
 105779569.969 8  82425669.66446  20129183.172                    20129191.613
 11  8 20 16 36 30.0000000  0 11G03G07G28G16G23G19G08G11G06G10G13
 113985282.499 8  88819733.08545  21690678.766                    21690688.043
 113649731.199 8  88558326.908 7  21626843.750                    21626852.191
 126057212.483 6  98226456.61343  23987896.445                    23987905.730
 127122983.665 6  99057059.56743  24190741.852                    24190752.781
 110698509.281 8  86258597.64646  21065225.875                    21065232.824
 109971854.567 8  85692377.67446  20926947.531                    20926954.555
 123049509.990 6  95882740.98842  23415533.563                    23415544.730
 126149698.328 6  98298510.34342  24005489.430                    24005498.391
 124109245.278 7  96708670.91644  23617237.469                    23617247.723
 127085390.269 7  99027603.46743  24183546.734                    24183557.555
 105805162.997 8  82445612.25946  20134053.344                    20134061.770
 11  8 20 16 37  0.0000000  0 11G03G07G28G16G23G19G08G11G06G10G13
 114057581.579 7  88876069.98545  21704436.563                    21704447.344
 113596956.842 7  88517204.039 7  21616800.945                    21616809.383
 125995674.193 6  98178504.75243  23976185.813                    23976195.070
 127211453.202 6  99125996.78843  24207578.195                    24207587.469
 110776487.902 8  86319360.17746  21080064.508                    21080071.441
 109973662.423 8  85693786.36946  20927291.594                    20927298.594
 122979566.311 6  95828239.40742  23402224.758                    23402235.000
 126071740.548 6  98237764.00842  23990654.922                    23990664.199
 124195410.951 7  96775812.91343  23633634.438                    23633644.520
 127121847.465 6  99056011.67543  24190483.094                    24190494.641
 105831348.479 8  82466016.51346  20139036.531                    20139044.430
 11  8 20 16 37 30.0000000  0 11G03G07G28G16G23G19G08G11G06G10G13
 114130347.732 7  88932770.85245  21718283.617                    21718293.367
 113544262.662 7  88476143.657 7  21606773.352                    21606782.266
 125934361.608 6  98130728.74743  23964518.313                    23964528.801
 127299858.040 6  99194883.55843  24224400.203                    24224409.695
 110854909.716 8  86380468.02646  21094987.648                    21094994.684
 109976090.661 8  85695678.48846  20927754.406                    20927761.156
 122909567.804 6  95773695.10942  23388902.922                    23388914.855
 125993756.713 6  98176997.47742  23975814.516                    23975823.246
 124281881.661 7  96843192.62444  23650088.945                    23650098.848
 127158641.050 6  99084681.98643  24197485.727                    24197496.344
 105858125.830 8  82486881.96446  20144132.133                    20144139.699
 11  8 20 16 38  0.0000000  0 11G03G07G28G16G23G19G08G11G06G10G13
 114203578.258 7  88989833.54345  21732219.234                    21732229.563
 113491649.362 7  88435146.293 7  21596761.133                    21596769.902
 125873274.633 6  98083128.56344  23952894.852                    23952904.371
 127388197.305 6  99263719.21443  24241210.602                    24241221.004
 110933771.451 8  86441918.69246  21109994.359                    21110001.895
 109979139.214 8  85698053.96346  20928334.188                    20928340.766
 122839515.371 5  95719108.81442  23375572.695                    23375583.930
 125915749.575 6  98116212.72842  23960968.992                    23960979.168
 124368654.791 7  96910807.99144  23666601.258                    23666611.914
 127195768.414 7  99113612.34443  24204550.734                    24204561.363
 105885494.795 8  82508208.40546  20149340.086                    20149348.414
 11  8 20 16 38 30.0000000  0 11G03G07G28G16G23G19G08G11G06G10G13
 114277270.708 7  89047256.17345  21746242.688                    21746251.516
 113439118.340 7  88394213.061 7  21586765.234                    21586773.617
 125812413.163 6  98035704.09443  23941313.031                    23941322.547
 127476470.089 6  99332503.08243  24258008.789                    24258018.508
 111013071.011 8  86503710.52146  21125084.820                    21125091.953
 109982808.548 8  85700913.16946  20929032.242                    20929039.348
 122769409.352 5  95664480.78442  23362232.367                    23362243.969
 125837722.133 6  98055412.20342  23946122.828                    23946131.316
 124455727.955 6  96978657.11344  23683171.430                    23683181.461
 127233227.335 7  99142801.09743  24211679.219                    24211690.336
 105913455.359 8  82529995.83746  20154660.852                    20154668.922
 11  8 20 16 39  0.0000000  0 11G03G07G28G16G23G19G08G11G06G10G13
 114351422.446 7  89105036.73545  21760353.586                    21760362.520
 113386670.822 7  88353344.867 7  21576785.133                    21576793.523
 125751777.403 7  97988455.51043  23929773.953                    23929784.344
 127564674.906 6  99401234.02643  24274794.359                    24274802.863
 111092806.166 8  86565841.76546  21140258.250                    21140265.754
 109987098.225 8  85704255.76746  20929848.164                    20929855.309
 122699250.281 6  95609811.42342  23348882.320                    23348892.723
 125759676.702 6  97994597.65042  23931270.102                    23931279.082
 124543098.438 6  97046737.93744  23699796.438                    23699807.941
 127271015.304 7  99172246.20943  24218869.195                    24218880.898
 105942006.603 8  82552243.53346  20160094.273                    20160102.512
 11  8 20 16 39 30.0000000  0 11G03G07G28G16G23G19G08G11G06G10G13
 114426031.033 7  89163173.23145  21774550.844                    21774560.117
 113334308.008 8  88312542.725 7  21566820.648                    21566828.945
 125691367.048 6  97941382.54743  23918277.430                    23918287.840
 127652810.436 6  99469910.96542  24291564.969                    24291574.613
 111172974.644 8  86628310.67746  21155513.570                    21155520.766
 109992008.425 8  85708081.88346  20930782.641                    20930789.629
 122629038.467 6  95555100.95642  23335521.375                    23335530.992
 125681616.201 6  97933771.34842  23916415.641                    23916425.559
 124630763.850 6  97115048.58343  23716478.672                    23716489.723
 127309130.015 7  99201945.93744  24226122.992                    24226134.660
 105971147.891 8  82574951.00546  20165639.758                    20165647.598
 11  8 20 16 40  0.0000000  0 11G03G07G28G16G23G19G08G11G06G10G13
 114501093.387 7  89221663.34245  21788834.484                    21788844.430
 113282031.406 8  88271807.723 7  21556873.008                    21556881.172
 125631181.962 7  97894485.15543  23906825.039                    23906834.953
 127740875.868 5  99538533.27643  24308323.547                    24308333.063
 111253574.447 8  86691115.66746  21170851.484                    21170858.434
 109997538.936 8  85712391.36146  20931835.398                    20931842.441
 122558774.467 6  95500349.88642  23322151.320                    23322160.020
 125603543.270 6  97872935.31543  23901558.570                    23901569.094
 124718721.609 6  97183587.03744  23733216.508                    23733228.430
 127347569.274 6  99231898.54943  24233437.859                    24233448.523
 106000878.567 8  82598117.74146  20171297.086                    20171304.770
 11  8 20 16 40 30.0000000  0 11G03G07G28G16G23G19G08G11G06G10G13
 114576607.367 7  89280505.33845  21803204.375                    21803214.410
 113229842.253 8  88231140.843 7  21546941.578                    21546949.867
 125571221.926 7  97847763.08643  23895415.094                    23895424.773
 127828870.280 6  99607100.21243  24325067.844                    24325077.957
 111334603.023 8  86754254.76846  21186270.852                    21186277.254
 110003689.521 8  85717184.01646  20933005.625                    20933012.629
 122488459.091 6  95445558.72642  23308769.992                    23308778.879
 125525460.953 6  97812091.94043  23886700.547                    23886710.961
 124806969.038 6  97252351.16843  23750009.586                    23750020.977
 127386330.013 6  99262101.66643  24240813.180                    24240825.059
 106031198.130 8  82621743.35046  20177066.867                    20177074.727
 11  8 20 16 41  0.0000000  0 11G03G07G28G16G23G19G08G11G06G10G13
 114652570.191 7  89339697.10244  21817660.258                    21817669.797
 113177741.967 8  88190543.225 7  21537027.102                    21537035.438
 125511487.097 6  97801216.52443  23884046.992                    23884057.438
 127916792.529 5  99675611.02742  24341798.055                    24341809.555
 111416058.153 8  86817726.22745  21201771.211                    21201777.594
 110010460.823 8  85722460.34146  20934294.797                    20934301.242
 122418093.056 6  95390728.15842  23295380.172                    23295390.066
 125447371.782 7  97751243.31943  23871841.070                    23871851.016
 124895504.173 6  97321339.47043  23766857.172                    23766868.082
 127425410.574 6  99292554.03343  24248250.359                    24248261.238
 106062106.559 8  82645827.81246  20182948.336                    20182956.484
 11  8 20 16 41 30.0000000  0 11G03G07G28G16G23G19G08G11G06G10G13
 114728979.092 7  89399236.45145  21832199.781                    21832209.371
 113125731.542 8  88150015.657 7  21527130.125                    21527137.355
 125451977.202 6  97754845.19043  23872723.211                    23872732.828
 128004641.567 6  99744064.72043  24358516.289                    24358526.734
 111497937.335 8  86881528.13445  21217351.875                    21217359.266
 110017852.015 8  85728219.70346  20935701.297                    20935707.871
 122347676.563 6  95335858.14943  23281979.984                    23281990.547
 125369278.453 7  97690391.42743  23856980.391                    23856990.125
 124984323.960 6  97390549.60743  23783759.711                    23783770.020
 127464807.994 6  99323253.23043  24255747.922                    24255758.727
 106093602.631 8  82670370.18746  20188942.125                    20188949.879
 11  8 20 16 42  0.0000000  0 11G03G07G28G16G23G19G08G11G06G10G13
 114805831.536 8  89459121.44545  21846824.313                    21846833.387
 113073812.227 8  88109559.040 7  21517249.898                    21517257.902
 125392691.821 6  97708648.79643  23861441.281                    23861451.227
 128092416.205 6  99812460.46143  24375219.211                    24375229.207
 111580238.249 8  86945658.66945  21233013.211                    21233020.715
 110025863.095 8  85734462.09746  20937225.555                    20937232.566
 122277210.291 6  95280949.40943  23268569.992                    23268581.449
 125291183.790 6  97629538.46043  23842118.836                    23842129.777
 125073425.904 6  97459979.61043  23800714.813                    23800725.148
 127504519.954 6  99354197.58643  24263304.922                    24263315.715
 106125685.667 8  82695369.93446  20195046.664                    20195055.305
 11  8 20 16 42 30.0000000  0 11G03G07G28G16G23G19G08G11G06G10G13
 114883125.007 7  89519350.06545  21861533.203                    21861542.574
 113021984.999 8  88069174.204 7  21507387.609                    21507396.160
 125333630.992 6  97662627.39343  23850203.148                    23850213.020
 128180115.253 6  99880797.26543  24391908.547                    24391917.727
 111662958.438 8  87010115.91545  21248754.789                    21248761.832
 110034493.850 8  85741187.34746  20938867.836                    20938874.656
 122206694.790 6  95226002.30243  23255151.766                    23255162.219
 125213090.638 6  97568686.72643  23827257.914                    23827269.063
 125162807.464 6  97529627.49443  23817724.266                    23817734.691
 127544543.766 6  99385384.92743  24270921.086                    24270931.027
 106158355.176 8  82720826.66046  20201263.719                    20201272.293
 11  8 20 16 43  0.0000000  0 11G03G07G28G16G23G19G08G11G06G10G13
 114960856.652 7  89579920.13545  21876325.000                    21876334.605
 112970251.537 7  88028862.378 7  21497542.914                    21497552.023
 125274794.377 6  97616780.71244  23839007.898                    23839017.168
 128267737.956 6  99949074.57143  24408582.828                    24408591.965
 111746095.596 8  87074898.08045  21264575.016                    21264582.344
 110043744.013 8  85748395.26046  20940627.828                    20940635.000
 122136130.733 6  95171017.32842  23241723.625                    23241734.609
 125135001.634 6  97507838.19343  23812397.727                    23812408.633
 125252465.950 6  97599491.19243  23834784.992                    23834795.938
 127584876.903 6  99416813.30443  24278596.547                    24278606.293
 106191610.203 8  82746739.64446  20207591.984                    20207600.336
 11  8 20 16 43 30.0000000  0 11G03G07G28G16G23G19G08G11G06G10G13
 115039024.126 7  89640829.78645  21891199.898                    21891209.043
 112918613.226 8  87988624.751 7  21487716.492                    21487725.250
 125216182.080 6  97571108.81044  23827853.469                    23827863.848
 128355283.256 6 100017291.53743  24425242.102                    24425251.625
 111829647.415 8  87140003.35246  21280474.688                    21280481.973
 110053613.312 8  85756085.61046  20942505.758                    20942512.664
 122065518.718 6  95115995.03842  23228287.289                    23228297.695
 125056919.541 6  97446995.09042  23797539.563                    23797548.973
 125342399.168 6  97669568.95243  23851899.531                    23851909.664
 127625516.888 6  99448480.81143  24286329.297                    24286339.961
 106225450.299 8  82773108.51146  20214031.836                    20214039.379
 11  8 20 16 44  0.0000000  0 11G03G07G28G16G23G19G08G11G06G10G13
 115117624.358 8  89702076.67245  21906157.125                    21906166.340
 112867070.795 7  87948461.824 7  21477908.281                    21477916.637
 125157793.508 6  97525611.18243  23816742.492                    23816752.422
 128442750.159 6 100085447.46543  24441886.227                    24441896.172
 111913610.966 8  87205429.43245  21296452.461                    21296459.305
 110064101.065 8  85764257.87246  20944501.633                    20944508.758
 121994859.286 6  95060935.69543  23214840.617                    23214851.137
 124978847.038 6  97386159.39042  23782682.984                    23782692.195
 125432604.244 6  97739858.52343  23869064.563                    23869075.531
 127666461.225 6  99480385.43343  24294121.398                    24294131.496
 106259874.413 8  82799932.46146  20220582.664                    20220590.441
 11  8 20 16 44 30.0000000  0 11G03G07G28G16G23G19G08G11G06G10G13
 115196654.630 7  89763658.63445  21921195.641                    21921205.719
 112815626.144 7  87908375.094 7  21468118.563                    21468126.797
 125099628.943 6  97480288.13143  23805674.359                    23805684.078
 128530137.637 6 100153541.52643  24458515.734                    24458526.746
 111997984.407 8  87271174.93045  21312508.109                    21312515.344
 110075207.738 8  85772912.40046  20946615.781                    20946622.500
 121924153.132 6  95005840.01442  23201386.102                    23201395.750
 124900787.260 6  97325333.63542  23767828.445                    23767838.652
 125523078.895 6  97810358.15743  23886281.000                    23886292.727
 127707707.576 6  99512525.39043  24301970.234                    24301980.961
 106294882.057 8  82827211.10946  20227244.266                    20227252.270
 11  8 20 16 45  0.0000000  0 11G03G07G28G16G23G19G08G11G06G10G13
 115276112.335 7  89825573.67345  21936316.352                    21936325.652
 112764280.588 7  87868365.587 7  21458348.102                    21458356.414
 125041687.920 6  97435139.27443  23794647.961                    23794657.391
 128617444.785 6 100221572.94343  24475129.914                    24475140.477
 112082765.006 8  87337237.66845  21328641.508                    21328648.328
 110086932.440 8  85782048.50546  20948846.844                    20948853.637
 121853400.790 6  94950708.37442  23187922.672                    23187932.293
 124822742.79816                  23752977.328
 125613820.389 6  97881065.75843  23903549.563                    23903559.531
 127749253.425 6  99544898.72743  24309875.953                    24309886.789
 106330472.122 8  82854943.59546  20234017.133                    20234024.969
 11  8 20 16 45 30.0000000  0 11G03G07G28G16G23G19G08G11G06G10G13
 115355994.654 7  89887819.57145  21951517.313                    21951526.488
 112713035.281 7  87828434.193 7  21448596.266                    21448604.457
 124983970.007 7  97390164.27643  23783665.898                    23783673.273
 128704670.596 6 100289541.00843  24491728.852                    24491738.703
 112167950.303 8  87403615.77945  21344852.164                    21344858.570
 110099275.038 8  85791666.10146  20951195.680                    20951202.469
 121782603.022 6  94895541.26242  23174449.523                    23174459.441
 124744716.630 6  97203705.18252  23738128.375                    23738138.695
 125704826.100 6  97951979.21043  23920867.336                    23920877.945
 127791096.137 6  99577503.39743  24317838.070                    24317849.566
 106366643.675 8  82883129.20146  20240899.781                    20240908.664
 11  8 20 16 46  0.0000000  0 11G03G07G28G16G23G19G08G11G06G10G13
 115436298.916 7  89950394.26545  21966798.031                    21966807.914
 112661892.067 7  87788582.343 7  21438864.258                    21438872.633
 124926475.298 7  97345363.24943  23772723.953                    23772733.234
 128791814.179 6 100357444.99543  24508311.938                    24508321.805
 112253538.317 8  87470307.68845  21361138.422                    21361145.691
 110112235.520 8  85801765.16446  20953661.656                    20953668.563
 121711760.794 7  94840339.52842  23160969.086                    23160978.262
 124666711.780 5  97142922.26642  23723284.773                    23723296.352
 125796094.018 6  98023096.99043  23938234.813                    23938246.250
 127833233.388 6  99610337.57043  24325856.656                    24325868.168
 106403396.638 8  82911767.83446  20247893.883                    20247902.289
 11  8 20 16 46 30.0000000  0 11G03G07G28G16G23G19G08G11G06G10G13
 115517022.287 7  90013295.54345  21982160.141                    21982169.176
 112610851.631 7  87748810.600 7  21429151.211                    21429160.094
 124869203.616 7  97300736.01944  23761825.781                    23761835.180
 128878874.386 6 100425284.02643  24524878.781                    24524888.902
 112339526.079 8  87537311.07446  21377501.789                    21377508.574
 110125812.950 8  85812344.95946  20956244.977                    20956252.098
 121640874.424 6  94785103.43542  23147479.047                    23147489.441
 124588730.741 6  97082157.84242  23708447.039                    23708457.410
 125887621.084 6  98094416.69844  23955652.008                    23955663.438
 127875662.331 6  99643399.02943  24333930.852                    24333942.672
 106440729.459 8  82940858.32846  20254997.867                    20255006.145
 11  8 20 16 47  0.0000000  0 11G03G07G28G16G23G19G08G11G06G10G13
 115598162.239 7  90076521.38944  21997599.938                    21997609.047
 112559915.585 7  87709120.202 7  21419458.430                    21419467.063
 124812154.708 7  97256282.35044  23750969.672                    23750979.395
 128965850.187 6 100493057.23643  24541429.727                    24541440.516
 112425911.101 8  87604624.00846  21393940.078                    21393947.156
 110140006.961 8  85823405.21046  20958945.719                    20958952.961
 121569944.826 6  94729833.61642  23133980.992                    23133992.953
 124510776.207 6  97021414.06642  23693612.469                    23693623.477
 125979404.946 6  98165936.52744  23973118.117                    23973128.836
 127918380.647 7  99676685.96143  24342060.234                    24342070.871
 106478641.371 8  82970400.04946  20262212.602                    20262221.203
 11  8 20 16 47 30.0000000  0 11G03G07G28G16G23G19G08G11G06G10G13
 115679715.963 7  90140069.68644  22013119.766                    22013128.434
 112509085.075 8  87669512.018 7  21409786.086                    21409794.152
 124755328.008 7  97212001.79044  23740155.688                    23740165.789
 129052741.026 6 100560764.31543  24557963.984                    24557975.336
 112512690.945 8  87672244.61845  21410453.828                    21410461.063
 110154816.976 8  85834945.47046  20961764.523                    20961770.875
 121498972.615 6  94674530.66343  23120476.141                    23120486.598
 124432851.111 6  96960693.26542  23678784.102                    23678795.055
 126071442.732 6  98237654.19243  23990632.375                    23990642.617
 127961385.601 6  99710196.26043  24350243.641                    24350254.828
 106517131.095 8  83000392.02246  20269536.539                    20269545.391
 11  8 20 16 48  0.0000000  0 11G03G07G28G16G23G19G08G11G06G10G13
 115761680.790 7  90203938.31244  22028716.859                    22028726.090
 112458362.097 7  87629987.632 7  21400134.008                    21400142.328
 124698723.671 7  97167894.56744  23729384.078                    23729394.137
 129139545.835 6 100628404.33543  24574483.211                    24574493.473
 112599863.434 8  87740171.17845  21427042.367                    21427049.563
 110170242.800 8  85846965.58446  20964699.914                    20964706.895
 121427958.660 6  94619195.12543  23106962.625                    23106973.230
 124354958.478 6  96899997.71042  23663960.828                    23663972.328
 126163732.150 6  98309567.96443  24008193.898                    24008205.156
 128004674.797 6  99743928.04943  24358481.094                    24358492.457
 106556198.115 8  83030833.83646  20276970.805                    20276979.523
 11  8 20 16 48 30.0000000  0 11G03G07G28G16G23G19G08G11G06G10G13
 115844054.222 7  90268125.35144  22044391.797                    22044401.430
 112407747.673 8  87590547.836 7  21390502.016                    21390510.453
 124642340.907 7  97123959.96944  23718655.008                    23718664.836
 129226263.729 6 100695976.64642  24590985.453                    24590995.289
 112687425.647 8  87808401.40546  21443705.461                    21443712.137
 110186283.564 8  85859464.86946  20967752.719                    20967760.141
 121356903.728 6  94563827.66543  23093441.563                    23093452.066
 124277100.866 6  96839329.51242  23649144.992                    23649155.820
 126256270.762 6  98381675.86743  24025803.750                    24025815.520
 128048245.553 6  99777879.26743  24366772.500                    24366783.168
 106595841.279 8  83061724.58046  20284514.844                    20284523.508
 11  8 20 16 49  0.0000000  0 11G03G07G28G16G23G19G08G11G06G10G13
 115926832.986 7  90332628.20544  22060144.242                    22060154.180
 112357243.353 8  87551193.855 7  21380891.047                    21380899.664
 124586179.756 7  97080198.06844  23707967.930                    23707977.711
 129312893.793 6 100763480.45042  24607470.352                    24607480.848
 112775374.981 8  87876933.29845  21460441.352                    21460448.453
 110202938.806 8  85872442.95446  20970921.938                    20970929.051
 121285808.229 6  94508428.61642  23079913.055                    23079923.102
 124199281.569 6  96778691.15142  23634335.813                    23634346.086
 126349055.752 6  98453975.78043  24043459.922                    24043471.563
 128092095.177 6  99812047.71442  24375116.133                    24375127.117
 106636059.354 8  83093063.30146  20292168.398                    20292176.691
 11  8 20 16 49 30.0000000  0 11G03G07G28G16G23G19G08G11G06G10G13
 116010014.460 7  90397444.87944  22075973.148                    22075983.328
 112306850.735 7  87511926.907 7  21371302.055                    21371310.168
 124530240.108 7  97036608.76443  23697322.711                    23697332.512
 129399435.616 6 100830915.58342  24623938.742                    24623948.633
 112863709.202 8  87945765.08645  21477250.914                    21477257.191
 110220208.211 8  85885899.61946  20974208.242                    20974215.613
 121214673.094 6  94452998.68242  23066375.898                    23066385.910
 124121503.348 6  96718084.80042  23619535.320                    23619544.824
 126442084.857 6  98526465.90043  24061163.000                    24061174.898
 128136221.191 6  99846431.65343  24383513.594                    24383524.000
 106676851.906 8  83124849.66746  20299930.781                    20299939.438
 11  8 20 16 50  0.0000000  0 11G03G07G28G16G23G19G08G11G06G10G13
 116093595.865 7  90462573.15344  22091878.625                    22091887.984
 112256570.803 8  87472747.735 7  21361733.625                    21361742.672
 124474521.315 6  96993191.58643  23686718.977                    23686729.281
 129485887.532 6 100898280.61143  24640389.906                    24640399.492
 112952425.540 8  88014894.64445  21494133.227                    21494139.625
 110238090.687 8  85899834.00346  20977611.094                    20977618.758
 121143498.950 6  94397538.40943  23052832.125                    23052841.879
 124043768.925 6  96657512.55042  23604743.867                    23604752.727
 126535355.161 6  98599143.95644  24078912.320                    24078923.191
 128180621.282 6  99881029.09343  24391962.820                    24391973.672
 106718217.282 8  83157082.39846  20307802.406                    20307810.523
 11  8 20 16 50 30.0000000  0 11G03G07G28G16G23G19G08G11G06G10G13
 116177574.311 7  90528010.86944  22107859.070                    22107868.109
 112206405.327 7  87433657.755 7  21352187.281                    21352196.113
 124419023.284 6  96949946.36543  23676159.078                    23676167.090
 129572249.267 6 100965575.40243  24656823.633                    24656834.305
 113041521.607 8  88084320.12345  21511086.711                    21511094.227
 110256585.870 8  85914245.80946  20981130.383                    20981137.738
 121072286.771 6  94342048.42742  23039279.992                    23039290.820
 123966081.233 6  96596976.74742  23589959.484                    23589970.148
 126628864.396 7  98672008.19244  24096706.477                    24096717.785
 128225292.541 6  99915837.80143  24400463.836                    24400474.676
 106760154.670 8  83189760.85046  20315783.211                    20315790.980
 11  8 20 16 51  0.0000000  0 11G03G07G28G16G23G19G08G11G06G10G13
 116261947.268 7  90593755.94144  22123914.648                    22123923.809
 112156355.441 8  87394657.848 7  21342663.555                    21342672.258
 124363745.570 7  96906872.89643  23665639.516                    23665648.328
 129658519.831 6 101032799.11943  24673240.813                    24673250.914
 113130995.010 8  88154039.58545  21528113.273                    21528121.266
 110275693.269 8  85929134.67346  20984766.453                    20984773.395
 121001037.230 6  94286529.31242  23025722.586                    23025733.324
 123888443.17716  96536479.57652  23575185.125                    23575195.504
 126722609.935 6  98745056.55943  24114545.797                    24114557.488
 128270232.373 6  99950855.82943  24409015.953                    24409027.148
 106802662.938 8  83222884.14546  20323872.063                    20323880.184
 11  8 20 16 51 30.0000000  0 11G03G07G28G16G23G19G08G11G06G10G13
 116346711.884 7  90659806.23444  22140045.281                    22140054.508
 112106422.862 8  87355749.348 7  21333161.641                    21333169.805
 124308687.808 7  96863970.82843  23655161.820                    23655170.652
 129744698.394 6 101099951.15343  24689639.852                    24689650.516
 113220842.725 8  88224050.73045  21545211.000                    21545218.406
 110295412.021 8  85944499.92346  20988519.328                    20988526.008
 120929751.224 6  94230981.88042  23012156.891                    23012167.625
 123810857.719 5  96476023.50842  23560421.156                    23560432.125
 126816589.345 6  98818287.15343  24132429.523                    24132441.273
 128315437.865 6  99986080.81943  24417618.063                    24417629.410
 106845741.030 8  83256451.46546  20332069.313                    20332077.938
 11  8 20 16 52  0.0000000  0 11G03G07G28G16G23G19G08G11G06G10G13
 116431864.668 7  90726158.98744  22156248.875                    22156258.473
 112056608.897 8  87316933.289 7  21323682.266                    21323690.973
 124253849.925 6  96821240.05343  23644726.539                    23644736.344
 129830784.074 6 101167030.81243  24706021.844                    24706032.652
 113311062.307 8  88294351.64545  21562379.078                    21562386.582
 110315741.184 8  85960340.81846  20992387.797                    20992394.766
 120858429.646 6  94175406.67442  22998584.906                    22998595.789
 123733327.35515                  23545667.258
 126910799.936 6  98891697.91643  24150357.125                    24150368.051
 128360906.634 6 100021510.96743  24426269.688                    24426282.438
 106889387.473 8  83290461.65746  20340375.180                    20340383.414
 11  8 20 16 52 30.0000000  0 11G03G07G28G16G23G19G08G11G06G10G13
 116517403.629 7  90792812.68044  22172526.500                    22172535.660
 112006915.614 7  87278211.260 7  21314225.727                    21314234.699
 124199231.571 7  96778680.31943  23634333.094                    23634343.102
 129916776.272 6 101234037.63643  24722385.328                    24722396.957
 113401651.337 8  88364940.42545  21579617.961                    21579625.113
 110336680.584 8  85976657.22846  20996372.352                    20996379.191
 120787073.655 6  94119804.59442  22985006.273                    22985016.680
 123655855.420 5                  23530924.633
 127005239.160 6  98965286.80643  24168328.344                    24168339.594
 128406636.304 6 100057144.39043  24434972.117                    24434984.063
 106933601.336 8  83324914.00646  20348788.773                    20348797.043
 11  8 20 16 53  0.0000000  0 11G03G07G28G16G23G19G08G11G06G10G13
 116603325.855 7  90859764.98944  22188877.203                    22188887.270
 111957343.873 8  87239583.961 7  21304792.727                    21304801.297
 124144832.074 7  96736291.09944  23623981.656                    23623992.199
 130002673.799 6 101300970.68243  24738729.953                    24738743.383
 113492607.006 8  88435814.91545  21596926.570                    21596933.047
 110358228.766 8  85993447.99946  21000472.734                    21000479.469
 120715683.523 6  94064175.93842  22971421.336                    22971431.961
 123578444.810 5                  23516194.578
 127099904.561 6  99039051.93443  24186342.164                    24186353.781
 128452624.025 6 100092978.88743  24443723.461                    24443735.676
 106978381.256 8  83359807.41946  20357310.453                    20357318.582
 11  8 20 16 53 30.0000000  0 11G03G07G28G16G23G19G08G11G06G10G13
 116689628.135 7  90927013.44844  22205300.211                    22205309.734
 111907894.913 7  87201052.307 7  21295382.648                    21295391.973
 124090651.047 7  96694072.15844  23613671.156                    23613681.621
 130088476.042 5 101367829.48242  24755057.938                    24755071.043
 113583926.553 7  88506972.92345  21614303.523                    21614311.020
 110380384.968 8  86010712.54346  21004688.383                    21004695.582
 120644259.925 6  94008521.15042  22957830.250                    22957839.668
 123501098.301 5                  23501476.039
 127194793.393 6  99112991.18443  24204399.250                    24204410.414
 128498867.188 6 100129012.45043  24452523.711                    24452534.680
 107023726.207 8  83395141.10146  20365939.336                    20365946.961
 11  8 20 16 54  0.0000000  0 11G03G07G28G16G23G19G08G11G06G10G13
 116776307.823 7  90994555.99245  22221794.359                    22221804.742
 111858570.763 8  87162617.912 7  21285996.922                    21286005.672
 124036688.417 7  96652023.37444  23603403.203                    23603412.047
 130174182.015 5 101434613.25242  24771368.477                    24771379.836
 113675607.435 8  88578412.49545  21631749.906                    21631757.293
 110403148.397 8  86028450.26646  21009020.531                    21009027.344
 120572804.303 6  93952841.41842  22944231.602                    22944241.348
 123423818.619 6                  23486769.883
 127289903.104 6  99187102.53443  24222498.445                    24222508.766
 128545363.322 6 100165243.15343  24461371.461                    24461382.789
 107069634.598 8  83430913.83746  20374675.180                    20374683.230
 11  8 20 16 54 30.0000000  0 11G03G07G28G16G23G19G08G11G06G10G13
 116863362.270 7  91062390.56544  22238360.297                    22238370.414
 111809372.798 8  87124281.841 7  21276634.656                    21276643.086
 123982943.688 7  96610144.41344  23593175.695                    23593184.785
 130259791.166 5 101501321.54142  24787658.938                    24787670.672
 113767646.966 8  88650131.54745  21649264.844                    21649272.023
 110426518.653 8  86046660.83746  21013467.469                    21013474.625
 120501317.210 6  93897137.23442  22930628.820                    22930638.398
 123346608.983 6                  23472077.656
 127385231.348 6  99261384.18043  24240639.703                    24240650.426
 128592109.435 6 100201668.67143  24470265.828                    24470278.234
 107116105.277 8  83467124.71846  20383518.477                    20383526.621
 11  8 20 16 55  0.0000000  0 11G03G07G28G16G23G19G08G11G06G10G13
 116950788.289 7  91130514.72144  22254996.695                    22255007.523
 111760302.162 8  87086044.991 7  21267297.188                    21267305.082
 123929416.274 7  96568434.77243  23582989.398                    23582998.797
 130345302.696 5 101567953.86842  24803930.680                    24803943.250
 113860042.397 8  88722127.91645  21666847.477                    21666854.398
 110450494.045 8  86065342.94446  21018030.313                    21018037.043
 120429799.230 6  93841408.94942  22917019.453                    22917029.371
 123269472.200 6                  23457399.391
 127480775.127 6  99335833.76643  24258819.836                    24258832.258
 128639102.541 6 100238286.59642  24479209.289                    24479220.383
 107163136.470 8  83503772.38246  20392467.945                    20392476.449
 11  8 20 16 55 30.0000000  0 11G03G07G28G16G23G19G08G11G06G10G13
 117038583.416 7  91198926.42744  22271703.953                    22271713.953
 111711360.948 8  87047909.011 7  21257983.766                    21257992.336
 123876105.942 7  96526894.30943  23572844.445                    23572854.293
 130430716.014 6 101634509.63743  24820185.359                    24820197.773
 113952791.331 8  88794399.73345  21684497.313                    21684504.344
 110475074.594 8  86084496.62946  21022707.695                    21022714.285
 120358251.520 6  93785657.51442  22903404.375                    22903413.898
 123192411.263 6                  23442735.461
 127576532.252 6  99410449.59243  24277042.680                    24277053.891
 128686340.596 6 100275095.39543  24488198.570                    24488209.145
 107210727.384 8  83540856.19946  20401524.383                    20401532.984
 11  8 20 16 56  0.0000000  0 11G03G07G28G16G23G19G08G11G06G10G13
 117126744.640 7  91267623.41744  22288480.422                    22288491.141
 111662550.492 8  87009874.885 7  21248695.102                    21248704.160
 123823012.072 6  96485522.49143  23562740.961                    23562751.301
 130516030.189 6 101700988.12742  24836420.859                    24836431.777
 114045890.937 7  88866944.82345  21702212.883                    21702220.262
 110500258.728 8  86104120.62446  21027500.336                    21027507.086
 120286675.190 6  93729883.77243  22889783.602                    22889793.145
 123115428.886 6                  23428085.898
 127672500.088 6  99485229.62243  24295304.461                    24295316.063
 128733820.789 6 100312092.84743  24497234.578                    24497243.984
 107258876.764 8  83578375.16346  20410687.227                    20410694.910
 11  8 20 16 56 30.0000000  0 11G03G07G28G16G23G19G08G11G06G10G13
 117215268.777 7  91336603.18444  22305325.727                    22305335.973
 111613872.024 8  86971943.623 7  21239432.102                    21239440.477
 123770134.560 6  96444319.28644  23552679.008                    23552688.844
 130601244.350 6 101767388.71142  24852636.570                    24852647.523
 114139338.564 7  88939761.07545  21719995.570                    21720002.875
 110526045.255 8  86124214.03346  21032407.461                    21032414.809
 120215070.983 6  93674088.28443  22876157.594                    22876167.543
 123038528.149 6                  23413452.195
 127768675.985 7  99560171.78943  24313607.234                    24313617.723
 128781539.978 7 100349276.52143  24506315.383                    24506325.727
 107307582.984 8  83616328.04346  20419955.391                    20419963.789
 11  8 20 16 57  0.0000000  0 11G03G07G28G16G23G19G08G11G06G10G13
 117304153.140 7  91405863.65744  22322240.188                    22322250.480
 111565327.346 8  86934116.608 7  21230193.836                    21230202.668
 123717472.907 6  96403284.27544  23542657.563                    23542668.230
 130686358.127 6 101833711.04843  24868832.648                    24868844.992
 114233131.438 7  89012846.36545  21737843.773                    21737851.465
 110552433.656 8  86144776.40346  21037428.328                    21037436.043
 120143439.858 6  93618271.87843  22862526.109                    22862536.859
 122961712.052 6  95814330.20852  23398833.055                    23398838.871
 127865057.700 6  99635274.33043  24331946.859                    24331958.852
 128829495.765 6 100386644.58543  24515440.531                    24515451.270
 107356844.839 8  83654713.87346  20429329.430                    20429337.934
 11  8 20 16 57 30.0000000  0 11G03G07G28G16G23G19G08G11G06G10G13
 117393395.314 7  91475402.94544  22339222.422                    22339232.715
 111516918.120 8  86896395.132 7  21220982.242                    21220990.418
 123665026.821 7  96362417.25844  23532677.820                    23532687.836
 130771371.055 6 101899954.80643  24885010.859                    24885022.191
 114327267.132 8  89086198.78445  21755757.414                    21755764.406
 110579423.117 8  86165807.11946  21042564.234                    21042571.520
 120071783.149 6  93562435.47643  22848890.625                    22848900.836
 122884984.019 6  95754542.24042  23384233.148                    23384240.887
 127961642.852 6  99710535.35643  24350327.281                    24350338.496
 128877685.953 6 100424195.31243  24524610.242                    24524622.223
 107406660.910 8  83693531.56346  20438809.438                    20438817.148
 11  8 20 16 58  0.0000000  0 10G03G07G28G23G19G08G11G06G10G13
 117482992.419 7  91545218.80544  22356272.367                    22356282.609
 111468646.202 8  86858780.666 7  21211796.742                    21211804.621
 123612795.859 7  96321717.87644  23522738.469                    23522749.094
 114421742.978 8  89159816.26645  21773735.391                    21773742.297
 110607012.426 8  86187305.26646  21047814.586                    21047821.719
 120000101.353 6  93506579.55543  22835250.977                    22835260.359
 122808346.555 6  95694824.74742  23369649.336                    23369659.301
 128058428.856 6  99785952.89143  24368745.031                    24368756.172
 128926107.747 6 100461926.50943  24533824.930                    24533836.516
 107457029.767 8  83732779.98346  20448394.281                    20448402.004
 11  8 20 16 58 30.0000000  0 10G03G07G28G23G19G08G11G06G10G13
 117572941.440 7  91615308.86844  22373389.180                    22373399.613
 111420512.940 8  86821274.240 7  21202637.133                    21202645.285
 123560779.501 7  96281185.69844  23512840.031                    23512850.297
 114516556.171 8  89233696.58245  21791778.109                    21791785.070
 110635200.320 8  86209269.84446  21053178.945                    21053185.578
 119928395.331 6  93450704.73643  22821604.891                    22821614.547
 122731802.622 5  95635180.12652  23355083.414                    23355094.262
 128155412.908 6  99861524.80243  24387200.219                    24387212.039
 128974758.058 6 100499835.77843  24543082.563                    24543094.043
 107507949.695 8  83772457.82946  20458083.898                    20458092.359
 11  8 20 16 59  0.0000000  0 10G03G07G28G23G19G08G11G06G10G13
 117663239.161 7  91685670.66544  22390572.172                    22390582.559
 111372519.662 8  86783876.877 7  21193504.258                    21193513.258
 123508977.152 6  96240820.28344  23502982.609                    23502992.043
 114611703.642 8  89307837.39545  21809883.992                    21809891.668
 110663985.455 8  86231699.81346  21058656.492                    21058662.918
 119856666.141 6  93394811.88943  22807955.766                    22807965.078
 122655354.996 5  95575610.64852  23340536.016                    23340547.137
 128252592.322 5  99937248.88443  24405692.891                    24405704.500
 129023634.083 6 100537920.93343  24552384.141                    24552395.691
 107559419.091 8  83812563.83246  20467878.047                    20467887.438
 11  8 20 16 59 30.0000000  0 10G03G07G28G23G19G08G11G06G10G13
 117753882.773 7  91756301.97144  22407821.133                    22407831.691
 111324667.833 8  86746589.748 7  21184398.414                    21184406.523
 123457388.323 7  96200621.23644  23493165.594                    23493174.258
 114707182.634 8  89382236.55645  21828052.938                    21828060.605
 110693367.000 8  86254594.51946  21064247.688                    21064254.152
 119784914.731 7  93338901.76743  22794301.508                    22794310.707
 122579006.764 6                  23326007.570
 128349964.816 6 100013123.44843  24424222.258                    24424234.211
 129072733.263 6 100576179.95443  24561727.148                    24561739.176
 107611436.639 8  83853096.97846  20477776.648                    20477785.664
 11  8 20 17  0  0.0000000  0 10G03G07G28G23G19G08G11G06G10G13
 117844869.478 7  91827200.60944  22425135.461                    22425145.508
 111276959.182 8  86709414.188 7  21175319.813                    21175328.648
 123406012.442 7  96160588.14244  23483389.094                    23483397.770
 114802990.414 8  89456891.90445  21846284.477                    21846291.988
 110723343.758 8  86277953.02946  21069951.992                    21069959.098
 119713142.211 7  93282975.16443  22780643.664                    22780653.090
 122502760.985 6                  23311498.734
 128447527.707 6 100089146.35542  24442788.125                    24442799.969
 129122052.744 6 100614610.61143  24571112.219                    24571124.047
 107664000.577 8  83894055.86146  20487779.219                    20487787.992
 11  8 20 17  0 30.0000000  0 10G03G07G28G23G19G08G11G06G10G13
 117936196.361 7  91898364.35144  22442514.641                    22442525.359
 111229395.558 8  86672351.623 7  21166268.633                    21166277.148
 123354849.283 7  96120720.79144  23473652.945                    23473661.664
 114899124.397 8  89531801.43645  21864578.555                    21864585.828
 110753914.551 8  86301774.41146  21075769.375                    21075776.926
 119641349.678 7  93227032.96943  22766981.633                    22766991.566
 122426620.541 6                  23297009.984
 128545278.369 6 100165315.61443  24461389.570                    24461400.578
 129171589.845 6 100653210.85942  24580538.289                    24580550.188
 107717109.366 8  83935439.30746  20497885.781                    20497894.059
 11  8 20 17  1  0.0000000  0 10G03G07G28G23G19G08G11G06G10G13
 118027860.622 7  91969790.97244  22459957.711                    22459967.961
 111181978.091 8  86635402.962 7  21157245.594                    21157253.504
 123303898.080 6  96081018.59044  23463956.875                    23463966.691
 114995581.820 8  89606962.99745  21882933.492                    21882940.465
 110785078.175 7  86326057.75046  21081699.297                    21081706.844
 119569537.670 7  93171075.55243  22753316.484                    22753327.117
 122350588.206 6  95338140.19852  23282540.789                    23282547.512
 128643214.283 6 100241629.24443  24480025.680                    24480037.477
 129221341.658 6 100691978.40043  24590006.414                    24590017.570
 107770761.248 8  83977245.94346  20508095.094                    20508103.520
 11  8 20 17  1 30.0000000  0 10G03G07G28G23G19G08G11G06G10G13
 118119859.318 7  92041478.23044  22477464.180                    22477474.398
 111134708.916 8  86598569.845 7  21148250.539                    21148258.840
 123253158.498 6  96041481.28744  23454301.695                    23454311.398
 115092359.966 8  89682374.45645  21901350.281                    21901357.082
 110816833.174 8  86350801.90246  21087742.336                    21087749.617
 119497707.654 7  93115104.17343  22739647.531                    22739658.504
 122274667.375 6  95278981.16342  23268093.500                    23268100.965
 128741332.996 6 100318085.25543  24498697.555                    24498709.219
 129271305.726 6 100730911.34142  24599514.813                    24599525.277
 107824954.963 8  84019474.78246  20518407.969                    20518415.934
 11  8 20 17  2  0.0000000  0 10G03G07G28G23G19G08G11G06G10G13
 118212189.601 7  92113423.80244  22495034.406                    22495044.500
 111087589.265 8  86561853.234 7  21139284.336                    21139292.480
 123202630.115 7  96002108.54044  23444686.484                    23444696.477
 115189456.048 8  89758033.66045  21919827.102                    21919834.027
 110849178.477 7  86376006.03146  21093896.898                    21093905.074
 119425860.469 7  93059119.38443  22725975.672                    22725986.320
 122198860.759 6  95219911.08242  23253667.906                    23253676.227
 128839632.132 6 100394681.92543  24517402.594                    24517415.160
 129321479.341 6 100770007.59142  24609062.289                    24609073.313
 107879689.092 8  84062124.72046  20528823.477                    20528832.285
 11  8 20 17  2 30.0000000  0 10G03G07G28G23G19G08G11G06G10G13
 118304848.471 7  92185625.41944  22512666.813                    22512677.379
 111040620.886 8  86525254.548 7  21130345.906                    21130354.418
 123152312.206 7  95962899.83944  23435111.688                    23435121.297
 115286867.210 8  89833938.39945  21938363.750                    21938372.098
 110882112.824 8  86401669.15646  21100164.398                    21100171.852
 119353997.384 7  93003122.21143  22712300.656                    22712310.684
 122123171.458 7  95160932.41843  23239264.750                    23239274.898
 128938109.114 6 100471417.12543  24536142.797                    24536154.980
 129371859.587 6 100809264.82242  24618649.391                    24618659.609
 107934961.560 8  84105194.14546  20539341.531                    20539350.188
 11  8 20 17  3  0.0000000  0 10G03G07G28G23G19G08G11G06G10G13
 118397832.876 7  92258080.73744  22530361.305                    22530372.113
 110993805.485 8  86488775.054 7  21121436.992                    21121445.609
 123102204.307 7  95923854.79244  23425576.750                    23425585.008
 115384590.607 8  89910086.44245  21956959.750                    21956967.141
 110915634.682 8  86427790.08546  21106543.953                    21106551.082
 119282119.027 7  92947113.12643  22698623.102                    22698633.141
 122047602.530 6  95102047.57343  23224884.578                    23224894.270
 129036761.122 6 100548288.75943  24554916.133                    24554928.414
 129422443.721 6 100848680.94343  24628274.219                    24628286.605
 107990770.358 8  84148681.48346  20549962.141                    20549969.766
 11  8 20 17  3 30.0000000  0 10G03G07G28G23G19G08G11G06G10G13
 118491140.221 6  92330787.67244  22548116.625                    22548127.957
 110947144.853 8  86452416.129 7  21112558.227                    21112566.793
 123052306.000 7  95884973.08444  23416080.828                    23416089.402
 115482623.558 8  89986475.66445  21975615.125                    21975622.621
 110949742.951 8  86454367.93446  21113033.617                    21113041.922
 119210226.841 7  92891093.26444  22684942.414                    22684952.809
 121972156.629 6  95043258.55043  23210526.422                    23210537.262
 129135585.918 6 100625294.99443  24573721.656                    24573733.137
 129473229.211 6 100888254.02842  24637937.727                    24637951.051
 108047114.195 8  84192585.75346  20560683.375                    20560692.301
 11  8 20 17  4  0.0000000  0 10G03G07G28G23G19G08G11G06G10G13
 118584767.577 7  92403744.00144  22565934.078                    22565944.574
 110900640.593 8  86416179.052 7  21103708.547                    21103717.086
 123002616.911 7  95846254.36344  23406624.867                    23406633.930
 115580963.432 7  90063104.05045  21994328.500                    21994335.391
 110984436.333 8  86481401.71946  21119635.633                    21119643.352
 119138321.908 7  92835063.46244  22671259.578                    22671269.445
 121896837.018 6  94984567.98743  23196193.195                    23196204.590
 129234581.059 6 100702434.01243  24592560.625                    24592571.840
 129524213.237 6 100927981.73252  24647641.047                    24647653.211
 108103991.394 8  84236905.62446  20571507.078                    20571515.109
 11  8 20 17  4 30.0000000  0 10G03G07G28G23G19G08G11G06G10G13
 118678711.747 6  92476947.16244  22583810.219                    22583821.910
 110854293.836 8  86380064.698 7  21094888.875                    21094897.500
 122953136.246 6  95807698.07544  23397208.188                    23397218.395
 115679606.434 7  90139968.65345  22013099.688                    22013106.492
 111019713.139 7  86508890.10746  21126349.047                    21126356.418
 119066405.544 7  92779024.76144  22657573.844                    22657583.156
 121821646.694 7  94925978.11943  23181886.375                    23181896.703
 129333743.817 6 100779703.59843  24611429.938                    24611442.137
 129575392.913 6 100967861.84242  24657380.797                    24657393.090
 108161400.166 8  84281639.71246  20582431.445                    20582439.785
 11  8 20 17  5  0.0000000  0 10G03G07G28G23G19G08G11G06G10G13
 118772970.324 6  92550395.31644  22601748.094                    22601758.563
 110808106.473 8  86344074.557 7  21086099.906                    21086108.164
 122903863.280 6  95769303.60944  23387831.094                    23387841.793
 115778550.731 7  90217067.99545  22031928.258                    22031935.637
 111055572.269 8  86536832.27846  21133173.367                    21133179.855
 118994478.526 7  92722977.78644  22643886.781                    22643896.461
 121746588.654 6  94867491.30643  23167603.797                    23167613.488
 129433071.677 6 100857101.79943  24630331.320                    24630343.746
 129626765.811 6 101007892.63042  24667156.398                    24667169.035
 108219338.722 8  84326786.61246  20593457.039                    20593465.324
 11  8 20 17  5 30.0000000  0 10G03G07G28G23G19G08G11G06G10G13
 118867540.380 6  92624086.20544  22619744.703                    22619754.168
 110762080.854 8  86308210.443 7  21077341.797                    21077349.844
 122854797.747 7  95731070.76344  23378495.508                    23378505.043
 115877793.684 7  90294400.10045  22050813.656                    22050821.453
 111092012.395 8  86565227.17246  21140107.039                    21140114.078
 118922541.958 7  92666923.34443  22630197.039                    22630206.203
 121671665.950 6  94809110.02243  23153345.555                    23153355.605
 129532562.475 6 100934627.02542  24649265.008                    24649275.176
 129678328.923 6 101048071.57642  24676968.867                    24676981.508
 108277805.755 8  84372345.32746  20604583.086                    20604591.234
 11  8 20 17  6  0.0000000  0 10G03G07G28G23G19G08G11G06G10G13
 118962418.720 7  92698017.31244  22637799.305                    22637808.566
 110716217.764 8  86272473.001 7  21068614.375                    21068622.453
 122805938.787 7  95692998.86644  23369198.211                    23369207.492
 115977331.855 7  90371962.24945  22069754.945                    22069762.902
 111129031.648 8  86594073.33346  21147151.750                    21147158.512
 118850596.653 7  92610862.09443  22616506.922                    22616515.910
 121596881.673 6  94750836.62843  23139114.469                    23139124.184
 129632213.256 6 101012276.85543  24668226.930                    24668238.641
 129730079.037 6 101088396.23142  24686816.531                    24686828.988
 108336798.410 8  84418313.59746  20615808.602                    20615816.934
 11  8 20 17  6 30.0000000  0 10G03G07G28G23G19G08G11G06G10G13
 119057602.424 7  92772186.36244  22655911.938                    22655922.098
 110670519.612 8  86236864.057 7  21059918.289                    21059925.734
 122757286.124 7  95655087.76544  23359939.297                    23359949.309
 116077162.606 7  90449752.36945  22088751.750                    22088760.180
 111166628.959 8  86623369.93746  21154305.977                    21154313.285
 118778644.609 7  92554795.59544  22602814.703                    22602824.000
 121522238.638 6  94692673.19843  23124910.578                    23124919.602
 129732021.986 6 101090049.83042  24687220.516                    24687231.578
 129782013.883 6 101128864.93542  24696699.117                    24696712.281
 108396315.287 8  84464690.36646  20627134.711                    20627142.547
 11  8 20 17  7  0.0000000  0 10G03G07G28G23G19G08G11G06G10G13
 119153088.607 7  92846591.07344  22674083.078                    22674092.145
 110624987.413 8  86201384.411 7  21051253.523                    21051261.535
 122708839.021 7  95617336.84344  23350720.563                    23350729.863
 116177282.904 7  90527768.11345  22107804.555                    22107812.711
 111204802.242 8  86653115.32646  21161570.313                    21161577.465
 118706686.332 7  92498724.24343  22589121.063                    22589131.063
 121447739.882 6  94634622.24543  23110733.984                    23110743.398
 129831985.760 6 101167943.58042  24706243.461                    24706254.086
 129834130.487 6 101169475.15142  24706616.531                    24706628.988
 108456354.416 8  84511474.06746  20638559.805                    20638567.801
 11  8 20 17  7 30.0000000  0 10G03G07G28G23G19G08G11G06G10G13
 119248874.842 7  92921229.62444  22692310.258                    22692319.375
 110579623.266 8  86166035.700 7  21042621.414                    21042629.211
 122660596.887 7  95579745.62544  23341540.352                    23341549.020
 116277690.016 7  90606007.34645  22126911.227                    22126919.637
 111243550.444 8  86683308.70946  21168943.836                    21168950.980
 118634723.362 7  92442649.24243  22575427.516                    22575437.281
 121373388.473 6  94576686.14543  23096585.930                    23096595.227
 129932102.228 6 101245956.35842  24725295.070                    24725306.008
 129886426.058 6 101210224.83842  24716568.891                    24716579.691
 108516914.336 8  84558663.56446  20650083.453                    20650092.648
 11  8 20 17  8  0.0000000  0 10G03G07G28G23G19G08G11G06G10G13
 119344957.786 7  92996099.37444  22710594.188                    22710603.668
 110534429.048 8  86130819.423 7  21034020.797                    21034028.984
 122612559.186 7  95542313.69944  23332398.930                    23332407.418
 116378381.506 7  90684468.14945  22146072.555                    22146079.871
 111282872.053 8  86713948.91046  21176426.563                    21176433.723
 118562757.121 7  92386571.65243  22561732.867                    22561741.957
 121299187.527 7  94518867.24243  23082466.406                    23082475.355
 130032369.005 6 101324086.22242  24744375.391                    24744386.199
 129938898.012 6 101251111.96542  24726554.164                    24726565.090
 108577993.385 8  84606257.60446  20661706.992                    20661715.727
 11  8 20 17  8 30.0000000  0 10G03G07G28G23G19G08G11G06G10G13
 119441334.328 6  93071197.90743  22728933.125                    22728943.984
 110489406.082 8  86095736.602 7  21025453.039                    21025461.332
 122564725.181 6  95505040.47044  23323295.852                    23323304.602
 116479353.956 7  90763147.89045  22165287.016                    22165294.098
 111322765.136 8  86745034.41246  21184018.219                    21184024.953
 118490788.257 6  92330492.04943  22548037.648                    22548047.133
 121225139.780 7  94461167.75342  23068374.836                    23068385.199
 130132783.420 6 101402331.14142  24763483.297                    24763494.316
 129991543.511 6 101292134.33843  24736573.148                    24736583.582
 108639588.626 8  84654253.88146  20673428.063                    20673436.824
 11  8 20 17  9  0.0000000  0 10G03G07G28G23G19G08G11G06G10G13
 119538001.689 7  93146523.02544  22747329.125                    22747339.430
 110444556.395 8  86060788.797 7  21016918.422                    21016926.727
 122517094.553 7  95467925.73844  23314231.781                    23314241.191
 116580604.844 7  90842044.58944  22184554.195                    22184561.926
 111363228.561 8  86776564.33546  21191717.578                    21191724.910
 118418818.139 7  92274411.47843  22534342.586                    22534351.297
 121151248.692 6  94403590.25542  23054313.375                    23054323.461
 130233343.350 6 101480689.43942  24782619.273                    24782630.770
 130044359.859 6 101333289.89343  24746623.063                    24746633.957
 108701698.933 8  84702651.51546  20685247.398                    20685255.711
 11  8 20 17  9 30.0000000  0 10G03G07G28G23G19G08G11G06G10G13
 119634957.266 7  93222072.73743  22765779.766                    22765789.352
 110399881.713 8  86025977.406 7  21008417.188                    21008425.859
 122469666.504 6  95430968.80044  23305206.672                    23305216.156
 116682131.341 7  90921156.05745  22203874.617                    22203881.883
 111404260.665 8  86808537.37546  21199526.398                    21199533.273
 118346847.865 6  92218330.77043  22520646.625                    22520655.883
 121077517.211 6  94346137.23142  23040282.719                    23040292.402
 130334046.189 6 101559159.21542  24801783.188                    24801794.227
 130097344.306 6 101374576.40143  24756704.898                    24756717.125
 108764322.382 8  84751448.97746  20697164.102                    20697172.777
 11  8 20 17 10  0.0000000  0 11G03G07G28G01G23G19G08G11G06G10G13
 119732197.962 6  93297844.62143  22784283.250                    22784292.820
 110355383.585 8  85991303.546 7  20999949.594                    20999958.211
 122422440.418 7  95394169.29144  23296219.422                    23296229.465
 129701393.80216 101066175.35316  24681374.234                    24681389.863
 116783930.334 7  91000479.87045  22223246.094                    22223254.387
 111445859.718 8  86840952.20646  21207442.563                    21207449.277
 118274878.723 6  92162250.92343  22506950.414                    22506960.707
 121003948.101 6  94288810.63942  23026282.297                    23026292.496
 130434889.340 6 101637738.15142  24820972.508                    24820984.191
 130150494.015 6 101415991.68843  24766819.156                    24766832.168
 108827456.473 8  84800644.33746  20709178.172                    20709186.520
 11  8 20 17 10 30.0000000  0 11G03G07G28G01G23G19G08G11G06G10G13
 119829721.052 7  93373836.57043  22802841.414                    22802851.496
 110311063.904 8  85956768.738 7  20991515.570                    20991524.949
 122375415.578 7  95357526.56444  23287271.586                    23287280.527
 129626823.603 5 101008068.747 6  24667181.938                    24667199.969
 116885999.022 7  91080013.83745  22242668.938                    22242677.270
 111488023.805 8  86873807.32246  21215465.844                    21215473.039
 118202911.997 6  92106173.00043  22493256.000                    22493266.102
 120930544.365 6  94231612.87242  23012315.258                    23012324.426
 130535870.338 6 101716424.63442  24840187.797                    24840200.363
 130203806.154 6 101457533.51643  24776963.750                    24776977.281
 108891099.459 8  84850236.24246  20721288.969                    20721297.348
 11  8 20 17 11  0.0000000  0 11G03G07G28G01G23G19G08G11G06G10G13
 119927523.636 7  93450046.29243  22821452.953                    22821462.566
 110266924.481 8  85922374.406 7  20983116.477                    20983125.055
 122328591.586 7  95321040.36844  23278361.633                    23278370.633
 129552140.854 5 100949874.404 6  24652971.844                    24652988.969
 116988334.715 7  91159755.84844  22262143.039                    22262151.285
 111530751.720 8  86907101.77946  21223596.719                    21223604.090
 118130949.315 6  92050098.19643  22479562.195                    22479571.406
 120857309.327 6  94174546.82542  22998377.984                    22998387.711
 130636987.113 5 101795216.85542  24859430.297                    24859442.594
 130257277.993 7 101499199.79843  24787139.969                    24787152.238
 108955249.439 8  84900223.22246  20733496.398                    20733505.176
 11  8 20 17 11 30.0000000  0 10G03G07G28G01G23G19G08G11G10G13
 120025603.879 6  93526472.37343  22840116.797                    22840127.371
 110222968.010 8  85888122.629 7  20974751.898                    20974760.543
 122281968.668 7  95284710.87044  23269489.852                    23269498.797
 129477348.59315 100891594.79116  24638738.750                    24638756.016
 117090935.074 7  91239704.08145  22281667.203                    22281675.047
 111574042.751 7  86940835.01846  21231834.883                    21231841.980
 118058992.629 6  91994028.09443  22465868.945                    22465878.309
 120784246.908 6  94117615.10842  22984474.641                    22984484.750
 130310907.638 7 101540989.00544  24797345.914                    24797357.594
 109019905.413 8  84950604.46546  20745800.148                    20745808.188
 11  8 20 17 12  0.0000000  0 10G03G07G28G01G23G19G08G11G10G13
 120123957.645 6  93603111.58943  22858833.094                    22858843.973
 110179194.731 8  85854013.592 7  20966421.969                    20966430.227
 122235545.024 7  95248536.62144  23260655.367                    23260665.207
 129402448.04915 100833230.78416  24624486.273                    24624502.301
 117193796.682 7  91319855.88144  22301241.523                    22301248.699
 111617893.228 8  86975004.19846  21240179.438                    21240186.500
 117987041.791 6  91937962.49643  22452177.414                    22452186.848
 120711358.867 6  94060819.26842  22970604.813                    22970615.008
 130364691.338 7 101582898.27344  24807581.180                    24807592.602
 109085063.843 8  85001377.23946  20758199.453                    20758207.477
 11  8 20 17 12 30.0000000  0 10G03G07G28G01G23G19G08G11G10G13
 120222581.928 6  93679961.57243  22877601.500                    22877611.410
 110135606.540 8  85820048.780 7  20958127.602                    20958135.625
 122189319.917 7  95212517.11944  23251859.016                    23251868.570
 129327442.08915 100774784.63516  24610213.836                    24610229.273
 117296916.389 7  91400208.81445  22320864.945                    22320871.746
 111662301.858 7  87009608.31146  21248630.086                    21248637.297
 117915098.345 6  91881902.67143  22438487.766                    22438496.672
 120638648.275 6  94004161.66643  22956768.805                    22956779.645
 130418625.872 6 101624925.06643  24817844.344                    24817856.512
 109150722.913 8  85052540.11446  20770694.031                    20770701.758
 11  8 20 17 13  0.0000000  0 10G03G07G28G01G23G19G08G11G10G13
 120321473.733 7  93757020.03344  22896419.172                    22896429.605
 110092205.299 8  85786229.646 7  20949868.539                    20949876.832
 122143292.636 7  95176651.74544  23243099.984                    23243109.938
 129252333.295 6 100716258.356 6  24595920.898                    24595935.539
 117400291.045 7  91480760.42045  22340536.164                    22340544.004
 111707266.786 8  87044645.90046  21257186.813                    21257193.305
 117843163.529 6  91825849.55443  22424799.547                    22424808.297
 120566118.113 5  93947644.62042  22942967.188                    22942978.164
 130472708.588 7 101667067.37443  24828135.766                    24828148.055
 109216880.198 8  85104091.21946  20783283.547                    20783291.258
 11  8 20 17 13 30.0000000  0 10G03G07G28G01G23G19G08G11G10G13
 120420630.320 7  93834284.83544  22915288.477                    22915298.688
 110048993.311 8  85752557.971 7  20941645.563                    20941653.563
 122097462.814 7  95140940.24044  23234378.883                    23234388.781
 129177124.490 5 100657654.175 6  24581609.234                    24581623.109
 117503918.025 7  91561508.62345  22360255.492                    22360263.781
 111752786.854 8  87080116.06646  21265848.531                    21265855.586
 117771238.979 6  91769804.46144  22411112.078                    22411121.625
 120493771.629 5  93891270.76242  22929199.492                    22929210.398
 130526936.968 6 101709323.15043  24838454.336                    24838467.078
 109283533.994 8  85156029.22946  20795966.398                    20795975.898
 11  8 20 17 14  0.0000000  0 10G03G07G28G01G23G19G08G11G10G13
 120520048.862 6  93911753.73643  22934206.391                    22934217.734
 110005971.715 7  85719034.665 7  20933458.734                    20933466.785
 122051829.601 7  95105381.87744  23225695.641                    23225704.813
 129101818.102 6 100598973.914 6  24567279.430                    24567292.609
 117607794.282 7  91642451.06645  22380022.570                    22380031.559
 111798859.913 8  87116017.13746  21274616.234                    21274623.191
 117699325.558 6  91713768.04343  22397427.172                    22397436.523
 120421612.033 6  93835042.47243  22915468.461                    22915478.699
 130581308.035 6 101751690.12543  24848800.758                    24848813.375
 109350682.113 8  85208352.40946  20808744.383                    20808753.715
 11  8 20 17 14 30.0000000  0 11G03G07G28G01G24G23G19G08G11G10G13
 120619726.424 6  93989424.46843  22953175.070                    22953185.566
 109963142.675 8  85685661.388 7  20925308.219                    20925316.703
 122006392.475 7  95069976.34844  23217048.727                    23217058.801
 129026416.719 5 100540219.652 6  24552929.547                    24552944.895
 128126896.15515                  24381748.766
 117711917.268 7  91723585.77444  22399836.906                    22399844.879
 111845484.227 8  87152347.75846  21283488.680                    21283495.820
 117627425.034 6  91657741.66143  22383745.297                    22383754.219
 120349642.203 5  93778962.14143  22901771.742                    22901782.758
 130635819.355 6 101794166.34443  24859174.883                    24859186.668
 109418322.703 8  85261059.35746  20821616.078                    20821624.781
 11  8 20 17 15  0.0000000  0 11G03G07G28G01G24G23G19G08G11G10G13
 120719660.207 6  94067294.87143  22972191.680                    22972203.012
 109920507.821 8  85652439.418 7  20917194.953                    20917203.410
 121961150.610 7  95034722.96544  23208439.531                    23208449.828
 128950923.107 5 100481393.568 6  24538563.898                    24538579.750
 128055198.78514                  24368104.703
 117816283.741 7  91804910.20244  22419697.242                    22419704.598
 111892657.710 8  87189106.30446  21292465.773                    21292472.520
 117555538.695 6  91601726.38543  22370064.844                    22370074.363
 120277864.987 6  93723031.83743  22888114.680                    22888124.031
 130690467.572 6 101836749.25043  24869573.914                    24869585.953
 109486453.073 8  85314147.91045  20834581.211                    20834588.961
 11  8 20 17 15 30.0000000  0 11G03G07G28G01G24G23G19G08G11G10G13
 120819847.510 6  94145362.79643  22991256.570                    22991268.219
 109878069.576 8  85619370.686 7  20909119.641                    20909127.633
 121916103.654 7  94999621.49344  23199867.836                    23199876.891
 128875340.133 6 100422497.867 6  24524182.391                    24524195.594
 127983425.79415                  24354447.273
 117920891.272 7  91886422.45544  22439603.547                    22439610.977
 111940378.738 8  87226291.50946  21301546.484                    21301553.035
 117483667.972 6  91545723.23343  22356389.148                    22356396.305
 120206283.805 6  93667254.35343  22874494.352                    22874502.145
 130745250.406 6 101879437.08742  24879997.734                    24880010.754
 109555071.636 8  85367616.89746  20847638.875                    20847646.605
 11  8 20 17 16  0.0000000  0 11G03G07G28G01G24G23G19G08G11G10G13
 120920285.317 6  94223625.90543  23010369.734                    23010380.168
 109835829.354 8  85586456.232 7  20901082.047                    20901089.203
 121871250.775 7  94964671.24744  23191332.484                    23191341.883
 128799670.301 6 100363534.442 6  24509781.688                    24509796.527
 127911580.44215                  24340775.938
 118025737.021 7  91968120.33744  22459554.984                    22459562.371
 111988645.543 8  87263901.99046  21310731.086                    21310738.211
 117411814.190 6  91489733.31843  22342715.078                    22342724.047
 120134901.706 6  93611631.97943  22860909.188                    22860918.672
 130800165.228 5 101922227.75042  24890447.172                    24890460.516
 109624176.164 8  85421464.54346  20860788.867                    20860796.664
 11  8 20 17 16 30.0000000  0 11G03G07G28G01G24G23G19G08G11G10G13
 121020970.403 6  94302081.72343  23029529.969                    23029539.992
 109793788.251 8  85553696.960 7  20893081.516                    20893088.832
 121826590.728 7  94929871.25644  23182834.320                    23182842.480
 128723915.857 6 100304505.085 6  24495366.258                    24495381.578
 127839664.43915                  24327092.195
 118130817.379 7  92050001.04544  22479551.289                    22479559.016
 112037455.603 8  87301935.76946  21320019.172                    21320026.578
 117339978.544 6  91433757.48143  22329045.766                    22329054.559
 120063721.250 6  93556166.64143  22847363.258                    22847373.270
 130855208.815 6 101965118.76042  24900922.047                    24900936.016
 109693763.699 8  85475688.57045  20874030.875                    20874038.898
 11  8 20 17 17  0.0000000  0 11G03G07G28G01G24G23G19G08G11G10G13
 121121899.922 7  94380728.01443  23048736.438                    23048746.652
 109751948.660 8  85521094.698 7  20885119.313                    20885127.656
 121782123.273 7  94895221.34844  23174371.055                    23174380.922
 128648079.660 6 100245412.025 6  24480934.344                    24480950.180
 127767685.90215                  24313396.367
 118236129.585 7  92132062.41544  22499591.242                    22499598.980
 112086807.569 7  87340391.83746  21329410.375                    21329417.969
 117268162.281 6  91377796.82043  22315379.836                    22315387.695
 119992745.845 6  93500861.20143  22833857.852                    22833866.230
 130910378.470 6 102008107.94542  24911421.305                    24911434.215
 109763832.314 8  85530287.46246  20887364.711                    20887372.785
 11  8 20 17 17 30.0000000  0 11G03G07G28G01G24G23G19G08G11G10G13
 121223071.599 6  94459562.99443  23067988.742                    23067999.629
 109710312.326 8  85488650.795 7  20877196.844                    20877204.969
 121737847.622 7  94860720.87844  23165946.445                    23165955.160
 128572164.290 6 100186257.322 6  24466487.727                    24466503.512
 127695639.19515                  24299684.266
 118341670.678 7  92214302.14444  22519675.633                    22519683.223
 112136699.353 7  87379268.53646  21338904.625                    21338912.059
 117196367.362 6  91321852.77543  22301717.141                    22301725.246
 119921978.355 6  93445717.73143  22820390.414                    22820400.047
 130965671.252 5 102051193.10442  24921942.656                    24921957.000
 109834380.086 8  85585259.71246  20900789.711                    20900798.828
 11  8 20 17 18  0.0000000  0 10G03G07G28G01G24G23G19G08G11G13
 121324482.060 6  94538584.04944  23087286.445                    23087297.344
 109668881.101 8  85456366.736 7  20869312.500                    20869320.684
 121693762.836 7  94826369.10844  23157557.727                    23157566.320
 128496172.746 5 100127043.219 6  24452027.352                    24452042.859
 127623530.593 5                  24285963.102
 118447437.786 7  92296717.98645  22539802.078                    22539810.180
 112187128.641 7  87418564.06146  21348500.898                    21348508.094
 117124594.716 6  91265926.07743  22288058.695                    22288068.266
 119851421.920 6  93390738.69643  22806965.102                    22806973.348
 109905404.400 8  85640603.30746  20914305.211                    20914313.984
 11  8 20 17 18 30.0000000  0 10G03G07G28G01G24G23G19G08G11G13
 121426128.563 6  94617789.06844  23106628.195                    23106640.102
 109627657.032 8  85424244.087 7  20861467.820                    20861476.258
 121649868.121 7  94792165.48244  23149204.703                    23149213.105
 128420107.119 5 100067771.437 6  24437552.117                    24437568.641
 127551363.29515                  24272230.375
 118553428.022 7  92379307.68244  22559972.023                    22559979.387
 112238093.488 8  87458276.90246  21358199.867                    21358206.168
 117052845.903 6  91210017.96243  22274404.430                    22274415.258
 119781079.234 6  93335926.25443  22793578.305                    22793587.535
 109976902.814 8  85696316.34546  20927910.867                    20927919.254
 11  8 20 17 19  0.0000000  0 10G03G07G28G01G24G23G19G08G11G13
 121528008.188 6  94697175.69843  23126015.891                    23126027.113
 109586641.536 8  85392283.974 7  20853662.508                    20853671.176
 121606163.224 7  94758109.78144  23140888.141                    23140897.141
 128343970.655 5 100008444.348 6  24423064.164                    24423079.879
 127479139.79015                  24258486.750
 118659638.797 7  92462069.23244  22580182.703                    22580190.332
 112289592.089 8  87498405.65846  21367999.688                    21368006.785
 116981122.364 5  91154129.54042  22260756.289                    22260766.855
 119710953.620 6  93281282.95443  22780234.367                    22780242.781
 110048873.335 8  85752397.23446  20941606.680                    20941614.738
 11  8 20 17 19 30.0000000  0  9G03G07G28G01G23G19G08G11G13
 121630118.517 7  94776742.08443  23145447.398                    23145457.938
 109545836.851 8  85360488.124 7  20845897.992                    20845906.516
 121562647.358 7  94724201.35344  23132606.906                    23132616.359
 128267766.378 5  99949064.451 5  24408563.734                    24408578.172
 118766067.178 7  92545000.34644  22600435.984                    22600443.219
 112341623.047 8  87538949.25946  21377900.969                    21377907.809
 116909425.876 6  91098262.21642  22247113.273                    22247123.457
 119641048.600 6  93226811.54643  22766932.258                    22766941.418
 110121313.992 8  85808844.45346  20955391.859                    20955400.246
 11  8 20 17 20  0.0000000  0 10G03G07G28G01G24G23G19G08G11G13
 121732456.433 7  94856485.85244  23164921.391                    23164932.070
 109505245.298 8  85328858.357 7  20838173.508                    20838181.984
 121519319.989 7  94690439.79445  23124362.359                    23124370.902
 128191497.71815  99889633.98415  24394050.555                    24394064.699
 127334537.16314                  24230964.578
 118872710.399 7  92628098.89844  22620729.422                    22620737.582
 112394184.239 7  87579906.00646  21387902.719                    21387910.145
 116837757.891 6  91042417.08643  22233475.891                    22233485.211
 119571367.077 6  93172514.26944  22753671.375                    22753681.465
 110194222.753 8  85865656.43146  20969265.328                    20969274.426
 11  8 20 17 20 30.0000000  0  9G03G07G28G01G23G19G08G11G13
 121835018.900 7  94936404.57944  23184438.547                    23184449.145
 109464867.586 8  85297395.201 7  20830489.531                    20830497.949
 121476179.697 7  94656824.02945  23116152.617                    23116162.023
 128115165.33015  99830154.20116  24379526.070                    24379538.566
 118979564.613 7  92711361.83245  22641063.328                    22641071.637
 112447272.591 7  87621273.52646  21398005.336                    21398012.332
 116766119.241 6  90986594.81543  22219843.609                    22219852.387
 119501911.301 7  93118392.92844  22740454.875                    22740464.297
 110267595.910 8  85922830.27746  20983227.672                    20983236.738
 11  8 20 17 21  0.0000000  0 10G03G07G28G01G24G23G19G08G11G13
 121937803.269 7  95016496.20144  23203998.078                    23204009.230
 109424705.686 8  85266100.212 7  20822847.516                    20822855.434
 121433225.651 7  94623353.38745  23107978.820                    23107988.195
 128038771.78315  99770627.17016  24364987.625                    24365002.957
 127189747.01415                  24203412.289
 119086627.205 7  92794787.13144  22661436.398                    22661444.641
 112500886.355 8  87663050.44146  21408207.711                    21408214.738
 116694511.614 6  90930796.72742  22206217.203                    22206226.320
 119432684.428 7  93064449.92844  22727281.047                    22727290.301
 110341431.416 8  85980364.41046  20997278.156                    20997287.027
 11  8 20 17 21 30.0000000  0 10G03G07G28G01G24G23G19G08G11G13
 122040806.274 6  95096758.16744  23223598.375                    23223609.988
 109384761.610 8  85234974.981 7  20815246.031                    20815254.594
 121390457.286 7  94590027.40144  23099839.742                    23099849.332
 127962321.20015  99711055.41616  24350440.563                    24350454.332
 127117284.655 6                  24189625.906
 119193895.220 7  92878372.48244  22681849.250                    22681857.434
 112555023.424 8  87705235.15046  21418509.367                    21418516.520
 116622936.755 6  90875024.12242  22192596.758                    22192606.125
 119363689.679 7  93010687.79344  22714152.617                    22714162.008
 110415726.898 8  86038256.95546  21011416.227                    21011424.914
 11  8 20 17 22  0.0000000  0 10G03G07G28G01G24G23G19G08G11G13
 122144025.139 6  95177188.36143  23243241.016                    23243251.734
 109345037.643 8  85204021.228 7  20807686.695                    20807695.496
 121347873.996 7  94556845.63644  23091737.031                    23091746.121
 127885816.092 5  99651441.158 6  24335881.656                    24335896.410
 127044783.027 5                  24175827.586
 119301365.987 7  92962115.82044  22702299.664                    22702308.094
 112609681.813 8  87747826.06746  21428910.664                    21428918.117
 116551396.225 6  90819278.30043  22178983.086                    22178992.500
 119294930.363 7  92957109.11644  22701068.289                    22701076.773
 110490480.505 8  86096506.49146  21025641.508                    21025650.711
 11  8 20 17 22 30.0000000  0 10G03G07G28G01G24G23G19G08G11G13
 122247457.637 6  95257785.02843  23262922.906                    23262934.379
 109305535.758 8  85173240.576 7  20800169.930                    20800178.789
 121305475.100 7  94523807.54444  23083668.516                    23083676.820
 127809259.161 5  99591786.525 6  24321312.383                    24321328.020
 126972244.67515                  24162022.234
 119409036.620 7  93046014.92444  22722789.156                    22722797.953
 112664859.882 8  87790821.93346  21439410.766                    21439418.375
 116479891.619 6  90763560.50643  22165375.578                    22165385.691
 119226409.611 7  92903716.34144  22688028.102                    22688037.793
 110565689.858 8  86155111.13646  21039953.453                    21039962.434
 11  8 20 17 23  0.0000000  0 10G03G07G28G01G24G23G19G08G11G13
 122351100.444 7  95338545.56444  23282646.023                    23282657.074
 109266257.329 8  85142633.997 7  20792695.359                    20792703.332
 121263259.809 6  94490912.56144  23075634.469                    23075644.133
 127732653.033 5  99532093.487 6  24306732.633                    24306750.148
 126899673.67815                  24148213.953
 119516904.171 7  93130067.45244  22743315.102                    22743323.805
 112720555.114 8  87834220.80445  21450009.188                    21450016.266
 116408424.335 6  90707871.75243  22151776.344                    22151784.844
 119158130.050 7  92850511.49744  22675034.766                    22675044.250
 110641352.284 8  86214068.84046  21054351.523                    21054360.082
 11  8 20 17 23 30.0000000  0 10G03G07G28G01G24G23G19G08G11G13
 122454950.887 6  95419467.91143  23302406.727                    23302419.445
 109227204.175 8  85112202.984 7  20785263.930                    20785271.855
 121221227.020 7  94458159.76744  23067636.133                    23067644.793
 127656000.788 5  99472364.445 5  24292147.227                    24292159.301
 126827070.474 5                  24134397.531
 119624965.330 7  93214270.85644  22763878.156                    22763886.914
 112776765.114 7  87878020.76346  21460705.750                    21460712.738
 116336995.620 6  90652213.06842  22138183.734                    22138193.535
 119090094.768 7  92797497.02344  22662088.977                    22662097.480
 110717465.239 8  86273377.60846  21068834.977                    21068843.988
 11  8 20 17 24  0.0000000  0 10G03G07G28G01G24G23G19G08G11G13
 122559006.169 6  95500549.86143  23322208.258                    23322220.383
 109188378.234 8  85081949.014 7  20777875.570                    20777883.926
 121179376.290 7  94425548.85644  23059672.664                    23059680.633
 127579304.589 5  99412601.255 5  24277553.156                    24277565.898
 126754438.82415                  24120577.297
 119733217.274 6  93298622.89444  22784478.844                    22784488.309
 112833487.602 7  87922220.09145  21471499.344                    21471506.117
 116265607.014 6  90596585.61342  22124598.328                    22124608.586
 119022306.674 7  92744675.13144  22649188.086                    22649198.473
 110794026.097 8  86333035.38345  21083404.602                    21083413.211
 11  8 20 17 24 30.0000000  0 10G03G07G28G01G24G23G19G08G11G13
 122663263.686 6  95581789.41143  23342048.031                    23342059.816
 109149782.103 8  85051874.129 7  20770530.945                    20770539.367
 121137706.785 7  94393079.15144  23051743.352                    23051751.570
 127502567.952 5  99352806.483 5  24262948.414                    24262964.742
 126681781.92315                  24106750.984
 119841657.762 7  93383121.87344  22805114.219                    22805123.777
 112890721.142 8  87966817.65146  21482390.539                    21482398.059
 116194261.040 6  90540991.33942  22111021.219                    22111032.477
 118954769.341 6  92692048.66844  22636336.695                    22636346.234
 110871032.982 8  86393040.68645  21098058.125                    21098066.891
 11  8 20 17 25  0.0000000  0 10G03G07G28G01G24G23G19G08G11G13
 122767720.295 6  95663184.09643  23361926.438                    23361937.586
 109111416.884 8  85021979.169 7  20763230.500                    20763238.758
 121096217.577 7  94360749.95444  23043848.094                    23043856.227
 127425793.28715  99292982.04915  24248340.430
 126609102.30314                  24092917.875
 119950283.141 7  93467764.90144  22825785.898                    22825794.758
 112948463.076 8  88011811.33246  21493378.875                    21493385.945
 116122958.701 6                  22097453.227
 118887485.312 7  92639619.57344  22623533.305                    22623542.898
 110948482.962 8  86453391.29345  21112796.430                    21112805.426
 11  8 20 17 25 30.0000000  0 10G03G07G28G01G24G23G19G08G11G13
 122872372.666 6  95744731.30643  23381841.266                    23381852.340
 109073284.041 8  84992265.266 7  20755974.141                    20755982.074
 121054907.193 7  94328560.07644  23035987.039                    23035996.055
 127348982.672 6  99233129.778 5  24233724.906
 126536402.32715                  24079086.820
 120059090.122 7  93552549.46344  22846490.617                    22846500.570
 113006710.411 7  88057198.84846  21504462.523                    21504469.934
 116051701.317 6                  22083893.328
 118820457.240 7  92587389.95144  22610777.828                    22610788.145
 111026372.646 8  86514084.48746  21127618.680                    21127627.246
 11  8 20 17 26  0.0000000  0 10G03G07G28G01G24G23G19G08G11G13
 122977218.935 6  95826429.61643  23401792.164                    23401803.477
 109035386.643 8  84962734.826 7  20748762.281                    20748770.781
 121013775.897 7  94296509.74044  23028159.945                    23028169.219
 127272139.779 6  99173252.299 5  24219101.555
 126463685.94314                  24065246.063
 120168076.103 7  93637473.51844  22867229.492                    22867239.461
 113065461.902 8  88102979.21146  21515643.141                    21515650.352
 115980490.804 6                  22070342.203
 118753688.759 7  92535362.59044  22598071.711                    22598082.355
 111104701.025 8  86575119.53446  21142524.203                    21142533.094
 11  8 20 17 26 30.0000000  0  9G03G07G28G01G23G19G08G11G13
 123082256.088 6  95908276.63643  23421780.078                    23421791.707
 108997725.905 8  84933388.759 7  20741595.555                    20741604.211
 120972822.537 7  94264598.01344  23020365.789                    23020375.246
 127195267.696 5  99113351.958 5  24204472.563
 120277238.488 7  93722535.04845  22888003.602                    22888012.031
 113124715.328 8  88149150.70746  21526918.391                    21526925.910
 115909328.944 6                  22056800.992
 118687182.650 7  92483539.67844  22585417.023                    22585426.309
 111183465.344 8  86636494.30446  21157512.594                    21157521.602
 11  8 20 17 27  0.0000000  0  9G03G07G28G01G23G19G08G11G13
 123187481.136 6  95990270.09743  23441804.305                    23441815.520
 108960303.676 8  84904228.602 7  20734474.391                    20734482.449
 120932046.311 7  94232824.33544  23012606.750                    23012616.047
 127118368.797 6  99053430.853 6  24189839.609                    24189852.176
 120386574.244 7  93807731.61444  22908809.734                    22908818.063
 113184467.893 8  88195711.12746  21538288.781                    21538296.059
 115838216.988 6                  22043269.406
 118620941.740 7  92431923.43144  22572811.156                    22572821.430
 111262662.735 8  86698206.50745  21172582.977                    21172592.043
 11  8 20 17 27 30.0000000  0  9G03G07G28G01G23G19G08G11G13
 123292891.195 6  96072407.71743  23461863.727                    23461874.242
 108923121.997 8  84875255.867 7  20727399.359                    20727407.285
 120891446.226 7  94201187.91144  23004881.047                    23004890.156
 127041445.424 6  98993490.611 6  24175201.023                    24175215.652
 120496080.143 7  93893060.75244  22929647.531                    22929656.313
 113244717.211 8  88242658.62946  21549753.602                    21549761.547
 115767156.353 7                  22029746.828
 118554969.298 7  92380516.35344  22560257.125                    22560266.730
 111342290.307 8  86760253.92946  21187736.180                    21187745.582
 11  8 20 17 28  0.0000000  0  9G03G07G28G01G23G19G08G11G13
 123398483.581 7  96154687.38843  23481956.797                    23481967.695
 108886182.806 7  84846472.095 7  20720369.422                    20720377.684
 120851021.670 7  94169688.26444  22997188.297                    22997197.535
 126964501.146 5  98933534.051 6  24160558.563                    24160574.984
 120605753.304 7  93978520.25744  22950518.359                    22950526.984
 113305461.375 8  88289991.71346  21561313.570                    21561320.242
 115696148.551 7                  22016234.367
 118489268.271 7  92329320.80044  22547754.922                    22547763.598
 111422345.461 8  86822634.51745  21202970.234                    21202978.996
 11  8 20 17 28 30.0000000  0  9G03G07G28G01G23G19G08G11G13
 123504255.593 6  96237107.04443  23502084.742                    23502095.465
 108849488.138 7  84817878.871 7  20713386.398                    20713394.848
 120810771.739 7  94138324.70745  22989529.180                    22989538.566
 126887538.533 6  98873563.181 6  24145913.164                    24145929.008
 120715591.051 7  94064107.99144  22971419.039                    22971427.813
 113366698.053 7  88337708.58346  21572966.391                    21572973.746
 115625195.801 7                  22002732.203
 118423841.804 7  92278339.16044  22535305.242                    22535313.395
 111502826.284 8  86885346.80645  21218284.984                    21218293.945
 11  8 20 17 29  0.0000000  0  9G03G07G28G01G23G19G08G11G13
 123610203.451 7  96319663.70843  23522246.586                    23522256.797
 108813038.461 7  84789476.540 7  20706450.914                    20706459.250
 120770694.497 7  94107095.73544  22981903.148                    22981912.039
 126810559.395 5  98813579.468 6  24131264.328                    24131281.082
 120825589.305 7  94149820.82744  22992350.859                    22992359.859
 113428423.835 7  88385806.56746  21584712.555                    21584719.934
 115554299.114 6                  21989240.742
 118358691.741 7  92227572.92644  22522907.391                    22522916.285
 111583728.913 8  86948387.74746  21233680.234                    21233689.105
 11  8 20 17 29 30.0000000  0  9G03G07G28G01G23G19G08G11G13
 123716324.382 7  96402355.21543  23542440.906                    23542451.824
 108776836.162 8  84761266.957 7  20699561.609                    20699570.258
 120730789.309 7  94076000.82245  22974309.234                    22974317.813
 126733566.793 5  98753585.279 6  24116613.391                    24116630.168
 120935745.111 7  94235656.41844  23013313.164                    23013322.234
 113490636.295 7  88434283.78446  21596550.852                    21596558.457
 115483460.076 7                  21975760.531
 118293821.146 7  92177024.47244  22510562.547                    22510571.289
 111665050.537 8  87011755.20445  21249155.477                    21249164.207
 11  8 20 17 30  0.0000000  0  9G03G07G28G01G23G19G08G11G13
 123822616.695 7  96485180.33843  23562667.641                    23562679.121
 108740884.050 8  84733252.343 7  20692720.430                    20692728.301
 120691056.227 7  94045040.04144  22966748.625                    22966757.082
 126656564.505 5  98693583.529 5  24101959.727                    24101976.566
 121046056.957 7  94321613.59544  23034305.063                    23034312.777
 113553334.397 7  88483139.42745  21608481.594                    21608489.387
 115412680.945 6  89931942.02452  21962291.594                    21962300.316
 118229234.072 7  92126696.93244  22498272.000                    22498281.211
 111746789.781 7  87075448.05746  21264709.875                    21264718.957
 11  8 20 17 30 30.0000000  0  9G03G07G28G01G23G19G08G11G13
 123929077.539 6  96568136.72943  23582926.328                    23582937.871
 108705184.008 8  84705434.137 7  20685927.031                    20685935.176
 120651494.617 7  94014212.88344  22959219.375                    22959228.664
 126579555.854 5  98633576.800 5  24087306.648
 121156521.320 7  94407689.60444  23055325.570                    23055333.934
 113616515.520 8  88532371.45246  21620504.570                    21620512.344
 115341963.955 7  89876837.92543  21948835.242                    21948844.152
 118164933.274 7  92076592.46544  22486036.180                    22486045.258
 111828944.034 8  87139464.31546  21280343.367                    21280352.672
 11  8 20 17 31  0.0000000  0  8G03G07G28G23G19G08G11G13
 124035704.367 6  96651222.51443  23603216.734                    23603228.047
 108669737.816 8  84677813.743 7  20679181.953                    20679189.695
 120612103.288 7  93983518.34944  22951723.773                    22951733.184
 121267135.156 7  94493882.06744  23076374.969                    23076383.461
 113680177.147 7  88581977.88945  21632618.883                    21632626.578
 115271310.362 7  89821783.27943  21935390.102                    21935399.473
 118100921.598 6  92026713.28844  22473854.641                    22473864.438
 111911510.609 8  87203801.86145  21296055.461                    21296064.641
 11  8 20 17 31 30.0000000  0  8G03G07G28G23G19G08G11G13
 124142494.352 6  96734435.38043  23623537.570                    23623549.438
 108634547.503 8  84650392.713 7  20672485.297                    20672493.332
 120572881.514 7  93952955.97944  22944259.992                    22944269.621
 121377895.836 7  94580188.99544  23097452.469                    23097460.473
 113744316.986 7  88631956.93345  21644824.297                    21644832.051
 115200721.840 7  89766779.24243  21921957.820                    21921967.195
 118037202.040 6  91977061.73344  22461728.594                    22461738.410
 111994486.359 8  87268458.25045  21311844.930                    21311854.082
 11  8 20 17 32  0.0000000  0  9G03G07G28G01G23G19G08G11G13
 124249444.849 6  96817773.35543  23643889.930                    23643900.801
 108599615.232 8  84623172.775 7  20665837.594                    20665846.188
 120533828.706 7  93922525.19244  22936828.250                    22936837.445
 126348510.95815  98453513.60016  24043342.680
 121488800.622 7  94666608.19344  23118556.289                    23118565.852
 113808932.848 7  88682306.92746  21657120.188                    21657127.766
 115130200.331 7  89711827.39343  21908537.719                    21908546.633
 117973777.949 6  91927640.43044  22449659.945                    22449669.023
 112077869.384 8  87333431.98145  21327712.656                    21327720.137
 11  8 20 17 32 30.0000000  0  9G03G07G28G01G23G19G08G11G13
 124356553.072 6  96901234.17342  23664271.602                    23664282.848
 108564942.448 8  84596155.028 8  20659239.164                    20659247.645
 120494943.566 6  93892225.10844  22929428.648                    22929438.027
 126271499.24015  98393504.72916  24028686.703
 121599846.379 7  94753137.25044  23139688.359                    23139697.078
 113874021.736 8  88733025.52845  21669506.656                    21669513.992
 115059747.322 7  89656928.93244  21895130.852                    21895139.836
 117910651.960 7  91878451.40544  22437647.328                    22437656.777
 112161656.511 7  87398720.60045  21343656.258                    21343665.426
 11  8 20 17 33  0.0000000  0  9G03G07G28G01G23G19G08G11G13
 124463815.275 6  96984815.04142  23684683.508                    23684694.234
 108530530.224 8  84569340.313 7  20652691.492                    20652699.684
 120456224.497 7  93862054.39544  22922060.867                    22922069.680
 126194498.52315  98333504.18316  24014034.953
 121711029.215 7  94839773.07944  23160845.469                    23160854.789
 113939581.009 8  88784110.63246  21681982.711                    21681989.695
 114989364.017 7  89602084.87644  21881737.719                    21881746.293
 117847826.332 6  91829496.38644  22425692.094                    22425701.582
 112245844.128 7  87464321.29045  21359676.859                    21359685.602
 11  8 20 17 33 30.0000000  0 10G03G07G28G01G24G23G19G08G11G13
 124571230.564 6  97068515.17142  23705124.250                    23705134.953
 108496383.049 8  84542732.133 7  20646193.211                    20646201.320
 120417672.887 7  93832014.19944  22914724.469                    22914733.441
 126117509.462 5  98273512.715 6  23999385.930
 125372856.32815                  23857668.609
 121822348.299 7  94926515.10544  23182028.375                    23182038.129
 114005610.065 8  88835561.81846  21694547.531                    21694554.523
 114919054.305 7  89547298.08743  21868357.734                    21868367.109
 117785305.970 7  91780779.22044  22413795.516                    22413803.750
 112330431.901 7  87530233.79045  21375772.969                    21375782.441
 11  8 20 17 34  0.0000000  0 10G03G07G28G01G24G23G19G08G11G13
 124678795.629 6  97152331.96043  23725592.906                    23725603.703
 108462501.608 8  84516331.009 7  20639745.844                    20639753.910
 120379286.643 7  93802102.88045  22907420.125                    22907429.180
 126040533.80314  98213531.88115  23984734.125
 125300261.891 5                  23843854.438
 121933799.561 7  95013360.13344  23203238.055                    23203245.988
 114072105.281 8  88887376.25446  21707200.992                    21707208.555
 114848818.915 7  89492569.22744  21854992.336                    21855001.316
 117723092.685 7  91732301.40144  22401956.563                    22401965.000
 112415415.869 8  87596455.02445  21391945.055                    21391954.262
 11  8 20 17 34 30.0000000  0 10G03G07G28G01G24G23G19G08G11G13
 124786506.906 6  97236262.71043  23746090.102                    23746100.957
 108428886.864 8  84490137.705 8  20633349.117                    20633357.750
 120341064.381 7  93772319.31745  22900146.266                    22900155.742
 125963574.36315  98153563.53815  23970094.492
 125227699.511 5                  23830046.602
 122045379.843 7  95100305.68143  23224470.359                    23224479.016
 114139063.161 8  88939551.21746  21719942.492                    21719950.078
 114778659.092 7  89437899.24744  21841641.406                    21841650.066
 117661188.835 7  91684064.65844  22390176.086                    22390185.074
 112500792.633 8  87662982.34545  21408192.117                    21408200.934
 11  8 20 17 35  0.0000000  0  9G03G07G28G24G23G19G08G11G13
 124894362.395 6  97320305.86043  23766614.391                    23766625.230
 108395541.568 8  84464154.361 8  20627003.922                    20627012.328
 120303005.372 7  93742662.98345  22892904.148                    22892913.258
 125155172.676 5                  23816246.023
 122157086.228 7  95187349.49644  23245728.391                    23245737.227
 114206482.092 8  88992085.40146  21732771.711                    21732780.008
 114708576.954 7  89383289.81044  21828305.227                    21828314.262
 117599597.744 7  91636071.66344  22378456.063                    22378464.652
 112586559.940 8  87729813.95445  21424512.781                    21424521.930
 11  8 20 17 35 30.0000000  0  9G03G07G28G24G23G19G08G11G13
 125002359.068 6  97404459.00543  23787165.578                    23787176.277
 108362467.477 8  84438382.334 7  20620710.031                    20620717.758
 120265108.989 7  93713133.36045  22885692.641                    22885702.051
 125082684.406 5                  23802450.906
 122268915.949 7  95274489.41344  23267009.023                    23267017.008
 114274359.686 8  89044977.01345  21745688.383                    21745695.547
 114638574.210 7  89328742.23144  21814984.016                    21814993.797
 117538322.522 7  91588324.73244  22366795.055                    22366804.848
 112672715.036 7  87796947.75045  21440908.078                    21440916.875
 11  8 20 17 36  0.0000000  0  9G03G07G28G24G23G19G08G11G13
 125110494.384 6  97488720.24242  23807743.570                    23807753.156
 108329666.051 8  84412822.799 7  20614467.883                    20614475.980
 120227374.025 7  93683729.51944  22878511.578                    22878521.090
 125010237.365 5                  23788665.516
 122380865.838 7  95361722.94344  23288311.336                    23288319.621
 114342693.078 8  89098223.79945  21758692.039                    21758698.602
 114568652.376 7  89274257.70144  21801678.578                    21801687.617
 117477365.773 7  91540825.97844  22355195.516                    22355205.512
 112759254.920 8  87864381.35745  21457376.086                    21457384.031
 11  8 20 17 36 30.0000000  0  9G03G07G28G24G23G19G08G11G13
 125218765.675 6  97573087.36242  23828347.063                    23828357.016
 108297139.475 8  84387477.418 7  20608278.016                    20608286.223
 120189799.742 7  93654450.88844  22871361.523                    22871370.820
 124937834.665 5                  23774886.516
 122492933.096 7  95449047.88644  23309636.984                    23309646.164
 114411479.725 8  89151823.75345  21771781.836                    21771788.293
 114498813.536 7  89219837.82844  21788388.758                    21788397.457
 117416730.298 7  91493577.57144  22343657.227                    22343666.523
 112846177.054 7  87932112.81845  21473916.930                    21473925.434
 11  8 20 17 37  0.0000000  0  9G03G07G28G24G23G19G08G11G13
 125327170.293 6  97657558.40743  23848975.242                    23848985.891
 108264890.146 8  84362348.072 7  20602141.594                    20602149.828
 120152385.617 7  93625297.04444  22864241.633                    22864250.887
 124865479.692 5                  23761118.250
 122605115.187 7  95536462.36044  23330984.742                    23330994.863
 114480717.431 8  89205775.17745  21784957.625                    21784963.996
 114429060.036 7  89165484.46544  21775114.977                    21775123.336
 117356419.318 7  91446582.00044  22332180.133                    22332189.855
 112933478.835 8  88000140.13745  21490529.984                    21490538.973
 11  8 20 17 37 30.0000000  0  9G03G07G28G24G23G19G08G11G13
 125435705.654 6  97742131.32442  23869628.180                    23869639.641
 108232919.758 8  84337436.103 7  20596057.742                    20596065.965
 120115130.557 7  93596267.14644  22857152.609                    22857161.238
 124793175.272 6  97241524.26252  23747357.984                    23747373.934
 122717408.678 7  95623963.63244  23352354.563                    23352364.176
 114550403.349 8  89260075.86745  21798218.391                    21798225.176
 114359393.282 7  89111198.71644  21761857.492                    21761866.977
 117296435.603 7  91399841.45444  22320766.281                    22320775.266
 113021157.293 7  88068460.98545  21507214.117                    21507223.926
 11  8 20 17 38  0.0000000  0 10G03G07G28G01G24G23G19G08G11G13
 125544369.097 6  97826804.02842  23890306.352                    23890318.074
 108201229.919 8  84312742.727 7  20590027.500                    20590035.340
 120078033.423 7  93567360.32844  22850093.156                    22850101.977
 125425561.93514  97734350.38014  23867708.609
 124720924.190 5  97185224.74252  23733608.734                    23733625.094
 122829810.760 7  95711549.50444  23373744.219                    23373753.516
 114620535.052 8  89314723.91645  21811563.977                    21811571.234
 114289814.975 7  89056981.85844  21748617.602                    21748626.172
 117236781.939 7  91353358.09245  22309414.172                    22309424.172
 113109209.393 7  88137072.96345  21523970.531                    21523979.914
 11  8 20 17 38 30.0000000  0 10G03G07G28G01G24G23G19G08G11G13
 125653157.648 6  97911574.22443  23911008.188                    23911020.313
 108169822.548 7  84288269.457 7  20584050.477                    20584059.262
 120041093.411 7  93538575.92644  22843064.203                    22843072.379
 125348837.492 5  97674565.268 4  23853109.547
 124648729.432 5  97128969.07952  23719870.273                    23719887.246
 122942318.457 7  95799217.70843  23395152.648                    23395162.500
 114691109.576 8  89369717.02045  21824993.430                    21825000.934
 114220327.374 7  89002835.69544  21735394.039                    21735403.555
 117177461.439 7  91307134.33345  22298125.578                    22298134.820
 113197632.414 7  88205973.98045  21540796.781                    21540805.820
 11  8 20 17 39  0.0000000  0 10G03G07G28G01G24G23G19G08G11G13
 125762069.075 6  97996440.19042  23931734.023                    23931745.461
 108138699.676 8  84264017.878 7  20578128.492                    20578136.777
 120004309.442 7  93509913.13844  22836063.875                    22836072.891
 125272155.914 6  97614813.377 5  23838518.281
 124576594.014 5                  23706143.531
 123054928.974 7  95886966.00843  23416582.055                    23416591.461
 114762124.656 8  89425053.41545  21838507.617                    21838514.977
 114150932.152 7  88948761.53444  21722188.852                    21722198.055
 117118476.683 7  91261172.21545  22286901.195                    22286910.340
 113286423.283 8  88275161.62145  21557693.547                    21557702.098
 11  8 20 17 39 30.0000000  0 10G03G07G28G01G24G23G19G08G11G13
 125871100.546 6  98081399.73243  23952481.430                    23952492.945
 108107863.725 8  84239989.859 7  20572260.203                    20572268.973
 119967681.100 7  93481371.60344  22829093.969                    22829102.887
 125195519.926 6  97555097.066 5  23823933.766
 124504521.094 5                  23692428.922
 123167639.586 7  95974792.30043  23438030.344                    23438039.238
 114833577.792 7  89480731.13245  21852104.750                    21852111.805
 114081631.491 7  88894761.06245  21709001.391                    21709011.113
 117059830.683 7  91215474.05145  22275741.047                    22275750.410
 113375579.959 8  88344634.26645  21574659.344                    21574667.359
 11  8 20 17 40  0.0000000  0 10G03G07G28G01G24G23G19G08G11G13
 125980249.205 6  98166450.51243  23973252.555                    23973263.531
 108077315.984 8  84216186.429 7  20566447.609                    20566455.652
 119931207.094 7  93452950.30545  22822153.047                    22822162.020
 125118932.612 5  97495418.701 5  23809360.789
 124432513.562 6                  23678726.789
 123280447.108 7  96062694.10743  23459496.789                    23459506.070
 114905466.061 8  89536747.93145  21865784.367                    21865791.676
 114012427.054 7  88840835.55945  21695831.938                    21695841.668
 117001526.247 7  91170042.04644  22264645.773                    22264655.398
 113465098.993 8  88414389.30045  21591694.234                    21591702.824
 11  8 20 17 40 30.0000000  0 10G03G07G28G01G24G23G19G08G11G13
 126089512.815 6  98251590.88042  23994045.188                    23994055.637
 108047058.497 8  84192609.163 7  20560689.523                    20560697.488
 119894886.473 7  93424648.54244  22815241.117                    22815250.352
 125042396.571 5  97435780.268 5  23794795.438
 124360574.200 6                  23665037.914
 123393348.374 7  96150668.97743  23480981.094                    23480990.258
 114977787.147 8  89593101.99645  21879546.859                    21879554.852
 113943320.834 7  88786986.58845  21682681.617                    21682691.145
 116943566.033 7  91124878.29545  22253616.945                    22253625.867
 113554977.556 8  88484424.48545  21608797.953                    21608806.668
 11  8 20 17 41  0.0000000  0 10G03G07G28G01G24G23G19G08G11G13
 126198888.434 6  98336818.52642  24014857.711                    24014868.816
 108017092.931 8  84169259.366 7  20554987.031                    20554995.395
 119858718.095 7  93396465.40145  22808358.977                    22808367.738
 124965915.115 5  97376184.400 5  23780241.445
 124288705.984 5                  23651359.930
 123506340.798 7  96238714.86944  23502483.359                    23502493.320
 115050538.135 8  89649791.02845  21893390.875                    21893398.457
 113874314.640 7  88733215.62645  21669549.859                    21669559.855
 116885952.972 7  91079985.03544  22242653.008                    22242662.625
 113645212.740 8  88554737.57945  21625968.477                    21625978.488
 11  8 20 17 41 30.0000000  0 10G03G07G28G01G24G23G19G08G11G13
 126308373.224 6  98422131.20842  24035692.047                    24035702.609
 107987421.004 8  84146138.360 7  20549340.750                    20549348.754
 119822701.076 7  93368400.21345  22801505.016                    22801513.949
 124889491.25115  97316633.02615  23765695.797
 124216911.877 6                  23637699.148
 123619421.144 7  96326829.25444  23524001.938                    23524012.641
 115123716.075 8  89706812.74845  21907316.172                    21907323.891
 113805410.253 7  88679523.91945  21656438.195                    21656447.297
 116828689.344 7  91035364.05645  22231756.594                    22231766.363
 113735801.174 8  88625325.93045  21643207.234                    21643216.223
 11  8 20 17 42  0.0000000  0  9G03G07G28G24G23G19G08G11G13
 126417964.772 6  98507527.19052  24056546.859                    24056557.508
 107958045.248 8  84123248.184 7  20543751.078                    20543758.758
 119786834.867 7  93340452.53245  22794679.703                    22794688.605
 124145195.289 5                  23624053.094
 123732586.753 7  96415010.11044  23545537.477                    23545546.875
 115197318.924 8  89764165.55945  21921322.406                    21921329.270
 113736609.631 7  88625913.11045  21643345.484                    21643354.848
 116771778.670 7  90991018.11245  22220926.797                    22220935.961
 113826740.533 8  88696187.70245  21660512.477                    21660521.105
 11  8 20 17 42 30.0000000  0  9G03G07G28G01G23G19G08G11G13
 126527660.736 6  98593004.37542  24077421.758                    24077432.738
 107928967.595 8  84100590.265 7  20538217.336                    20538225.305
 119751118.462 7  93312621.58545  22787883.406                    22787891.855
 124736825.54915  97197655.93515  23736649.078
 123845834.871 7  96503255.21644  23567087.125                    23567097.039
 115271343.899 8  89821847.37545  21935409.195                    21935416.883
 113667915.058 7  88572384.87045  21630273.844                    21630283.086
 116715223.778 7  90946949.40545  22210164.273                    22210174.387
 113918027.936 7  88767320.69745  21677883.695                    21677892.531
 11  8 20 17 43  0.0000000  0 10G03G07G28G01G24G23G19G08G11G13
 126637458.700 6                  24098315.844
 107900190.189 8  84078166.316 7  20532741.172                    20532749.453
 119715551.050 7  93284906.74045  22781115.094                    22781123.914
 124660600.00014  97138257.18115  23722140.047
 124002008.85215                  23596804.313
 123959162.684 7  96591562.41743  23588653.180                    23588662.434
 115345788.324 8  89879855.97945  21949575.281                    21949583.199
 113599328.739 8  88518941.00945  21617222.242                    21617231.160
 116659027.517 7  90903160.14045  22199470.961                    22199480.645
 114009660.528 7  88838722.65845  21695321.047                    21695329.297
 11  8 20 17 43 30.0000000  0 10G03G07G28G01G24G23G19G08G11G13
 126747355.888 6                  24119228.094
 107871714.627 8  84055977.553 7  20527322.500                    20527331.082
 119680131.665 7  93257307.23544  22774374.578                    22774383.293
 124584436.17115  97078908.74616  23707647.570
 123930542.907 4                  23583207.805
 124072567.288 6  96679929.46643  23610232.563                    23610243.281
 115420649.538 7  89938189.34045  21963820.391                    21963828.211
 113530852.053 7  88465582.56745  21604191.359                    21604200.242
 116603192.390 7  90859652.29045  22188845.133                    22188854.988
 114101635.718 7  88910391.57845  21712822.961                    21712831.871
 11  8 20 17 44  0.0000000  0 10G03G07G28G01G24G23G19G08G11G13
 126857349.494 5                  24140159.688
 107843542.168 8  84034024.984 7  20521961.695                    20521969.621
 119644859.125 7  93229822.15044  22767662.719                    22767671.227
 124508344.098 5  97019616.242 5  23693167.359
 123859162.23015                  23569627.891
 124186045.231 7  96768353.71143  23631827.641                    23631836.707
 115495924.785 8  89996845.34945  21978145.320                    21978152.293
 113462487.015 7  88412311.15245  21591182.102                    21591190.949
 116547720.612 7  90816427.55045  22178289.586                    22178298.793
 114193949.766 7  88982324.54445  21730389.938                    21730399.719
 11  8 20 17 44 30.0000000  0  9G03G07G28G01G23G19G08G11G13
 126967437.808 6                  24161109.242
 107815675.813 8  84012310.957 7  20516659.328                    20516666.734
 119609732.877 7  93202451.08545  22760978.078                    22760986.832
 124432328.047 5  96960382.989 5  23678700.883
 124299594.212 6  96856833.27143  23653435.695                    23653444.477
 115571611.685 8  90055822.12145  21992548.133                    21992555.902
 113394236.241 8  88359128.75245  21578194.094                    21578203.758
 116492616.263 7  90773489.16245  22167803.453                    22167812.492
 114286600.668 7  89054519.99745  21748020.898                    21748030.383
 11  8 20 17 45  0.0000000  0  8G07G28G01G23G19G08G11G13
 107788117.336 8  83990836.803 7  20511414.891                    20511422.613
 119574752.033 7  93175193.29745  22754322.188                    22754330.602
 124356390.940 5  96901211.227 5  23664251.555
 124413211.735 6  96945366.31243  23675056.680                    23675065.504
 115647707.579 7  90115117.60545  22007028.461                    22007036.289
 113326101.583 8  88306036.82145  21565228.867                    21565238.418
 116437881.550 7  90730838.78845  22157387.680                    22157396.840
 114379585.090 7  89126975.34345  21765714.992                    21765725.422
 11  8 20 17 45 30.0000000  0  8G07G28G01G23G19G08G11G13
 107760867.822 8  83969603.394 7  20506229.281                    20506237.086
 119539915.263 7  93148047.78245  22747692.313                    22747701.512
 124280535.179 5  96842102.889 5  23649816.070
 124526894.053 7  97033949.76243  23696689.438                    23696699.113
 115724209.221 7  90174729.25145  22021586.359                    22021594.434
 113258084.500 8  88253036.52245  21552285.711                    21552294.648
 116383519.012 7  90688478.40045  22147043.164                    22147052.266
 114472899.988 7  89199688.18645  21783472.484                    21783482.801
 11  8 20 17 46  0.0000000  0  8G07G28G01G23G19G08G11G13
 107733928.974 8  83948612.079 7  20501102.758                    20501111.016
 119505221.192 7  93121013.44745  22741090.391                    22741099.387
 124204763.425 5  96783060.109 5  23635397.219
 124640638.532 7  97122581.65743  23718334.719                    23718345.055
 115801113.627 8  90234654.74445  22036221.117                    22036228.238
 113190186.949 8  88200129.34445  21539365.070                    21539373.887
 116329530.861 7  90646409.72244  22136769.750                    22136778.750
 114566541.998 7  89272655.94245  21801292.195                    21801301.422
 11  8 20 17 46 30.0000000  0  8G07G28G01G23G19G08G11G13
 107707303.733 8  83927865.137 8  20496036.359                    20496044.410
 119470669.705 7  93094090.21844  22734515.305                    22734524.262
 124129079.476 5  96724085.660 5  23620994.352                    23621007.500
 124754442.321 7  97211259.75144  23739991.266                    23740000.852
 115878418.860 8  90294892.55845  22050931.672                    22050939.441
 113122411.563 7  88147317.34445  21526467.820                    21526477.082
 116275920.428 7  90604635.43245  22126568.125                    22126576.574
 114660508.804 7  89345876.76345  21819173.352                    21819182.797
 11  8 20 17 47  0.0000000  0  8G07G28G01G23G19G08G11G13
 107680993.796 8  83907363.894 8  20491030.039                    20491038.055
 119436259.677 7  93067277.23245  22727967.563                    22727976.691
 124053486.125 5  96665181.801 6  23606610.047                    23606623.941
 124868302.883 7  97299982.05444  23761657.875                    23761667.254
 115956122.079 8  90355440.48845  22065718.000                    22065725.863
 113054760.369 7  88094602.13845  21513593.672                    21513603.438
 116222690.550 7  90563157.66245  22116438.164                    22116447.746
 114754797.483 7  89419348.39245  21837116.563                    21837125.055
 11  8 20 17 47 30.0000000  0  8G07G28G01G23G19G08G11G13
 107655002.191 8  83887110.702 8  20486084.070                    20486091.805
 119401990.977 7  93040574.34345  22721446.359                    22721454.883
 123977987.161 5  96606351.499 5  23592243.016                    23592257.996
 124982217.799 6  97388746.75744  23783335.047                    23783344.258
 116034221.244 8  90416296.95545  22080579.922                    22080587.574
 112987235.854 7  88041985.66245  21500744.305                    21500754.043
 116169844.987 7  90521979.31445  22106381.578                    22106391.375
 114849405.483 7  89493068.85245  21855119.320                    21855129.102
 11  8 20 17 48  0.0000000  0  8G07G28G01G23G19G08G11G13
 107629328.435 8  83867105.176 8  20481198.461                    20481206.566
 119367860.993 7  93013979.57545  22714951.680                    22714960.531
 123902584.634 5  96547596.373 5  23577893.797                    23577908.949
 125096182.791 6  97477550.42843  23805022.234                    23805031.418
 116112712.234 7  90477458.74345  22095515.984                    22095524.117
 112919839.063 7  87989468.69845  21487919.031                    21487927.836
 116117384.496 7  90481101.02145  22096399.047                    22096408.629
 114944328.804 7  89567035.01245  21873182.477                    21873191.762
 11  8 20 17 48 30.0000000  0  9G07G28G01G24G23G19G08G11G13
 107603975.021 8  83847349.274 7  20476373.672                    20476381.410
 119333869.190 7  92987492.48544  22708483.219                    22708492.453
 123827280.897 5  96488918.261 6  23563564.125                    23563580.465
 123221393.01915                  23448241.914
 125210195.216 6  97566391.08843  23826717.797                    23826728.133
 116191592.297 7  90538923.67845  22110526.227                    22110534.172
 112852572.181 8  87937052.97045  21475118.680                    21475127.879
 116065311.556 7  90440524.72645  22086490.188                    22086499.500
 115039564.319 7  89641244.41445  21891305.867                    21891314.398
 11  8 20 17 49  0.0000000  0  9G07G28G01G24G23G19G08G11G13
 107578944.678 8  83827845.109 8  20471610.297                    20471618.586
 119300015.564 8  92961113.08545  22702041.406                    22702050.012
 123752080.426 5  96430320.567 5  23549252.984                    23549271.004
 123151080.42215                  23434861.805
 125324253.221 6  97655267.23243  23848422.109                    23848432.699
 116270859.940 7  90600690.64645  22125611.039                    22125618.168
 112785438.228 7  87884740.82545  21462343.563                    21462352.305
 116013630.358 7  90400253.70245  22076655.914                    22076664.773
 115135110.312 7  89715695.77145  21909487.398                    21909496.328
 11  8 20 17 49 30.0000000  0 10G17G07G28G01G24G23G19G08G11G13
 129481725.40216 100894872.93515  24639548.469
 107554239.284 8  83808594.163 7  20466908.797                    20466917.070
 119266299.033 7  92934840.49444  22695624.906                    22695633.176
 123676986.31714  96371805.69916  23534960.188                    23534981.277
 123080890.90114                  23421504.563
 125438354.311 6  97744176.97543  23870135.906                    23870146.527
 116350511.749 7  90662756.95545  22140768.313                    22140775.668
 112718438.947 7  87832533.61645  21449594.039                    21449602.855
 115962343.318 7  90360289.80245  22066896.078                    22066905.160
 115230963.141 7  89790386.24745  21927727.664                    21927736.586
 11  8 20 17 50  0.0000000  0 10G17G07G28G01G24G23G19G08G11G13
 129377148.462 6 100813384.540 6  24619649.383                    24619662.090
 107529860.817 8  83789597.946 7  20462269.953                    20462278.078
 119232718.612 7  92908673.95344  22689234.914                    22689243.414
 123602001.32315  96313375.88416  23520696.063
 123010828.24615                  23408173.172
 125552495.134 7  97833117.71343  23891856.383                    23891866.914
 116430545.329 7  90725120.75045  22155997.852                    22156005.336
 112651576.656 8  87780433.14045  21436870.602                    21436879.859
 115911453.123 7  90320635.14745  22057211.953                    22057220.535
 115327120.371 7  89865313.89945  21946025.922                    21946035.160
 11  8 20 17 50 30.0000000  0 10G17G07G28G01G24G23G19G08G11G13
 129272672.454 6 100731974.736 6  24599767.805                    24599780.824
 107505811.356 8  83770858.106 7  20457693.797                    20457701.785
 119199273.345 7  92882612.71944  22682870.398                    22682878.387
 123527128.69015  96255033.72915  23506448.180
 122940884.05615                  23394865.977
 125666673.076 7  97922087.38944  23913584.766                    23913595.133
 116510958.143 7  90787780.04945  22171300.477                    22171307.773
 112584853.728 7  87728441.25045  21424173.766                    21424182.613
 115860962.721 7  90281292.02344  22047602.891                    22047612.188
 115423578.809 7  89940476.25045  21964381.258                    21964390.676
 11  8 20 17 51  0.0000000  0 10G17G07G28G01G24G23G19G08G11G13
 129168298.472 6 100650644.401 6  24579905.547                    24579919.098
 107482091.541 8  83752375.132 8  20453179.773                    20453188.484
 119165961.590 7  92856655.60844  22676531.633                    22676539.633
 123452370.363 5  96196780.550 5  23492222.625
 122871083.93215                  23381584.188
 125780884.246 7  98011082.92144  23935317.023                    23935328.406
 116591746.233 7  90850731.76445  22186673.414                    22186681.043
 112518271.139 8  87676558.72045  21411503.117                    21411512.418
 115810873.606 7  90242261.56945  22038072.039                    22038081.156
 115520334.571 7  90015870.28745  21982793.297                    21982802.422
 11  8 20 17 51 30.0000000  0 10G17G07G28G01G24G23G19G08G11G13
 129064029.192 6 100569395.764 6  24560062.922                    24560076.613
 107458703.598 8  83734150.738 7  20448729.773                    20448737.648
 119132782.549 7  92830801.82644  22670217.766                    22670225.898
 123377730.04915  96138619.39416  23478016.023
 122801419.17716                  23368326.836
 125895126.037 7  98100102.31943  23957058.039                    23957067.391
 116672907.385 7  90913974.19845  22202118.219                    22202125.727
 112451831.273 8  87624787.41345  21398860.070                    21398869.527
 115761188.537 7  90203545.97145  22028616.719                    22028625.773
 115617384.943 7  90091493.86445  22001260.648                    22001270.613
 11  8 20 17 52  0.0000000  0 10G17G07G28G01G24G23G19G08G11G13
 128959866.465 6 100488230.099 6  24540242.172                    24540254.441
 107435649.408 8  83716186.426 7  20444342.445                    20444350.473
 119099735.419 7  92805050.83244  22663929.016                    22663937.805
 123303210.784 5  96080552.427 5  23463837.148
 122731892.740 5                  23355095.563
 126009396.097 7  98189143.70043  23978802.195                    23978812.039
 116754438.622 7  90977505.00345  22217632.906                    22217640.535
 112385536.356 7  87573129.06045  21386244.406                    21386253.273
 115711910.180 7  90165147.26545  22019240.008                    22019248.883
 115714727.028 7  90167344.77044  22019784.828                    22019794.195
 11  8 20 17 52 30.0000000  0 10G17G07G28G01G24G23G19G08G11G13
 128855812.838 6 100407149.499 6  24520441.594                    24520452.848
 107412931.127 8  83698483.857 7  20440019.344                    20440027.332
 119066819.285 7  92779401.89145  22657664.922                    22657673.016
 123228815.415 5  96022582.158 5  23449679.641
 122662508.00315                  23341892.461
 126123691.549 6  98278204.85943  24000552.336                    24000562.426
 116836337.358 7  91041322.14045  22233217.672                    22233225.301
 112319388.797 8  87521585.51745  21373657.219                    21373665.891
 115663041.544 7  90127067.83745  22009940.875                    22009949.566
 115812358.031 7  90243420.79345  22038363.578                    22038373.121
 11  8 20 17 53  0.0000000  0 10G17G07G28G01G24G23G19G08G11G13
 128751869.872 6 100326155.171 6  24500661.734                    24500673.391
 107390550.156 8  83681044.143 7  20435760.578                    20435768.469
 119034033.055 7  92753854.16945  22651426.313                    22651435.008
 123154547.05715  95964710.76215  23435546.828
 122593267.918 5                  23328715.430
 126238009.232 6  98367283.32943  24022307.086                    24022316.004
 116918600.706 7  91105423.42245  22248872.070                    22248879.473
 112253390.382 8  87470158.19545  21361098.289                    21361107.094
 115614584.753 7  90089309.36245  22000719.227                    22000728.488
 115910274.528 7  90319719.27945  22056996.523                    22057006.332
 11  8 20 17 53 30.0000000  0 10G17G07G28G01G24G23G19G08G11G13
 128648040.297 6 100245249.118 6  24480903.172                    24480915.793
 107368509.043 8  83663869.260 8  20431566.055                    20431573.645
 119001376.115 7  92728407.22245  22645211.914                    22645220.270
 123080409.41414  95906930.26515  23421437.195
 122524176.15115                  23315568.094
 126352347.122 6  98456377.51643  24044063.945                    24044073.465
 117001226.112 7  91169806.81745  22264594.422                    22264602.367
 112187543.990 8  87418849.33946  21348567.961                    21348577.301
 115566542.668 7  90051873.99645  21991577.477                    21991586.887
 116008474.150 7  90396238.38445  22075683.555                    22075693.609
 11  8 20 17 54  0.0000000  0 10G17G07G28G01G24G23G19G08G11G13
 128544326.124 6 100164432.908 6  24461168.086                    24461179.648
 107346809.366 8  83646960.410 7  20427436.664                    20427444.711
 118968847.427 7  92703060.19145  22639022.492                    22639030.156
 123006404.64915  95849264.33215  23407354.141
 122455234.955 5                  23302450.383
 126466701.744 6  98545484.79043  24065825.430                    24065835.266
 117084210.666 7  91234470.07745  22280386.469                    22280394.035
 112121851.255 8  87367660.22146  21336066.867                    21336076.129
 115518917.703 7  90014763.67145  21982513.891                    21982523.230
 116106953.028 7  90472975.07145  22094424.109                    22094433.551
 11  8 20 17 54 30.0000000  0  9G17G07G28G01G23G19G08G11G13
 128440729.301 6 100083708.274 5  24441454.094                    24441465.766
 107325453.000 8  83630319.066 8  20423372.664                    20423380.824
 118936445.922 7  92677812.27345  22632856.031                    22632864.262
 122932534.63815  95791713.90614  23393297.938
 126581070.549 7  98634603.09243  24087589.867                    24087599.203
 117167551.528 7  91299411.01345  22296246.023                    22296253.055
 112056314.668 8  87316592.76545  21323595.148                    21323604.945
 115471712.646 7  89977980.54845  21973531.516                    21973540.313
 116205708.765 7  90549927.49945  22113216.234                    22113225.816
 11  8 20 17 55  0.0000000  0 10G17G07G28G01G24G23G19G08G11G13
 128337252.003 6 100003076.661 6  24421762.453                    24421774.457
 107304441.834 8  83613946.733 8  20419374.109                    20419382.227
 118904170.803 7  92652662.82745  22626714.227                    22626722.402
 122858805.74815  95734262.88315  23379268.453
 122317816.10914                  23276298.281
 126695450.617 7  98723730.20043  24109355.688                    24109365.617
 117251245.952 7  91364627.37845  22312172.023                    22312179.875
 111990936.390 8  87265648.66446  21311154.711                    21311163.590
 115424929.697 7  89941526.31745  21964629.016                    21964638.273
 116304738.383 7  90627093.35145  22132061.164                    22132070.316
 11  8 20 17 55 30.0000000  0 10G17G07G28G01G24G23G19G08G11G13
 128233895.851 6  99922539.518 6  24402095.023                    24402106.215
 107283777.434 8  83597844.595 8  20415442.180                    20415450.141
 118872020.895 7  92627610.97444  22620595.914                    22620604.301
 122785219.48815  95676922.96215  23365267.734
 122249346.642 5                  23263268.820
 126809839.425 7  98812864.14043  24131123.445                    24131133.156
 117335290.975 7  91430116.98545  22328165.234                    22328173.086
 111925718.456 7  87214829.50545  21298744.203                    21298753.105
 115378571.459 7  89905403.04445  21955807.016                    21955816.609
 116404038.209 7  90704469.75745  22150956.938                    22150966.500
 11  8 20 17 56  0.0000000  0 10G17G07G28G01G24G23G19G08G11G13
 128130663.643 6  99842098.965 6  24382449.969                    24382462.926
 107263462.032 8  83582014.416 8  20411576.094                    20411584.277
 118839995.630 7  92602656.25844  22614502.031                    22614510.082
 122711778.854 5  95619696.597 5  23351292.094
 122181040.579 5                  23250271.852
 126924234.366 6  98902002.80743  24152891.664                    24152902.039
 117419684.104 7  91495877.81945  22344225.172                    22344232.246
 111860663.369 8  87164137.25145  21286364.938                    21286374.066
 115332640.789 8  89869612.92545  21947067.016                    21947076.598
 116503606.094 7  90782055.03545  22169904.422                    22169913.785
 11  8 20 17 56 30.0000000  0 10G17G07G28G01G24G23G19G08G11G13
 128027557.688 7  99761756.809 6  24362829.477                    24362841.336
 107243497.621 8  83566457.722 8  20407776.859                    20407785.453
 118808094.442 7  92577798.24344  22608431.359                    22608439.141
 122638487.415 5  95562586.476 5  23337345.266
 122112901.337 5                  23237305.180
 127038632.824 6  98991144.23343  24174661.508                    24174671.910
 117504422.467 7  91561907.69045  22360349.797                    22360357.910
 111795773.594 8  87113573.81445  21274016.578                    21274025.641
 115287140.276 8  89834157.98745  21938408.617                    21938418.172
 116603438.875 7  90859846.73545  22188901.828                    22188911.469
 11  8 20 17 57  0.0000000  0 10G17G07G28G01G24G23G19G08G11G13
 127924579.251 7  99681513.976 6  24343233.023                    24343245.387
 107223885.293 8  83551175.376 8  20404044.578                    20404052.695
 118776315.393 7  92553035.38644  22602383.602                    22602391.961
 122565352.40115  95505597.23015  23323429.484
 122044931.397 5                  23224370.742
 127153031.484 6  99080285.79143  24196431.336                    24196440.949
 117589502.838 7  91628204.04745  22376540.336                    22376548.121
 111731050.680 7  87063140.39945  21261699.555                    21261709.109
 115242071.387 7  89799039.39945  21929832.070                    21929841.555
 116703532.571 7  90937841.74545  22207949.406                    22207959.355
 11  8 20 17 57 30.0000000  0 10G17G07G28G01G24G23G19G08G11G13
 127821730.377 6  99601372.050 6  24323661.586                    24323674.082
 107204626.851 8  83536168.798 7  20400380.469                    20400388.320
 118744657.517 7  92528366.96644  22596359.500                    22596368.348
 122492366.75615  95448725.33915  23309540.664
 121977134.106 5                  23211470.742
 127267427.164 6  99169425.01343  24218200.281                    24218210.191
 117674922.563 7  91694764.82545  22392795.305                    22392802.953
 111666496.933 7  87012838.80045  21249415.859                    21249424.699
 115197437.189 8  89764259.54045  21921338.500                    21921347.648
 116803884.283 7  91016037.80545  22227045.484                    22227055.359
 11  8 20 17 58  0.0000000  0 10G17G07G28G01G24G23G19G08G11G13
 127719013.412 7  99521332.990 6  24304115.570                    24304127.250
 107185724.649 8  83521439.807 8  20396783.141                    20396791.277
 118713120.623 7  92503792.79944  22590357.742                    22590366.395
 122419539.26715  95391976.69515  23295679.828
 121909512.473 5                  23198601.023
 127381817.757 6  99258560.25543  24239967.789                    24239978.113
 117760679.118 7  91761588.05845  22409114.578                    22409121.734
 111602114.881 8  86962670.98546  21237164.781                    21237173.320
 115153240.230 8  89729820.38745  21912927.883                    21912936.734
 116904491.829 7  91094433.22744  22246190.344                    22246200.582
 11  8 20 17 58 30.0000000  0 10G17G07G28G01G24G23G19G08G11G13
 127616430.376 7  99441398.243 6  24284594.102                    24284605.426
 107167180.516 8  83506989.820 8  20393254.453                    20393262.516
 118681703.375 7  92479311.85444  22584379.688                    22584388.102
 122346861.78115  95335351.44415  23281854.148
 121842069.697 5                  23185767.164
 127496200.659 6  99347689.54343  24261734.273                    24261745.410
 117846769.611 7  91828671.53345  22425496.906                    22425504.531
 111537906.722 8  86912638.66946  21224946.078                    21224955.289
 115109482.876 7  89695723.78445  21904601.172                    21904609.938
 117005351.697 7  91173025.22544  22265383.922                    22265392.938
 11  8 20 17 59  0.0000000  0 10G17G07G28G01G24G23G19G08G11G13
 127513983.270 7  99361569.454 6  24265099.289                    24265110.344
 107148995.993 8  83492820.068 8  20389794.016                    20389802.086
 118650404.893 7  92454923.46644  22578424.086                    22578432.391
 122274359.47014  95278856.20615  23268053.898
 121774809.32714                  23172964.891
 127610572.922 6  99436810.52843  24283498.180                    24283510.070
 117933190.795 7  91896012.65745  22441942.414                    22441949.930
 111473874.670 8  86862743.57246  21212761.164                    21212770.484
 115066167.248 8  89661971.37945  21896358.742                    21896367.469
 117106460.589 7  91251811.26744  22284623.563                    22284632.945
 11  8 20 17 59 30.0000000  0 10G17G07G28G01G24G23G19G08G11G13
 127411674.198 7  99281848.231 6  24245630.117                    24245641.563
 107131172.600 8  83478931.716 8  20386402.172                    20386411.078
 118619224.199 7  92430626.86745  22572490.656                    22572498.844
 122202018.29915  95222481.09815  23254288.375
 121707732.82615                  23160203.117
 127724931.654 6  99525920.98343  24305261.016                    24305271.902
 118019940.017 7  91963609.40745  22458449.750                    22458457.855
 111410020.883 8  86812987.39145  21200610.102                    21200619.332
 115023295.857 8  89628565.11945  21888200.797                    21888209.211
 117207815.878 7  91330789.31444  22303911.914                    22303920.199
 11  8 20 18  0  0.0000000  0 10G17G07G28G01G24G23G19G08G11G13
 127309505.052 6  99202236.054 6  24226186.273                    24226199.930
 107113712.329 8  83465326.300 8  20383079.750                    20383088.441
 118588160.156 7  92406421.12144  22566579.289                    22566587.977
 122129855.87214                  23240556.742
 121640844.718 5                  23147475.195
 127839274.307 6  99615018.98243  24327020.023                    24327030.688
 118107014.663 7  92031459.75845  22475020.641                    22475027.695
 111346347.514 7  86763371.79045  21188493.102                    21188502.758
 114980871.151 7  89595506.93045  21880127.367                    21880136.574
 117309414.019 7  91409956.63544  22323244.625                    22323254.516
 11  8 20 18  0 30.0000000  0 10G17G07G28G01G24G23G19G08G11G13
 127207478.206 6  99122734.734 6  24206771.945                    24206784.637
 107096617.021 8  83452005.282 7  20379826.875                    20379834.336
 118557212.077 7  92382305.76145  22560690.031                    22560698.641
 122057863.51515  95110155.45216  23226858.336
 121574148.077 6                  23134783.844
 127953597.908 5  99704101.96842  24348775.828                    24348786.285
 118194411.782 7  92099561.35545  22491651.234                    22491658.535
 111282857.202 8  86713898.81545  21176411.914                    21176420.383
 114938895.370 8  89562798.53945  21872139.828                    21872148.688
 117411252.098 7  91489310.87244  22342623.906                    22342634.617
 11  8 20 18  1  0.0000000  0 10G17G07G28G01G24G23G19G08G11G13
 127105595.637 6  99043345.828 6  24187384.758                    24187397.195
 107079888.527 8  83438970.066 8  20376643.430                    20376651.258
 118526378.878 7  92358279.91845  22554822.469                    22554830.797
 121986047.769 5  95054195.241 6  23213189.313                    23213203.449
 121507645.629 6                  23122128.930
 128067899.866 6  99793168.16843  24370526.102                    24370537.594
 118282128.482 7  92167911.96945  22508343.508                    22508350.207
 111219552.238 7  86664570.25345  21164365.266                    21164373.227
 114897370.996 8  89530441.92645  21864238.398                    21864246.551
 117513327.061 7  91568849.70944  22362048.523                    22362058.777
 11  8 20 18  1 30.0000000  0 10G17G07G28G01G24G23G19G08G11G13
 127003859.496 7  98964070.988 6  24168025.445                    24168036.273
 107063529.008 8  83426222.378 7  20373530.383                    20373537.832
 118495659.975 7  92334343.13245  22548976.945                    22548985.527
 121914411.400 5  94998374.717 6  23199557.555                    23199572.746
 121441340.565 6                  23109511.367
 128182177.760 6  99882215.58443  24392272.273                    24392283.887
 118370162.190 7  92236509.60245  22525095.484                    22525102.555
 111156435.118 8  86615388.12745  21152354.148                    21152363.102
 114856300.504 8  89498438.97745  21856422.883                    21856431.609
 117615636.243 7  91648571.04744  22381517.797                    22381527.199
 11  8 20 18  2  0.0000000  0 10G17G07G28G01G24G23G19G08G11G13
 126902271.561 7  98884911.600 6  24148693.242                    24148704.656
 107047539.598 8  83413763.093 7  20370487.320                    20370495.242
 118465054.293 7  92310494.56145  22543152.570                    22543160.969
 121842957.123 6  94942696.141 5  23185960.695                    23185975.156
 121375235.867 6                  23096932.000
 128296428.547 6  99971241.94743  24414014.266                    24414024.621
 118458509.617 7  92305351.71245  22541908.031                    22541914.586
 111093507.638 7  86566353.72945  21140379.609                    21140388.688
 114815685.885 8  89466791.22945  21848693.680                    21848702.648
 117718175.770 7  91728471.89344  22401029.844                    22401039.695
 11  8 20 18  2 30.0000000  0 10G17G07G28G01G24G23G19G08G11G13
 126800833.696 7  98805869.221 6  24129390.750                    24129401.949
 107031921.944 8  83401593.501 8  20367515.109                    20367523.648
 118434560.605 7  92286733.25145  22537350.570                    22537358.559
 121771688.580 6  94887162.305 6  23172399.094                    23172412.375
 121309334.727 6                  23084390.695
 128410649.597 6 100060245.08243  24435749.469                    24435760.563
 118547167.976 7  92374436.09145  22558778.406                    22558785.828
 111030772.289 7  86517469.06145  21128441.516                    21128450.367
 114775529.609 8  89435500.64945  21841052.328                    21841061.227
 117820943.106 7  91808550.22544  22420586.586                    22420594.996
 11  8 20 18  3  0.0000000  0  9G17G07G28G01G24G19G08G11G13
 126699548.252 6  98726945.568 6  24110116.359                    24110128.426
 107016677.886 8  83389715.007 8  20364614.828                    20364622.859
 118404177.813 7  92263058.37244  22531568.250                    22531576.621
 121700608.547 6  94831775.288 6  23158871.930                    23158886.574
 121243640.054 6                  23071890.961
 118636134.781 7  92443760.82345  22575708.930                    22575715.316
 110968231.582 7  86468736.07145  21116540.250                    21116549.461
 114735833.555 8  89404568.67145  21833497.977                    21833507.359
 117923934.982 7  91888803.53444  22440184.477                    22440194.840
 11  8 20 18  3 30.0000000  0  9G17G07G28G01G24G19G08G11G13
 126598417.497 6  98648142.507 6  24090872.016                    24090883.633
 107001809.756 8  83378129.432 8  20361785.727                    20361793.820
 118373905.773 7  92239469.79345  22525808.117                    22525816.230
 121629720.766 6  94776538.142 6  23145382.656                    23145397.219
 121178155.503 6                  23059428.680
 118725407.369 7  92513323.83845  22592696.359                    22592704.160
 110905888.061 7  86420156.72946  21104676.422                    21104685.477
 114696600.632 8  89373997.56945  21826032.336                    21826041.277
 118027148.844 7  91969229.80644  22459825.625                    22459835.723
 11  8 20 18  4  0.0000000  0  9G17G07G28G01G24G19G08G11G13
 126497443.488 7  98569461.610 6  24071657.523                    24071669.039
 106987319.416 8  83366838.255 8  20359028.047                    20359035.926
 118343743.622 7  92215966.83644  22520067.945                    22520076.441
 121559028.062 6  94721453.004 6  23131929.492                    23131944.672
 121112883.977 5                  23047007.750
 118814982.563 7  92583122.64345  22609742.172                    22609749.391
 110843743.919 7  86371732.74945  21092850.945                    21092860.125
 114657833.335 8  89343789.31145  21818655.547                    21818663.477
 118130581.422 7  92049826.55544  22479507.773                    22479517.918
 11  8 20 18  4 30.0000000  0  9G17G07G28G01G24G19G08G11G13
 126396627.724 7  98490903.955 6  24052473.375                    24052483.742
 106973207.912 8  83355842.274 8  20356342.734                    20356351.074
 118313689.568 7  92192548.10544  22514349.125                    22514357.703
 121488532.994 6  94666521.790 6  23118515.688                    23118529.551
 121047827.909 6                  23034628.148
 118904857.499 7  92653155.03545  22626845.055                    22626851.648
 110781801.260 7  86323465.75845  21081063.625                    21081072.434
 114619533.062 8  89313944.96345  21811366.969                    21811375.984
 118234229.004 7  92130590.82944  22499232.461                    22499241.816
 11  8 20 18  5  0.0000000  0  9G17G07G28G01G24G19G08G11G13
 126295972.400 6  98412471.322 6  24033317.875                    24033329.547
 106959477.129 8  83345142.948 8  20353729.836                    20353738.348
 118283742.935 7  92169213.08044  22508650.539                    22508658.902
 121418238.772 6  94611747.153 6  23105138.797                    23105152.500
 120982990.555 5                  23022288.813
 118995029.429 7  92723418.81845  22644004.008                    22644010.906
 110720062.356 8  86275357.54146  21069315.344                    21069323.977
 114581702.408 8  89284466.54245  21804168.203                    21804176.922
 118338088.920 7  92211520.53845  22518996.891                    22519006.250
 11  8 20 18  5 30.0000000  0  9G17G07G28G01G24G19G08G11G13
 126195479.645 6  98334165.418 6  24014194.641                    24014206.578
 106946128.961 8  83334741.773 8  20351189.773                    20351198.133
 118253903.113 7  92145961.29944  22502972.188                    22502980.680
 121348148.541 6  94557131.424 6  23091801.852                    23091815.035
 120918375.384 5                  23009993.164
 119085495.469 7  92793911.78845  22661218.836                    22661226.430
 110658530.011 8  86227410.28046  21057606.148                    21057614.469
 114544343.502 8  89255355.72145  21797058.281                    21797066.992
 118442158.393 7  92292613.52744  22538800.188                    22538810.434
 11  8 20 18  6  0.0000000  0  9G17G07G28G01G24G19G08G11G13
 126095151.095 6  98255987.440 6  23995102.063                    23995114.805
 106933164.388 8  83324639.481 8  20348722.859                    20348730.695
 118224168.801 7  92122791.71344  22497313.492                    22497321.852
 121278265.459 6  94502677.124 6  23078503.281                    23078517.383
 120853985.205 5                  22997740.047
 119176252.366 7  92864631.40245  22678489.500                    22678497.262
 110597205.845 8  86179625.22946  21045936.531                    21045945.762
 114507458.232 8  89226613.96845  21790038.836                    21790048.012
 118546433.669 7  92373866.87344  22558642.383                    22558652.801
 11  8 20 18  6 30.0000000  0 10G17G07G28G01G24G26G19G08G11G13
 125994988.982 6  98177939.103 6  23976043.258                    23976054.309
 106920585.596 8  83314837.824 8  20346329.211                    20346337.277
 118194539.010 7  92099703.63644  22491675.531                    22491683.395
 121208592.185 6  94448386.352 6  23065244.875                    23065258.055
 120789823.049 5                  22985531.906
 127302303.03015                  24224831.898
 119267297.660 7  92935575.72545  22695814.773                    22695822.809
 110536092.431 8  86132004.39346  21034306.688                    21034316.211
 114471048.992 8  89198243.16145  21783111.148                    21783120.176
 118650911.896 7  92455278.38144  22578525.023                    22578535.012
 11  8 20 18  7  0.0000000  0 10G17G07G28G01G24G26G19G08G11G13
 125894995.164 6  98100021.995 6  23957014.938                    23957025.402
 106908394.345 8  83305338.145 8  20344009.211                    20344017.109
 118165013.125 7  92076696.45344  22486056.258                    22486065.059
 121139132.284 5  94394261.843 6  23052025.625                    23052040.547
 120725892.20315                  22973365.914
 127215355.449 5                  24208286.602
 119358628.629 7  93006742.67445  22713194.477                    22713202.730
 110475192.405 8  86084549.83046  21022718.156                    21022726.898
 114435117.899 8  89170244.90245  21776273.984                    21776282.852
 118755589.999 7  92536845.62344  22598444.461                    22598455.305
 11  8 20 18  7 30.0000000  0 10G17G07G28G01G24G26G19G08G11G13
 125795172.124 6  98022237.813 6  23938019.102                    23938030.055
 106896592.339 8  83296141.763 8  20341763.133                    20341771.207
 118135590.215 7  92053769.49044  22480457.648                    22480465.992
 121069888.686 6  94340305.835 6  23038850.055                    23038864.543
 120662195.614 5                  22961243.203
 127128793.82115                  24191813.414
 119450242.209 7  93078129.83345  22730628.258                    22730636.109
 110414508.484 8  86037263.66546  21011170.344                    21011179.207
 114399667.408 8  89142621.17045  21769527.625                    21769536.008
 118860465.290 7  92618566.50744  22618401.750                    22618412.168
 11  8 20 18  8  0.0000000  0 10G17G07G28G01G24G26G19G08G11G13
 125695521.388 6  97944587.987 6  23919056.281                    23919067.383
 106885181.181 8  83287249.943 8  20339592.055                    20339600.113
 118106269.144 7  92030921.93344  22474877.898                    22474886.648
 121000864.683 6  94286520.932 6  23025715.820                    23025729.980
 120598736.494 5                  22949167.938
 127042620.536 5                  24175415.227
 119542135.727 7  93149735.10845  22748115.336                    22748123.316
 110354042.794 8  85990147.55546  20999663.578                    20999673.012
 114364699.450 7  89115373.41545  21762873.695                    21762882.492
 118965534.606 7  92700438.58944  22638395.758                    22638405.625
 11  8 20 18  8 30.0000000  0 10G17G07G28G01G24G26G19G08G11G13
 125596045.055 6  97867074.074 6  23900125.719                    23900136.625
 106874162.503 8  83278663.962 8  20337495.094                    20337503.254
 118077049.131 7  92008153.10544  22469317.594                    22469325.414
 120932062.836 6  94232909.183 6  23012622.703                    23012636.426
 120535517.631 5  93923789.46452  22937137.656                    22937149.688
 126956838.69115                  24159091.180
 119634306.230 7  93221556.24445  22765654.273                    22765663.039
 110293797.327 8  85943203.06346  20988199.906                    20988208.535
 114330215.564 7  89088502.87945  21756311.258                    21756320.844
 119070794.412 7  92782459.10544  22658425.813                    22658436.547
 11  8 20 18  9  0.0000000  0 10G17G07G28G01G24G26G19G08G11G13
 125496744.861 7  97789697.384 6  23881229.055                    23881240.738
 106863537.764 8  83270384.945 8  20335472.742                    20335481.387
 118047929.291 7  91985462.35644  22463776.563                    22463784.973
 120863486.195 5  94179472.926 6  22999572.500                    22999586.449
 120472542.219 5  93874717.77242  22925154.359                    22925166.145
 126871450.78815                  24142842.320
 119726750.729 7  93293590.87944  22783245.836                    22783253.398
 110233774.765 8  85896432.24346  20976777.617                    20976786.762
 114296218.503 7  89062011.69145  21749841.672                    21749851.352
 119176241.397 7  92864625.47544  22678491.313                    22678501.594
 11  8 20 18  9 30.0000000  0 10G17G07G28G01G24G26G19G08G11G13
 125397623.046 7  97712459.674 6  23862367.609                    23862379.148
 106853308.523 8  83262414.107 8  20333526.555                    20333534.703
 118018908.448 7  91962848.72444  22458254.234                    22458262.500
 120795137.679 6  94126214.367 6  22986567.078                    22986579.500
 120409813.091 6  93825837.92442  22913217.398                    22913229.332
 126786459.620 5                  24126669.180
 119819466.518 7  93365836.88444  22800889.109                    22800897.008
 110173977.520 8  85849837.01246  20965398.398                    20965407.582
 114262709.611 7  89035900.86845  21743465.586                    21743474.895
 119281872.681 7  92946935.45444  22698592.117                    22698602.691
 11  8 20 18 10  0.0000000  0 10G17G07G28G01G24G26G19G08G11G13
 125298681.384 7  97635362.362 6  23843539.508                    23843551.426
 106843476.640 8  83254752.894 8  20331655.602                    20331663.938
 117989985.793 7  91940311.60344  22452750.156                    22452758.727
 120727020.82315  94073136.37516  22973604.930                    22973617.355
 120347333.490 5  93777152.57042  22901327.383                    22901341.086
 126701867.994 5                  24110572.555
 119912450.826 7  93438292.15444  22818583.516                    22818591.012
 110114408.149 8  85803419.34646  20954063.063                    20954071.957
 114229691.161 7  89010172.22445  21737182.227                    21737191.078
 119387685.625 7  93029386.98044  22718728.484                    22718738.188
 11  8 20 18 10 30.0000000  0 10G17G07G28G01G24G26G19G08G11G13
 125199921.926 7  97558407.029 6  23824746.828                    23824757.680
 106834043.696 8  83247402.522 7  20329860.867                    20329868.691
 117961160.390 7  91917850.31844  22447264.883                    22447272.680
 120659138.594 5  94020241.164 6  22960685.625                    22960699.855
 120285106.343 5  93728664.00343  22889486.273                    22889500.055
 126617678.539 5                  24094551.523
 120005700.595 7  93510954.25844  22836329.133                    22836335.578
 110055069.014 7  85757181.08546  20942771.117                    20942779.805
 114197165.376 8  88984827.46945  21730992.828                    21731002.141
 119493676.819 7  93111977.40844  22738898.031                    22738908.523
 11  8 20 18 11  0.0000000  0 10G17G07G28G01G24G26G19G08G11G13
 125101346.398 7  97481595.065 6  23805988.328                    23805999.313
 106825011.491 8  83240364.416 7  20328142.031                    20328149.746
 117932431.628 7  91895464.30244  22441797.734                    22441806.609
 120591493.93416  93967531.09916  22947814.273                    22947828.160
 120223134.775 5  93680374.46142  22877692.633                    22877706.930
 126533893.980 5                  24078608.305
 120099213.065 7  93583821.08044  22854123.945                    22854130.426
 109995962.293 7  85711123.92246  20931523.563                    20931532.457
 114165134.628 7  88959868.43445  21724897.672                    21724906.500
 119599843.510 7  93194704.61744  22759100.445                    22759110.973
 11  8 20 18 11 30.0000000  0 10G17G07G28G01G24G26G19G08G11G13
 125002956.858 7  97404927.964 6  23787265.289                    23787276.047
 106816381.339 8  83233639.615 8  20326500.000                    20326507.785
 117903798.235 7  91873152.60044  22436349.070                    22436357.922
 120524089.659 6  93915008.337 6  22934987.969                    22935001.266
 120161421.55915  93632286.32352  22865948.578                    22865963.336
 126450516.983 5                  24062741.523
 120192985.363 7  93656890.32645  22871968.578                    22871975.488
 109937090.063 7  85665249.48546  20920320.422                    20920329.453
 114133600.071 7  88935296.04445  21718896.781                    21718905.309
 119706181.971 7  93277565.63944  22779336.219                    22779346.273
 11  8 20 18 12  0.0000000  0 10G17G07G28G01G24G26G19G08G11G13
 124904755.385 7  97328407.430 6  23768577.430                    23768588.570
 106808154.652 8  83227229.199 8  20324934.227                    20324941.730
 117875259.338 7  91850914.51444  22430918.023                    22430926.570
 120456928.694 6  93862675.184 6  22922207.664                    22922221.082
 120099969.859 5  93584401.95442  22854254.977                    22854267.516
 126367550.019 5                  24046952.836
 120287015.016 7  93730160.11044  22889861.805                    22889868.500
 109878455.404 7  85619560.16846  20909162.305                    20909171.457
 114102563.628 7  88911111.82145  21712990.813                    21712998.875
 119812689.200 7  93360558.17944  22799605.227                    22799614.086
 11  8 20 18 12 30.0000000  0 10G17G07G28G01G24G26G19G08G11G13
 124806743.944 7  97252034.942 6  23749926.297                    23749938.066
 106800333.286 8  83221134.615 8  20323445.414                    20323453.871
 117846814.224 7  91828749.52644  22425505.633                    22425513.840
 120390014.683 6  93810534.449 6  22909474.672                    22909487.680
 120038782.985 6  93536723.96042  22842612.180                    22842623.293
 126284995.986 5                  24031243.156
 120381298.789 7  93803627.94544  22907802.781                    22907809.859
 109820060.423 7  85574057.60646  20898050.148                    20898059.141
 114072027.527 7  88887317.49045  21707179.648                    21707188.832
 119919362.360 7  93443680.01844  22819903.766                    22819912.648
 11  8 20 18 13  0.0000000  0 10G17G07G28G01G24G26G19G08G11G13
 124708924.408 7  97175812.016 6  23731311.844                    23731323.563
 106792919.008 8  83215357.256 8  20322035.063                    20322043.363
 117818462.024 7  91806656.92244  22420109.828                    22420117.977
 120323350.293 6  93758588.221 6  22896789.625                    22896801.832
 119977863.731 6  93489254.51343  22831018.195                    22831030.633
 126202858.24515                  24015612.906
 120475834.222 7  93877291.85845  22925792.820                    22925800.805
 109761908.076 8  85528744.09846  20886983.984                    20886993.246
 114041994.164 7  88863914.87845  21701464.156                    21701473.563
 120026198.644 7  93526928.90744  22840233.789                    22840244.430
 11  8 20 18 13 30.0000000  0 10G17G07G28G01G24G26G19G08G11G13
 124611298.629 7  97099740.052 6  23712734.828                    23712746.086
 106785913.066 8  83209898.079 8  20320701.938                    20320709.629
 117790201.886 6  91784636.05344  22414732.219                    22414740.207
 120256938.768 6  93706839.068 6  22884150.320                    22884163.906
 119917215.380 6  93441996.06643  22819478.305                    22819488.688
 126121137.709 5                  24000061.898
 120570618.128 7  93951149.39744  22943829.648                    22943836.715
 109704000.293 7  85483621.18146  20875964.477                    20875973.949
 114012464.977 7  88840905.13945  21695845.195                    21695853.680
 120133194.759 7  93610302.38544  22860594.773                    22860605.000
 11  8 20 18 14  0.0000000  0 10G17G07G28G01G24G26G19G08G11G13
 124513868.471 7  97023820.543 6  23694194.563                    23694205.250
 106779316.984 8  83204758.257 8  20319446.578                    20319454.430
 117762032.618 7  91762686.02544  22409372.211                    22409379.961
 120190782.758 6  93655288.981 7  22871561.367                    22871575.402
 119856840.486 6  93394950.76743  22807989.789                    22807999.645
 126039838.600 5                  23984592.773
 120665647.797 7  94025198.43145  22961913.031                    22961920.258
 109646339.605 8  85438690.75946  20864992.305                    20865000.875
 113983441.616 7  88818289.55245  21690322.445                    21690331.535
 120240347.354 7  93693797.80644  22880985.094                    22880995.926
 11  8 20 18 14 30.0000000  0  9G17G07G28G01G24G19G08G11G13
 124416635.877 7  96948054.982 6  23675690.508                    23675701.922
 106773132.172 8  83199938.903 8  20318269.883                    20318277.973
 117733953.406 7  91740806.08844  22404027.508                    22404036.805
 120124885.592 6  93603940.625 6  22859020.922                    22859035.582
 119796742.106 7  93348120.92443  22796554.258                    22796564.926
 120760920.337 7  94099436.69144  22980042.625                    22980049.898
 109588928.451 8  85393954.77946  20854067.305                    20854076.797
 113954926.194 7  88796069.72945  21684896.406                    21684904.840
 120347653.467 7  93777412.82644  22901405.023                    22901415.719
 11  8 20 18 15  0.0000000  0  9G17G07G28G01G24G19G08G11G13
 124319602.678 6  96872444.799 6  23657225.703                    23657237.477
 106767360.503 8  83195441.485 8  20317171.367                    20317179.117
 117705963.439 6  91718995.76444  22398701.844                    22398710.230
 120059250.058 6  93552796.055 6  22846531.195                    22846545.316
 119736923.536 6  93301509.08343  22785169.789                    22785181.430
 120856433.203 7  94173862.28544  22998217.789                    22998225.465
 109531769.230 8  85349415.14846  20843190.156                    20843199.047
 113926920.688 7  88774247.26445  21679566.617                    21679575.949
 120455110.267 7  93861145.27444  22921853.141                    22921864.289
 11  8 20 18 15 30.0000000  0 10G17G07G28G01G24G26G19G08G11G13
 124222769.392 6  96796990.342 6  23638798.977                    23638809.520
 106762001.936 8  83191265.962 8  20316151.781                    20316159.836
 117678060.509 6  91697253.24244  22393392.258                    22393400.586
 119993877.821 6  93501856.674 6  22834090.563                    22834105.320
 119677386.021 6  93255116.21543  22773839.078                    22773852.188
 125798495.17015                  23938665.445
 120952181.846 6  94248471.54344  23016438.086                    23016446.016
 109474863.022 8  85305072.63746  20832361.336                    20832369.707
 113899425.060 7  88752822.11445  21674334.477                    21674343.887
 120562712.801 7  93944991.26244  22942329.516                    22942340.352
 11  8 20 18 16  0.0000000  0 10G17G07G28G01G24G26G19G08G11G13
 124126141.530 6  96721695.963 6  23620411.453                    23620422.219
 106757061.309 8  83187416.132 8  20315211.469                    20315219.664
 117650246.927 6  91675580.30544  22388099.680                    22388107.977
 119928775.002 6  93451127.264 6  22821703.383                    22821716.129
 119618135.869 6  93208947.32943  22762564.430                    22762577.332
 125718905.862 4                  23923520.477
 121048167.193 7  94323265.25544  23034703.984                    23034711.797
 109418215.819 8  85260931.97646  20821581.617                    20821590.340
 113872444.619 7  88731798.39645  21669200.508                    21669209.672
 120670461.578 7  94028951.20343  22962832.969                    22962843.797
 11  8 20 18 16 30.0000000  0  9G17G07G28G01G24G19G08G11G13
 124029719.149 7  96646561.725 6  23602063.281                    23602073.848
 106752538.948 8  83183892.215 8  20314351.039                    20314359.211
 117622520.245 7  91653975.13344  22382823.703                    22382831.645
 119863943.706 6  93400609.434 6  22809365.664                    22809378.918
 119559174.807 6  93163003.67743  22751344.828                    22751356.656
 121144384.384 7  94398239.63644  23053013.664                    23053021.648
 109361828.445 8  85216993.78646  20810851.391                    20810860.352
 113845979.955 8  88711176.59445  21664164.516                    21664173.383
 120778352.231 7  94113021.72343  22983364.133                    22983374.336
 11  8 20 18 17  0.0000000  0 10G17G07G28G01G24G26G19G08G11G13
 123933503.575 7  96571588.611 6  23583753.234                    23583765.074
 106748435.165 8  83180694.452 8  20313570.328                    20313578.059
 117594879.347 7  91632436.78444  22377563.422                    22377571.289
 119799386.319 6  93350305.025 6  22797080.852                    22797094.500
 119500505.149 6  93117287.10243  22740181.016                    22740192.242
 125561032.98414                  23893477.000
 121240830.281 7  94473392.22845  23071366.586                    23071374.559
 109305703.120 8  85173259.76346  20800171.875                    20800180.262
 113820031.867 7  88690957.33045  21659226.664                    21659235.551
 120886381.140 7  94197199.94544  23003921.773                    23003932.430
 11  8 20 18 17 30.0000000  0  9G17G07G28G01G24G19G08G11G13
 123837496.937 7  96496778.361 6  23565484.336                    23565495.332
 106744751.980 8  83177824.437 8  20312869.367                    20312877.449
 117567323.257 7  91610964.51144  22372319.758                    22372327.898
 119735105.707 7  93300216.275 7  22784848.859                    22784860.953
 119442130.110 7  93071800.12344  22729072.148                    22729084.586
 121337502.517 6  94548721.18544  23089761.945                    23089770.453
 109249842.364 8  85129731.90246  20789541.602                    20789549.996
 113794602.392 7  88671142.18945  21654387.164                    21654396.414
 120994545.205 7  94281483.48743  23024505.758                    23024515.375
 11  8 20 18 18  0.0000000  0  9G17G07G28G01G24G19G08G11G13
 123741701.184 6  96422132.399 6  23547254.727                    23547266.215
 106741490.520 8  83175283.025 8  20312248.719                    20312256.301
 117539851.186 7  91589557.69844  22367091.703                    22367099.988
 119671104.078 7  93250344.978 6  22772669.484                    22772681.910
 119384052.210 6  93026544.69644  22718019.672                    22718032.168
 121434398.151 7  94624224.21044  23108201.758                    23108209.906
 109194248.160 8  85086411.73646  20778962.109                    20778970.734
 113769692.837 7  88651732.15045  21649647.164                    21649655.547
 121102841.110 7  94365869.76344  23045113.023                    23045124.012
 11  8 20 18 18 30.0000000  0 10G17G07G28G01G24G26G19G08G11G13
 123646117.916 7  96347652.016 6  23529065.977                    23529077.109
 106738651.880 8  83173071.096 8  20311708.844                    20311716.871
 117512461.906 7  91568215.42444  22361880.414                    22361888.453
 119607385.056 7  93200693.824 7  22760544.203                    22760556.527
 119326274.196 7  92981522.87744  22707026.344                    22707037.309
 125327522.71715                  23849040.820
 121531513.861 7  94699898.72145  23126682.234                    23126690.637
 109138922.973 8  85043301.22646  20768433.906                    20768442.539
 113745304.799 7  88632728.51745  21645006.313                    21645014.520
 121211265.562 7  94450356.25844  23065745.617                    23065756.637
 11  8 20 18 19  0.0000000  0 10G17G07G28G01G24G26G19G08G11G13
 123550749.133 7  96273338.791 6  23510917.906                    23510928.738
 106736238.451 8  83171190.485 8  20311248.883                    20311257.137
 117485155.314 7  91546937.56244  22356683.617                    22356692.305
 119543952.178 7  93151265.644 7  22748473.484                    22748486.738
 119268799.988 6  92936737.81143  22696088.422                    22696100.734
 125250575.05815                  23834398.797
 121628847.649 7  94775743.18544  23145204.086                    23145212.480
 109083870.045 8  85000402.82446  20757958.016                    20757966.617
 113721441.016 7  88614133.36645  21640464.984                    21640473.715
 121319816.317 7  94534941.04543  23086401.555                    23086413.930
 11  8 20 18 19 30.0000000  0 10G17G07G28G01G24G26G19G08G11G13
 123455596.739 7  96199194.148 6  23492810.703                    23492821.762
 106734251.453 8  83169642.173 8  20310871.172                    20310879.227
 117457930.260 7  91525723.24644  22351503.117                    22351511.367
 119480807.985 7  93102062.424 7  22736456.945                    22736470.961
 119211632.385 6  92892191.66944  22685210.977                    22685221.965
 125174076.70314                  23819839.281
 121726396.438 7  94851755.15144  23163767.188                    23163775.316
 109029091.528 8  84957718.26646  20747533.828                    20747542.668
 113698102.724 7  88595947.69645  21636024.516                    21636032.980
 121428490.111 7  94619621.78643  23107082.281                    23107093.309
 11  8 20 18 20  0.0000000  0  9G17G07G28G01G24G19G08G11G13
 123360662.689 6  96125219.649 6  23474745.398                    23474755.996
 106732692.154 8  83168427.125 8  20310574.273                    20310582.277
 117430785.861 7  91504571.79444  22346337.398                    22346345.684
 119417955.359 7  93053086.398 7  22724496.305                    22724509.945
 119154774.104 7  92847886.60844  22674391.406                    22674401.785
 121824157.572 7  94927932.60244  23182370.781                    23182378.145
 108974589.924 8  84915249.49746  20737162.391                    20737171.785
 113675291.166 8  88578172.48445  21631683.547                    21631691.617
 121537283.892 7  94704396.00043  23127784.742                    23127795.371
 11  8 20 18 20 30.0000000  0  9G17G07G28G01G24G19G08G11G13
 123265948.380 7  96051416.383 6  23456721.828                    23456732.641
 106731561.487 8  83167546.075 8  20310358.922                    20310367.316
 117403720.867 7  91483482.21344  22341187.352                    22341195.105
 119355397.183 6  93004339.832 7  22712592.164                    22712605.559
 119098227.865 7  92803824.65444  22663630.984                    22663641.051
 121922127.938 7  95004273.06544  23201013.203                    23201021.902
 108920367.597 7  84872998.36546  20726843.773                    20726853.414
 113653007.829 8  88560808.86845  21627443.367                    21627452.379
 121646194.369 7  94789261.15343  23148509.500                    23148519.230
 11  8 20 18 21  0.0000000  0  9G17G07G28G01G24G19G08G11G13
 123171456.270 7  95977786.240 6  23438741.055                    23438751.324
 106730861.299 8  83167000.453 8  20310226.125                    20310234.336
 117376735.026 7  91462454.29444  22336052.063                    22336059.941
 119293136.695 6  92955825.221 7  22700743.945                    22700758.195
 119041996.936 6  92760008.42143  22652928.508                    22652940.746
 122020304.979 7  95080774.56144  23219696.641                    23219704.523
 108866427.223 7  84830966.93146  20716579.648                    20716588.996
 113631254.588 8  88543858.30145  21623303.906                    21623312.789
 121755218.634 7  94874214.98443  23169256.930                    23169266.688
 11  8 20 18 21 30.0000000  0  9G17G07G28G01G24G19G08G11G13
 123077187.428 7  95904330.056 6  23420801.867                    23420813.242
 106730592.912 8  83166791.303 8  20310174.891                    20310183.137
 117349827.192 7  91441487.18744  22330931.844                    22330939.715
 119231176.408 6  92907544.532 7  22688953.961                    22688966.859
 118986083.684 6  92716439.75044  22642289.219                    22642301.109
 122118685.741 7  95157434.83844  23238417.742                    23238425.961
 108812770.943 8  84789156.87146  20706369.406                    20706378.477
 113610033.155 7  88527322.13845  21619265.078                    21619274.500
 121864353.375 7  94959254.89343  23190025.219                    23190035.094
 11  8 20 18 22  0.0000000  0  9G17G07G28G01G24G19G08G11G13
 122983143.704 7  95831049.321 6  23402904.984                    23402916.621
 106730757.334 8  83166919.418 8  20310205.641                    20310214.195
 117322996.620 7  91420580.28044  22325825.789                    22325833.938
 119169519.326 7  92859500.093 7  22677221.211                    22677234.168
 118930491.146 6  92673120.94443  22631711.156                    22631721.688
 122217267.428 7  95234251.66844  23257177.234                    23257185.270
 108759401.209 8  84747570.09146  20696213.469                    20696222.574
 113589344.138 7  88511200.83745  21615327.648                    21615336.926
 121973595.711 7  95044378.63843  23210813.539                    23210824.031
 11  8 20 18 22 30.0000000  0  9G17G07G28G01G24G19G08G11G13
 122889327.205 6  95757945.643 6  23385052.023                    23385064.016
 106731356.007 8  83167385.897 8  20310320.195                    20310328.551
 117296242.610 7  91399733.01944  22320735.094                    22320743.234
 119108168.380 7  92811694.207 7  22665545.930                    22665558.914
 118875222.222 6  92630054.32043  22621191.953                    22621204.719
 122316047.565 7  95311223.15544  23275974.469                    23275982.234
 108706320.821 8  84706208.76846  20686112.594                    20686121.594
 113569189.796 7  88495496.19045  21611492.508                    21611501.313
 122082942.380 7  95129583.69943  23231621.383                    23231632.582
 11  8 20 18 23  0.0000000  0  9G17G07G28G01G24G19G08G11G13
 122795739.867 6  95685020.516 6  23367243.680                    23367255.094
 106732390.795 8  83168192.228 8  20310517.453                    20310525.477
 117269563.825 7  91378944.42043  22315658.008                    22315666.555
 119047126.825 6  92764129.392 7  22653930.016                    22653942.984
 118820280.278 6  92587242.42944  22610737.109                    22610750.063
 122415023.562 7  95388347.27444  23294808.953                    23294816.805
 108653532.141 8  84665074.75846  20676067.477                    20676075.801
 113549571.483 7  88480209.21145  21607759.336                    21607768.406
 122192390.984 7  95214868.14643  23252447.891                    23252460.273
 11  8 20 18 23 30.0000000  0 10G17G07G28G01G24G26G19G08G11G13
 122702383.544 6  95612275.460 6  23349477.945                    23349489.516
 106733863.018 8  83169339.398 8  20310797.805                    20310805.742
 117242960.104 6  91358214.30243  22310594.789                    22310603.773
 118986397.663 7  92716808.007 7  22642373.703                    22642386.395
 118765668.208 6  92544687.60044  22600345.180                    22600357.820
 124578551.75215                  23706515.922
 122514192.675 7  95465621.85944  23313680.430                    23313687.895
 108601038.037 8  84624170.26746  20666077.992                    20666086.250
 113530491.344 8  88465341.58245  21604128.680                    21604137.285
 122301938.448 7  95300229.60143  23273295.102                    23273306.941
 11  8 20 18 24  0.0000000  0 10G17G07G28G01G24G26G19G08G11G13
 122609260.255 7  95539711.965 6  23331757.266                    23331768.914
 106735773.699 8  83170828.212 8  20311160.680                    20311169.082
 117216430.689 6  91337542.04043  22305547.109                    22305555.348
 118925983.626 6  92669732.180 7  22630877.555                    22630889.727
 118711388.523 6  92502391.79044  22590017.203                    22590027.879
 124506205.546 5                  23692748.492
 122613552.165 6  95543044.78644  23332587.813                    23332595.609
 108548841.018 8  84583497.26446  20656145.305                    20656154.000
 113511950.086 7  88450893.87245  21600600.266                    21600608.477
 122411581.315 7  95385665.41343  23294159.227                    23294171.016
 11  8 20 18 24 30.0000000  0 10G17G07G28G01G24G26G19G08G11G13
 122516371.287 7  95467331.045 6  23314081.047                    23314092.055
 106738124.118 8  83172659.680 7  20311607.984                    20311616.492
 117189974.694 6  91316927.05342  22300512.469                    22300520.766
 118865887.797 7  92622904.312 7  22619442.023                    22619454.441
 118657444.196 7  92460357.31044  22579751.227                    22579761.914
 124434332.61115                  23679070.922
 122713098.976 7  95620613.66544  23351530.922                    23351538.871
 108496943.369 8  84543057.54046  20646269.414                    20646278.191
 113493949.227 8  88436867.23545  21597175.055                    21597183.262
 122521316.873 7  95471173.48743  23315042.172                    23315052.023
 11  8 20 18 25  0.0000000  0 10G17G07G28G01G24G26G19G08G11G13
 122423718.261 7  95395133.938 6  23296450.391                    23296460.316
 106740915.314 7  83174834.630 7  20312139.117                    20312146.988
 117163590.666 6  91296368.07542  22295492.328                    22295499.801
 118806112.680 7  92576326.342 7  22608066.797                    22608080.070
 118603837.942 6  92418586.25443  22569550.336                    22569561.277
 124362935.273 5                  23665484.852
 122812830.356 6  95698326.37144  23370508.953                    23370517.047
 108445347.261 8  84502852.78246  20636451.094                    20636459.672
 113476489.839 8  88423262.52945  21593852.086                    21593861.313
 122631141.863 7  95556751.22343  23335940.820                    23335951.227
 11  8 20 18 25 30.0000000  0 10G17G07G28G01G24G26G19G08G11G13
 122331303.269 7  95323122.338 6  23278863.273                    23278873.570
 106744149.027 8  83177354.383 8  20312754.609                    20312763.266
 117137278.498 5  91275865.16242  22290484.438                    22290492.918
 118746661.253 6  92530000.570 7  22596752.258                    22596766.855
 118550572.810 6  92377080.98943  22559413.344                    22559424.527
 124292015.794 5                  23651989.375
 122912743.961 7  95776181.08344  23389522.117                    23389530.254
 108394055.990 8  84462885.56046  20626690.391                    20626699.258
 113459573.863 8  88410081.26545  21590633.688                    21590641.992
 122741053.269 7  95642396.28743  23356856.180                    23356866.664
 11  8 20 18 26  0.0000000  0 10G17G07G28G01G24G26G19G08G11G13
 122239127.885 7  95251297.464 6  23261323.578                    23261333.777
 106747826.225 8  83180219.720 7  20313454.539                    20313462.738
 117111037.56215  91255417.17752  22285493.148                    22285499.617
 118687536.457 7  92483929.334 7  22585502.523                    22585515.207
 118497651.260 7  92335843.48743  22549343.414                    22549354.141
 124221576.89116                  23638586.898
 123012836.572 7  95854175.25044  23408568.563                    23408577.859
 108343071.450 8  84423157.35846  20616988.453                    20616997.422
 113443202.246 8  88397324.19745  21587517.813                    21587526.977
 122851048.260 7  95728106.54343  23377788.625                    23377799.121
 11  8 20 18 26 30.0000000  0 10G17G07G28G01G24G26G19G08G11G13
 122147193.721 7  95179660.498 6  23243828.234                    23243839.031
 106751947.986 8  83183431.483 8  20314238.711                    20314247.215
 117084865.11515  91235023.51552  22280509.977                    22280519.676
 118628741.011 7  92438114.730 7  22574313.492                    22574327.168
 118445076.236 6  92294875.95743  22539338.648                    22539349.813
 124151620.474 5                  23625273.531
 123113105.464 7  95932306.79744  23427649.633                    23427658.836
 108292395.984 8  84383669.99146  20607345.484                    20607354.277
 113427376.299 8  88384992.30245  21584506.094                    21584515.297
 122961123.544 7  95813879.31143  23398734.453                    23398746.039
 11  8 20 18 27  0.0000000  0 10G17G07G28G01G24G26G19G08G11G13
 122055502.619 7  95108212.948 6  23226380.914                    23226391.133
 106756515.556 8  83186990.619 8  20315107.250                    20315116.082
 117058762.287 6  91214683.66942  22275543.086                    22275551.766
 118570277.876 7  92392559.057 7  22563188.188                    22563202.000
 118392850.741 6  92254180.79644  22529400.203                    22529411.430
 124082149.066 5                  23612052.852
 123213548.098 7  96010573.73344  23446763.359                    23446771.977
 108242032.472 8  84344425.71546  20597761.133                    20597770.391
 113412097.345 8  88373086.63645  21581598.766                    21581607.699
 123071276.282 7  95899712.42843  23419696.234                    23419708.012
 11  8 20 18 27 30.0000000  0 10G17G07G28G01G24G26G19G08G11G13
 121964056.100 7  95036956.024 6  23208978.797                    23208990.039
 106761529.938 8  83190897.886 8  20316062.484                    20316070.367
 117032727.683 6  91194396.91743  22270589.461                    22270597.570
 118512149.570 7  92347264.281 7  22552128.266                    22552139.930
 118340977.246 7  92213759.91543  22519529.086                    22519539.902
 124013164.58314                  23598924.602
 123314161.859 6  96088973.99544  23465908.664                    23465918.711
 108191983.277 8  84305426.33046  20588237.344                    20588246.250
 113397366.435 8  88361608.00145  21578794.961                    21578804.906
 123181503.246 7  95985603.36643  23440671.609                    23440684.367
 11  8 20 18 28  0.0000000  0 10G17G07G28G01G24G26G19G08G11G13
 121872856.213 7  94965891.277 6  23191622.906                    23191635.219
 106766992.824 8  83195154.676 8  20317101.781                    20317109.789
 117006760.710 6  91174162.96943  22265647.727                    22265655.883
 118454359.421 7  92302233.025 6  22541130.336                    22541143.074
 118289458.918 7  92173615.78244  22509725.797                    22509736.680
 123944666.59915                  23585890.367
 123414944.165 7  96167505.59244  23485087.695                    23485096.328
 108142251.063 8  84266673.97546  20578773.539                    20578782.754
 113383185.066 8  88350557.61345  21576097.055                    21576106.203
 123291801.828 7  96071550.08443  23461661.375                    23461673.176
 11  8 20 18 28 30.0000000  0 10G17G07G28G01G24G26G19G08G11G13
 121781904.807 7  94895020.171 7  23174316.438                    23174328.051
 106772905.633 8  83199762.048 8  20318226.992                    20318235.086
 116980860.807 6  91153981.23343  22260719.539                    22260727.180
 118396910.240 7  92257467.448 6  22530197.406                    22530210.438
 118238298.619 7  92133750.63544  22499990.453                    22500001.156
 123876663.461 5                  23572951.945
 123515892.061 6  96246166.21844  23504296.461                    23504305.262
 108092838.534 8  84228170.70246  20569370.586                    20569379.727
 113369554.778 8  88339936.61945  21573503.547                    21573512.480
 123402169.074 7  96157550.32343  23482663.563                    23482675.520
 11  8 20 18 29  0.0000000  0 10G17G07G28G01G24G26G19G08G11G13
 121691203.399 7  94824343.807 7  23157056.227                    23157067.039
 106779269.167 8  83204720.625 7  20319438.070                    20319446.059
 116955027.178 6  91133851.12844  22255803.516                    22255811.695
 118339805.026 6  92212969.906 7  22519330.875                    22519343.617
 118187498.935 7  92094166.48244  22490323.445                    22490334.938
 123809154.50615                  23560104.672
 123617003.192 7  96324954.04843  23523538.148                    23523545.398
 108043748.157 8  84189918.47646  20560028.969                    20560038.148
 113356476.711 8  88329745.95645  21571014.719                    21571023.434
 123512601.522 6  96243601.36744  23503678.195                    23503689.738
 11  8 20 18 29 30.0000000  0 10G17G07G28G01G24G26G19G08G11G13
 121600753.224 7  94753863.216 6  23139844.219                    23139855.246
 106786084.030 8  83210030.897 8  20320734.492                    20320742.438
 116929258.663 6  91113771.77844  22250900.609                    22250908.070
 118283045.918 6  92168742.033 7  22508530.172                    22508542.992
 118137062.108 7  92054865.10944  22480725.656                    22480736.699
 123742141.01515                  23547352.008
 123718274.521 7  96403866.71444  23542809.906                    23542817.082
 107994981.668 8  84151918.60646  20550748.977                    20550757.664
 113343951.533 8  88319986.07345  21568630.656                    21568639.793
 123623096.057 7  96329700.81844  23524705.359                    23524716.008
 11  8 20 18 30  0.0000000  0 10G17G07G28G01G24G26G19G08G11G13
 121510556.133 7  94683579.853 6  23122681.070                    23122690.938
 106793351.918 8  83215694.176 8  20322117.813                    20322125.984
 116903554.602 6  91093742.66044  22246008.672                    22246016.207
 118226635.931 7  92124786.231 7  22497795.625                    22497808.539
 118086991.389 7  92015848.96644  22471197.695                    22471208.176
 123675625.863 5                  23534694.461
 123819703.658 7  96482902.33144  23562111.563                    23562119.254
 107946542.394 8  84114173.73946  20541531.852                    20541539.563
 113331980.619 8  88310658.09445  21566352.727                    21566361.734
 123733650.313 7  96415846.80943  23545742.797                    23545753.742
 11  8 20 18 30 30.0000000  0 10G17G07G28G01G24G26G19G08G11G13
 121420613.968 7  94613495.124 6  23105565.445                    23105574.809
 106801073.321 8  83221710.840 8  20323586.805                    20323595.023
 116877913.972 6  91073762.96444  22241129.313                    22241137.547
 118170577.976 7  92081104.734 7  22487128.367                    22487140.668
 118037289.174 7  91977119.99644  22461739.148                    22461750.355
 123609610.767 6                  23522132.453
 123921287.340 7  96562058.38544  23581441.555                    23581449.816
 107898432.099 8  84076685.18646  20532376.109                    20532384.914
 113320564.909 8  88301762.75445  21564180.742                    21564189.309
 123844260.980 7  96502036.73743  23566791.688                    23566802.516
 11  8 20 18 31  0.0000000  0 10G17G07G28G01G24G26G19G08G11G13
 121330928.450 7  94543610.406 6  23088498.203                    23088507.391
 106809250.294 8  83228082.481 8  20325142.836                    20325151.258
 116852336.369 7  91053832.37344  22236262.633                    22236270.348
 118114875.073 7  92037699.934 7  22476528.148                    22476540.406
 117987958.815 7  91938680.73644  22452352.406                    22452364.148
 123544098.319 5                  23509665.188
 124023023.485 6  96641333.22344  23600801.031                    23600809.906
 107850654.089 8  84039455.56846  20523284.281                    20523293.051
 113309705.923 8  88293301.20145  21562114.203                    21562123.195
 123954925.248 7  96588268.47043  23587851.141                    23587861.719
 11  8 20 18 31 30.0000000  0 10G17G07G28G01G24G26G19G08G11G13
 121241501.227 7  94473926.930 6  23071481.000                    23071490.574
 106817883.651 8  83234809.749 8  20326785.719                    20326794.266
 116826821.283 7  91033950.50943  22231407.039                    22231414.543
 118059529.820 7  91994573.804 6  22465996.445                    22466008.973
 117939002.847 7  91900533.25344  22443036.445                    22443047.348
 123479090.852 5                  23497295.078
 124124909.366 7  96720724.74544  23620189.734                    23620198.059
 107803211.028 8  84002486.98246  20514256.445                    20514265.004
 113299404.611 8  88285274.23545  21560154.125                    21560163.223
 124065640.261 7  96674539.71543  23608918.711                    23608930.027
 11  8 20 18 32  0.0000000  0 10G17G07G28G01G24G26G19G08G11G13
 121152333.946 7  94404446.014 6  23054512.375                    23054522.453
 106826974.092 8  83241893.197 8  20328515.992                    20328523.980
 116801367.824 7  91014116.65544  22226562.352                    22226570.910
 118004545.165 7  91951728.640 7  22455532.773                    22455546.008
 117890423.644 7  91862679.33444  22433792.180                    22433803.086
 123414590.007 5                  23485020.328
 124226941.916 6  96800230.57044  23639606.086                    23639614.367
 107756104.611 8  83965780.68846  20505292.328                    20505301.109
 113289661.783 8  88277682.41645  21558299.914                    21558309.523
 124176402.809 7  96760848.00343  23629996.953                    23630007.797
 11  8 20 18 32 30.0000000  0 10G17G07G28G01G24G26G19G08G11G13
 121063428.128 7  94335168.794 6  23037594.109                    23037604.340
 106836522.992 8  83249333.882 8  20330333.180                    20330341.211
 116775975.012 7  90994330.07044  22221730.320                    22221738.555
 117949923.623 7  91909166.436 7  22445138.953                    22445151.961
 117842223.839 7  91825121.09844  22424619.383                    22424630.531
 123350597.925 5                  23472842.391
 124329119.224 6  96879849.19944  23659049.797                    23659057.973
 107709337.639 8  83929338.90346  20496392.672                    20496401.828
 113280478.599 8  88270526.69045  21556552.305                    21556561.883
 124287209.916 7  96847190.95443  23651082.555                    23651094.195
 11  8 20 18 33  0.0000000  0 10G17G07G28G01G24G26G19G08G11G13
 120974785.570 7  94266096.783 6  23020726.352                    23020736.672
 106846531.188 8  83257132.461 8  20332237.258                    20332246.027
 116750642.084 7  90974590.13144  22216909.453                    22216918.895
 117895667.768 7  91866889.188 7  22434814.828                    22434827.699
 117794406.285 6  91787860.70144  22415519.508                    22415531.371
 123287116.881 5                  23460762.641
 124431438.239 7  96959578.22444  23678521.305                    23678529.285
 107662912.602 8  83893163.55646  20487558.219                    20487566.727
 113271855.861 8  88263807.66445  21554911.680                    21554920.613
 124398058.639 7  96933566.35743  23672177.125                    23672188.000
 11  8 20 18 33 30.0000000  0 10G17G07G28G01G24G26G19G08G11G13
 120886407.439 7  94197230.791 6  23003908.273                    23003919.035
 106856999.399 8  83265289.488 8  20334229.281                    20334237.344
 116725368.196 7  90954896.21244  22212100.133                    22212108.879
 117841780.195 7  91824898.911 7  22424560.219                    22424573.688
 117746973.433 7  91750900.08944  22406493.430                    22406505.117
 123224148.56815                  23448782.039
 124533896.166 6  97039415.52844  23698017.930                    23698026.090
 107616831.558 8  83857256.24546  20478789.563                    20478798.191
 113263794.447 8  88257526.05845  21553377.969                    21553386.355
 124508945.767 7  97019971.69744  23693278.188                    23693289.117
 11  8 20 18 34  0.0000000  0  9G17G07G28G01G24G19G08G11G13
 120798295.481 7  94128572.212 6  22987141.297                    22987152.266
 106867928.854 8  83273805.923 8  20336309.172                    20336317.621
 116700152.952 7  90935247.98844  22207301.594                    22207310.684
 117788263.500 7  91783197.646 7  22414375.516                    22414389.051
 117699927.985 7  91714241.34644  22397541.711                    22397552.801
 124636490.467 7  97119359.07144  23717541.313                    23717549.488
 107571097.082 8  83821618.98146  20470086.555                    20470095.313
 113256295.431 8  88251682.69845  21551950.781                    21551959.965
 124619868.216 7  97106404.55244  23714386.070                    23714397.422
 11  8 20 18 34 30.0000000  0  9G17G07G28G01G24G19G08G11G13
 120710451.276 7  94060122.255 7  22970425.055                    22970435.773
 106879320.556 8  83282682.567 8  20338477.281                    20338485.793
 116674995.291 7  90915644.62844  22202514.758                    22202523.227
 117735120.909 7  91741787.864 7  22404263.266                    22404276.301
 117653272.641 7  91677886.59644  22388662.813                    22388673.793
 124739218.544 6  97199406.88344  23737089.656                    23737097.961
 107525711.939 8  83786253.94946  20461450.203                    20461459.039
 113249359.944 8  88246278.42045  21550631.102                    21550640.137
 124730823.744 7  97192863.17243  23735501.359                    23735511.980
 11  8 20 18 35  0.0000000  0  9G17G07G28G01G24G19G08G11G13
 120622876.654 7  93991882.377 7  22953759.727                    22953770.828
 106891175.284 8  83291919.990 8  20340732.883                    20340741.703
 116649894.687 7  90896085.71544  22197737.977                    22197746.715
 117682354.823 7  91700671.493 7  22394221.883                    22394235.332
 117607010.158 7  91641837.92444  22379859.195                    22379871.152
 124842077.668 7  97279556.78444  23756662.695                    23756671.570
 107480678.861 8  83751163.24146  20452880.586                    20452889.043
 113242988.617 8  88241313.77845  21549418.305                    21549427.008
 124841809.088 7  97279345.01343  23756620.414                    23756632.484
 11  8 20 18 35 30.0000000  0  9G17G07G28G01G24G19G08G11G13
 120535572.893 7  93923853.533 6  22937146.242                    22937157.367
 106903494.524 8  83301519.370 7  20343077.484                    20343085.707
 116624850.549 7  90876570.82844  22192972.859                    22192981.695
 117629968.282 7  91659850.849 7  22384253.680                    22384266.125
 117561143.139 7  91606097.44244  22371131.141                    22371142.727
 124945065.432 6  97359806.86644  23776260.961                    23776270.578
 107435999.996 8  83716348.54446  20444378.328                    20444386.539
 113237182.758 8  88236789.72545  21548314.141                    21548322.102
 124952821.307 6  97365847.83143  23777745.000                    23777756.609
 11  8 20 18 36  0.0000000  0  9G17G07G28G01G24G19G08G11G13
 120448542.454 7  93856037.682 7  22920584.875                    22920596.078
 106916279.525 8  83311481.704 8  20345509.977                    20345518.852
 116599862.929 7  90857099.98144  22188217.648                    22188226.504
 117577964.269 7  91619328.302 7  22374357.586                    22374370.230
 117515674.844 7  91570667.60844  22362478.930                    22362489.715
 125048179.904 7  97440155.76244  23795883.047                    23795891.570
 107391678.824 8  83681812.56346  20435943.945                    20435952.961
 113231943.577 8  88232707.27545  21547316.070                    21547324.754
 125063858.301 6  97452369.92943  23798874.016                    23798886.453
 11  8 20 18 36 30.0000000  0  9G17G07G28G01G24G19G08G11G13
 120361786.415 7  93788435.612 7  22904075.117                    22904086.973
 106929531.055 8  83321807.554 8  20348032.078                    20348040.145
 116574930.666 7  90837672.25944  22183473.336                    22183481.824
 117526345.177 7  91579105.685 7  22364534.305                    22364547.535
 117470607.324 7  91535550.14044  22353901.922                    22353913.730
 125151418.170 7  97520601.08644  23815529.125                    23815537.242
 107347717.235 8  83647556.78246  20427578.609                    20427587.406
 113227271.342 8  88229066.57845  21546427.969                    21546436.555
 125174916.702 6  97538908.72043  23820008.172                    23820021.504
 11  8 20 18 37  0.0000000  0  9G17G07G28G01G24G19G08G11G13
 120275306.192 7  93721048.492 7  22887619.586                    22887630.199
 106943249.858 8  83332497.530 8  20350642.297                    20350650.793
 116550053.008 7  90818287.08644  22178739.180                    22178747.945
 117475113.794 7  91539185.209 7  22354785.359                    22354798.723
 117425943.141 7  91500746.93744  22345403.102                    22345413.773
 125254777.444 7  97601140.70544  23835198.266                    23835206.535
 107304117.790 8  83613583.18046  20419282.313                    20419290.988
 113223167.043 8  88225868.43145  21545646.578                    21545655.234
 125285993.522 6  97625461.84443  23841145.234                    23841158.344
 11  8 20 18 37 30.0000000  0  9G17G07G28G01G24G19G08G11G13
 120189103.206 7  93653877.422 6  22871215.758                    22871226.371
 106957436.590 8  83343552.115 8  20353342.180                    20353350.555
 116525228.913 7  90798943.64144  22174015.523                    22174023.773
 117424272.413 7  91499568.615 7  22345110.164                    22345123.699
 117381684.598 7  91466259.83044  22336980.867                    22336992.688
 125358255.000 7  97681772.47444  23854889.094                    23854897.066
 107260882.670 8  83579893.48446  20411054.797                    20411063.516
 113219631.260 8  88223113.28345  21544973.727                    21544982.523
 125397085.570 6  97712026.86943  23862286.148                    23862298.227
 11  8 20 18 38  0.0000000  0 10G17G07G28G01G24G26G19G08G11G13
 120103178.527 7  93586923.171 7  22854863.758                    22854874.898
 106972091.729 8  83354971.681 8  20356131.172                    20356139.781
 116500457.435 7  90779641.22744  22169301.219                    22169310.129
 117373823.177 7  91460257.586 7  22335510.258                    22335523.648
 117337833.961 7  91432090.54145  22328636.813                    22328648.305
 122680696.24515                  23345393.984
 125461848.091 6  97762494.30244  23874601.625                    23874610.180
 107218014.025 8  83546489.34546  20402897.195                    20402906.352
 113216664.177 7  88220801.29445  21544409.461                    21544417.887
 125508189.517 6  97798601.12043  23883429.008                    23883441.344
 11  8 20 18 38 30.0000000  0 10G17G07G28G01G24G26G19G08G11G13
 120017534.741 7  93520187.837 7  22838566.555                    22838577.664
 106987216.514 8  83366757.211 8  20359009.609                    20359017.996
 116475738.879 7  90760380.01744  22164598.039                    22164606.305
 117323769.508 7  91421254.774 7  22325985.328                    22325998.215
 117294394.653 7  91398241.81045  22320370.820                    22320381.672
 122622966.43815                  23334407.477
 125565554.425 6  97843304.36044  23894336.961                    23894345.156
 107175514.822 8  83513373.07346  20394809.617                    20394818.441
 113214267.476 8  88218933.73845  21543952.797                    21543961.820
 125619303.238 7  97885183.04443  23904573.461                    23904585.461
 11  8 20 18 39  0.0000000  0 10G17G07G28G01G24G26G19G08G11G13
 119932172.850 7  93453672.178 7  22822323.141                    22822333.246
 107002811.665 8  83378909.265 8  20361977.172                    20361985.301
 116451071.788 7  90741158.92244  22159903.664                    22159912.371
 117274113.419 7  91382561.758 7  22316535.984                    22316548.598
 117251368.664 7  91364715.14544  22312182.977                    22312193.621
 122565770.808 5                  23323523.453
 125669371.610 6  97924200.81843  23914091.883                    23914100.277
 107133387.454 8  83480546.54946  20386793.031                    20386802.078
 113212440.981 7  88217510.54545  21543605.273                    21543614.016
 125730423.732 6  97971770.26143  23925718.820                    23925730.695
 11  8 20 18 39 30.0000000  0 10G17G07G28G01G24G26G19G08G11G13
 119847094.127 7  93387377.153 7  22806132.586                    22806143.383
 107018878.057 8  83391428.500 8  20365034.227                    20365042.543
 116426455.731 7  90721977.58444  22155219.141                    22155228.145
 117224857.846 7  91344180.847 7  22307163.133                    22307175.477
 117208758.318 7  91331512.33144  22304074.469                    22304085.352
 122509111.199 5                  23312741.406
 125773296.948 6  98005181.53543  23933868.258                    23933877.039
 107091634.216 8  83448011.55146  20378847.711                    20378856.664
 113211185.902 8  88216532.57745  21543366.461                    21543375.492
 125841548.003 6  98058360.31043  23946865.758                    23946877.121
 11  8 20 18 40  0.0000000  0 10G17G07G28G01G24G26G19G08G11G13
 119762299.990 7  93321303.842 7  22789997.258                    22790008.172
 107035416.574 7  83404315.646 8  20368181.250                    20368189.750
 116401889.968 7  90702835.43244  22150544.391                    22150553.559
 117176005.237 7  91306113.932 7  22297866.469                    22297879.305
 117166566.268 7  91298635.45745  22296045.789                    22296056.980
 122452989.345 6                  23302061.492
 125877327.741 6  98086244.42443  23953664.953                    23953674.148
 107050257.192 8  83415769.71446  20370973.930                    20370982.641
 113210502.816 8  88216000.30445  21543236.359                    21543245.254
 125952673.196 6  98144951.14343  23968012.000                    23968024.508
 11  8 20 18 40 30.0000000  0 10G17G07G28G01G24G26G19G08G11G13
 119677792.240 7  93255453.722 7  22773915.406                    22773926.352
 107052428.056 8  83417571.319 8  20371418.625                    20371427.109
 116377374.111 7  90683732.15144  22145879.570                    22145888.109
 117127558.244 7  91268363.094 7  22288646.992                    22288660.887
 117124794.940 7  91266086.40845  22288096.742                    22288108.504
 122397407.239 6  95374771.13352  23291485.391                    23291494.098
 125981461.948 6  98167387.93143  23973480.164                    23973489.797
 107009259.502 8  83383823.44946  20363172.102                    20363180.813
 113210392.287 8  88215914.18845  21543215.727                    21543224.375
 126063796.280 6  98231540.32043  23989158.695                    23989171.441
 11  8 20 18 41  0.0000000  0 10G17G07G28G01G24G26G19G08G11G13
 119593572.388 7  93189827.964 7  22757888.688                    22757899.078
 107069913.572 8  83431196.358 7  20374745.680                    20374753.949
 116352907.561 7  90664667.31544  22141223.492                    22141232.027
 117079519.373 7  91230930.218 7  22279505.484                    22279518.969
 117083446.884 7  91233867.19544  22280228.352                    22280239.934
 122342366.526 5  95331882.25342  23281009.609                    23281020.746
 126085696.726 6  98248609.72943  23993315.781                    23993324.840
 106968643.505 8  83352174.61546  20355443.289                    20355452.262
 113210854.990 8  88216274.72045  21543303.688                    21543312.527
 126174914.808 6  98318125.95843  24010303.078                    24010316.559
 11  8 20 18 41 30.0000000  0 10G17G07G28G01G24G26G19G08G11G13
 119509641.880 7  93124427.655 6  22741917.695                    22741927.547
 107087873.364 8  83445190.975 7  20378163.297                    20378172.191
 116328489.535 7  90645640.29144  22136576.594                    22136585.664
 117031891.239 7  91193817.426 7  22270442.047                    22270455.672
 117042524.569 7  91201979.74844  22272441.461                    22272452.254
 122287868.974 6  95289416.67542  23270639.797                    23270651.023
 126190029.647 6  98329908.02843  24013170.063                    24013179.480
 106928411.744 8  83320825.19046  20347787.578                    20347796.863
 113211891.485 8  88217082.40045  21543500.289                    21543509.168
 126286025.663 6  98404705.58742  24031446.641                    24031460.641
 11  8 20 18 42  0.0000000  0 10G17G07G28G01G24G26G19G08G11G13
 119426001.833 7  93059253.647 6  22726001.391                    22726011.582
 107106308.228 8  83459555.779 8  20381671.547                    20381680.180
 116304119.344 7  90626650.54844  22131939.336                    22131947.809
 116984676.149 7  91157026.487 7  22261457.344                    22261470.230
 117002030.307 7  91170425.83444  22264734.844                    22264746.301
 122233916.175 6  95247375.52942  23260373.211                    23260384.328
 126294458.199 6  98411280.85343  24033042.438                    24033051.555
 106888566.369 8  83289776.84746  20340205.094                    20340214.152
 113213502.055 7  88218337.40245  21543807.102                    21543816.141
 126397125.935 6  98491277.00142  24052588.578                    24052601.590
 11  8 20 18 42 30.0000000  0 10G17G07G28G01G24G26G19G08G11G13
 119342653.910 7  92994307.287 6  22710140.977                    22710150.730
 107125218.862 8  83474291.319 7  20385270.344                    20385278.371
 116279796.332 7  90607697.57644  22127310.648                    22127319.496
 116937876.489 7  91120559.236 7  22252552.219                    22252564.863
 116961966.589 7  91139207.42544  22257110.266                    22257122.121
 122180509.788 6  95205760.20942  23250210.469                    23250221.387
 126398979.798 6  98492726.17043  24052932.711                    24052941.254
 106849109.746 8  83259031.41146  20332696.969                    20332705.297
 113215687.325 7  88220040.23245  21544222.578                    21544231.461
 126508212.573 6  98577837.78042  24073728.484                    24073741.359
 11  8 20 18 43  0.0000000  0 10G17G07G28G01G24G26G19G08G11G13
 119259599.395 7  92929589.538 6  22694335.750                    22694345.234
 107144606.054 8  83489398.206 7  20388959.320                    20388967.641
 116255519.963 7  90588780.96744  22122691.242                    22122699.324
 116891494.927 7  91084417.804 7  22243725.656                    22243738.457
 116922335.747 7  91108326.28044  22249569.453                    22249580.070
 122127651.425 6  95164571.83042  23240151.961                    23240162.773
 126503591.835 6  98574241.95344  24072839.836                    24072849.016
 106810044.266 8  83228590.76846  20325263.109                    20325271.734
 113218447.836 8  88222191.30045  21544748.219                    21544757.105
 126619283.173 6  98664386.08942  24094864.852                    24094877.297
 11  8 20 18 43 30.0000000  0 10G17G07G28G01G24G26G19G08G11G13
 119176839.783 7  92865101.566 6  22678586.977                    22678596.555
 107164470.542 8  83504877.006 8  20392739.914                    20392747.883
 116231289.644 7  90569900.19144  22118080.961                    22118088.586
 116845534.136 7  91048604.255 7  22234980.094                    22234992.340
 116883140.181 7  91077784.31144  22242110.961                    22242121.906
 122075342.791 6  95123811.89742  23230197.234                    23230207.711
 126608292.008 6  98655826.40343  24092763.766                    24092772.813
 106771372.599 8  83198457.00746  20317904.703                    20317912.773
 113221784.221 8  88224791.08845  21545382.867                    21545391.730
 126730334.895 6  98750919.64942  24115997.148                    24116010.020
 11  8 20 18 44  0.0000000  0 10G17G07G28G01G24G26G19G08G11G13
 119094376.252 7  92800844.373 6  22662894.844                    22662904.629
 107184812.752 8  83520728.057 8  20396610.859                    20396619.043
 116207104.655 7  90551054.77644  22113478.313                    22113485.906
 116799996.121 7  91013120.123 7  22226314.188                    22226326.887
 116844382.016 7  91047583.18744  22234735.195                    22234746.375
 122023585.390 6  95083481.50143  23220348.852                    23220358.797
 126713077.876 6  98737477.64844  24112703.039                    24112712.645
 106733096.819 8  83168631.72346  20310620.375                    20310628.785
 113225696.313 8  88227839.47345  21546128.141                    21546136.664
 126841364.711 6  98837436.14342  24137125.977                    24137138.246
 11  8 20 18 44 30.0000000  0 10G17G07G28G01G24G26G19G08G11G13
 119012210.517 7  92736819.190 6  22647257.852                    22647269.352
 107205633.651 8  83536952.118 8  20400572.555                    20400581.379
 116182964.715 7  90532244.45344  22108884.945                    22108892.484
 116754883.844 7  90977967.722 7  22217729.273                    22217742.055
 116806063.920 7  91017724.95944  22227443.969                    22227454.734
 121972380.982 6  95043582.00643  23210604.969                    23210615.883
 126817946.886 6  98819193.66544  24132659.719                    24132669.293
 106695219.514 8  83139116.94546  20303412.328                    20303420.848
 113230184.784 8  88231336.96845  21546981.891                    21546990.727
 126952369.995 6  98923933.50142  24158249.117                    24158261.934
 11  8 20 18 45  0.0000000  0 10G17G07G28G01G24G26G19G08G11G13
 118930343.745 7  92673026.992 7  22631679.227                    22631690.000
 107226933.502 8  83553549.387 8  20404626.070                    20404634.379
 116158868.829 7  90513468.47444  22104298.922                    22104307.613
 116710199.049 7  90943148.451 7  22209226.164                    22209239.063
 116768188.139 7  90988211.39844  22220235.852                    22220247.320
 121921730.894 6  95004114.41743  23200967.328                    23200976.836
 126922896.872 7  98900972.85943  24152630.828                    24152640.188
 106657742.827 8  83109914.32046  20296281.055                    20296289.625
 113235249.899 8  88235283.81745  21547945.750                    21547955.141
 127063347.475 6  99010409.17042  24179367.805                    24179380.547
 11  8 20 18 45 30.0000000  0 10G17G07G28G01G24G26G19G08G11G13
 118848777.536 7  92609468.960 7  22616158.297                    22616169.430
 107248713.084 8  83570520.466 8  20408770.234                    20408779.055
 116134816.847 7  90494726.69144  22099722.070                    22099730.602
 116665944.863 7  90908664.710 7  22200804.852                    22200817.559
 116730757.143 7  90959044.43144  22213113.320                    22213124.340
 121871636.962 6  94965080.23642  23191434.484                    23191444.711
 127027925.014 6  98982812.86744  24172617.063                    24172626.094
 106620669.591 8  83081026.05646  20289226.063                    20289234.898
 113240892.512 8  88239680.67145  21549019.477                    21549028.266
 127174294.666 6  99096861.26543  24200480.148                    24200494.730
 11  8 20 18 46  0.0000000  0 10G17G07G28G01G24G26G19G08G11G13
 118767513.550 7  92546146.424 7  22600695.148                    22600705.359
 107270972.756 8  83587865.639 8  20413006.328                    20413015.039
 116110807.667 7  90476018.23844  22095153.383                    22095161.387
 116622123.295 7  90874518.063 7  22192465.563                    22192478.594
 116693772.873 7  90930225.55244  22206075.086                    22206085.902
 121822100.511 6  94926480.43642  23182006.695                    23182018.238
 127133028.697 7  99064711.75644  24192617.938                    24192626.676
 106584001.665 8  83052453.66746  20282248.344                    20282257.543
 113247112.520 8  88244527.45445  21550202.914                    21550212.238
 127285208.576 6  99183287.50843  24221587.719                    24221601.188
 11  8 20 18 46 30.0000000  0 10G17G07G28G01G24G26G19G08G11G13
 118686552.380 7  92483059.881 7  22585289.242                    22585298.949
 107293713.823 8  83605585.933 7  20417333.984                    20417342.063
 116086841.540 6  90457343.37744  22090592.523                    22090601.543
 116578737.102 7  90840710.697 7  22184209.828                    22184222.461
 116657238.064 7  90901756.91544  22199122.492                    22199134.035
 121773123.445 6  94888316.50643  23172687.750                    23172697.219
 127238206.144 7  99146668.13043  24212632.344                    24212640.801
 106547742.344 8  83024199.65046  20275348.672                    20275357.793
 113253910.651 8  88249824.68145  21551496.813                    21551505.227
 127396087.168 6  99269686.19143  24242686.563                    24242700.828
 11  8 20 18 47  0.0000000  0 10G17G07G28G01G24G26G19G08G11G13
 118605895.692 7  92420210.580 7  22569940.523                    22569950.781
 107316936.221 8  83623681.266 7  20421753.016                    20421761.063
 116062917.483 7  90438701.25044  22086040.305                    22086048.629
 116535788.435 7  90807244.254 7  22176036.969                    22176049.250
 116621154.429 7  90873639.83944  22192256.125                    22192267.508
 121724707.012 6  94850589.47143  23163473.844                    23163484.309
 127343454.988 6  99228680.13643  24232660.320                    24232669.066
 106511893.723 8  82996265.66446  20268527.117                    20268535.770
 113261287.024 8  88255572.51745  21552900.109                    21552908.359
 127506927.024 6  99356054.73243  24263779.461                    24263794.203
 11  8 20 18 47 30.0000000  0 10G17G07G28G01G24G26G19G08G11G13
 118525544.566 7  92357599.384 7  22554649.508                    22554660.820
 107340640.338 8  83642151.986 7  20426263.945                    20426272.004
 116039034.349 6  90420091.05443  22081494.883                    22081503.684
 116493279.469 7  90774120.423 7  22167947.703                    22167960.785
 116585524.235 7  90845876.08244  22185476.148                    22185486.582
 121676852.298 6  94813300.08243  23154367.828                    23154376.586
 127448772.434 7  99310745.61743  24252701.969                    24252710.402
 106476457.376 8  82968652.91646  20261783.422                    20261792.527
 113269241.554 7  88261770.84945  21554413.961                    21554423.332
 127617725.442 6  99442390.95943  24284863.578                    24284878.008
 11  8 20 18 48  0.0000000  0 10G17G07G28G01G24G26G19G08G11G13
 118445500.741 7  92295227.611 7  22539417.938                    22539428.691
 107364827.012 8  83660998.709 7  20430866.508                    20430874.973
 116015192.348 6  90401512.89943  22076959.000                    22076966.215
 116451212.669 7  90741341.142 7  22159942.781                    22159956.020
 116550350.171 7  90818467.78444  22178783.234                    22178793.340
 121629561.179 6  94776449.88343  23145368.336                    23145378.414
 127554156.121 6  99392862.67543  24272756.078                    24272763.559
 106441436.253 8  82941363.73246  20255119.539                    20255128.199
 113277774.812 8  88268420.12845  21556038.555                    21556047.211
 127728479.678 6  99528692.72043  24305939.867                    24305954.102
 11  8 20 18 48 30.0000000  0 10G17G07G28G01G24G26G19G08G11G13
 118365765.314 7  92233096.175 7  22524244.727                    22524255.359
 107389496.838 8  83680221.927 7  20435560.852                    20435569.559
 115991390.819 6  90382966.28843  22072429.133                    22072436.961
 116409590.483 7  90708908.301 7  22152022.422                    22152035.313
 116515634.302 7  90791416.51444  22172176.391                    22172187.566
 121582835.112 6  94740039.99443  23136475.688                    23136486.234
 127659603.924 6  99475029.73443  24292821.891                    24292829.621
 106406832.847 8  82914400.04146  20248534.609                    20248542.984
 113286886.932 8  88275520.48545  21557772.508                    21557781.590
 127839187.257 6  99614958.10743  24327006.602                    24327021.348
 11  8 20 18 49  0.0000000  0 10G17G07G28G01G24G26G19G08G11G13
 118286339.660 7  92171206.126 7  22509130.508                    22509140.246
 107414650.207 8  83699821.924 7  20440347.172                    20440355.750
 115967629.473 6  90364450.99943  22067907.180                    22067915.305
 116368414.737 7  90676823.329 7  22144186.859                    22144200.051
 116481378.786 7  90764723.94444  22165657.531                    22165669.133
 121536675.165 6  94704071.23943  23127692.914                    23127702.371
 127765113.240 6  99557244.76943  24312900.125                    24312908.008
 106372649.146 8  82887763.39346  20242029.391                    20242037.926
 113296577.893 8  88283071.89745  21559616.109                    21559625.156
 127949845.399 6  99701184.92843  24348063.750                    24348079.129
 11  8 20 18 49 30.0000000  0 10G17G07G28G01G24G26G19G08G11G13
 118207225.288 7  92109558.625 7  22494075.617                    22494085.602
 107440287.643 8  83719799.124 8  20445225.906                    20445235.082
 115943907.389 7  90345966.27243  22063393.211                    22063401.105
 116327688.268 7  90645088.455 7  22136436.117                    22136449.020
 116447585.993 7  90738391.94845  22159226.953                    22159238.211
 121491082.960 6  94668544.89343  23119016.914                    23119026.605
 127870682.002 6  99639506.05543  24332988.656                    24332998.020
 106338888.017 8  82861456.00746  20235605.133                    20235613.801
 113306848.259 8  88291074.77445  21561570.625                    21561579.418
 128060450.968 6  99787370.76643  24369112.320                    24369126.441
 11  8 20 18 50  0.0000000  0 10G17G07G28G01G24G26G19G08G11G13
 118128422.761 7  92048154.115 7  22479079.633                    22479089.379
 107466409.603 8  83740153.875 8  20450196.734                    20450205.508
 115920224.252 6  90327511.92243  22058886.188                    22058894.418
 116287413.405 7  90613705.496 7  22128772.555                    22128785.172
 116414257.855 7  90712421.94145  22152885.641                    22152896.375
 121446059.727 6  94633461.88543  23110449.070                    23110459.023
 127976307.400 6  99721811.50943  24353089.000                    24353097.750
 106305551.250 8  82835479.30746  20229261.703                    20229269.797
 113317697.743 8  88299528.91245  21563634.992                    21563643.527
 128171001.443 6  99873513.77543  24390150.172                    24390163.473
 11  8 20 18 50 30.0000000  0 10G17G07G28G01G24G26G19G08G11G13
 118049933.722 7  91986993.879 7  22464142.469                    22464153.664
 107493015.897 8  83760886.038 8  20455260.133                    20455269.031
 115896579.274 6  90309087.22444  22054387.281                    22054395.328
 116247591.772 7  90582675.686 7  22121194.453                    22121207.199
 116381396.383 7  90686815.62944  22146632.180                    22146643.180
 121401606.611 6  94598823.12843  23101990.125                    23102000.230
 128081986.967 6  99804159.14643  24373198.570                    24373208.063
 106272641.148 8  82809835.06246  20222998.734                    20223007.953
 113329126.647 8  88308434.55845  21565809.914                    21565818.566
 128281493.861 6  99959611.51443  24411175.508                    24411189.555
 11  8 20 18 51  0.0000000  0 10G17G07G28G01G24G26G19G08G11G13
 117971759.033 7  91926078.637 7  22449266.750                    22449276.520
 107520107.063 8  83781996.011 8  20460415.352                    20460424.000
 115872971.907 7  90290691.87544  22049894.039                    22049902.594
 116208225.725 8  90552000.903 7  22113703.758                    22113715.977
 116349003.611 7  90661574.53545  22140468.188                    22140479.090
 121357724.817 6  94564629.55843  23093640.383                    23093649.922
 128187718.834 6  99886547.53043  24393318.664                    24393328.488
 106240159.951 8  82784525.05046  20216817.633                    20216826.879
 113341134.643 8  88317791.43545  21568095.063                    21568103.617
 128391925.606 6 100045662.05043  24432189.375                    24432204.648
 11  8 20 18 51 30.0000000  0 10G17G07G28G01G24G26G19G08G11G13
 117893900.486 7  91865409.701 7  22434451.250                    22434461.227
 107547683.889 8  83803484.423 7  20465662.906                    20465670.840
 115849401.985 7  90272325.71543  22045409.305                    22045418.012
 116169317.890 8  90521683.134 7  22106300.023                    22106311.828
 116317081.632 7  90636700.31645  22134392.719                    22134404.051
 121314415.813 7  94530882.32443  23085398.141                    23085408.668
 128293500.581 6  99968974.78043  24413448.672                    24413458.582
 106208110.136 8  82759551.18846  20210718.805                    20210727.832
 113353721.992 8  88327599.78945  21570490.344                    21570499.211
 128502294.069 6 100131663.18942  24453193.227                    24453207.574
 11  8 20 18 52  0.0000000  0 10G17G07G28G01G24G26G19G08G11G13
 117816359.533 7  91804988.254 7  22419695.820                    22419705.680
 107575746.697 8  83825351.512 8  20471002.867                    20471011.680
 115825868.760 7  90253988.14544  22040931.227                    22040939.043
 116130870.127 7  90491723.886 7  22098982.906                    22098995.320
 116285632.606 7  90612194.63244  22128407.891                    22128419.469
 121271680.672 7  94497582.25344  23077266.680                    23077276.441
 128399329.747 6 100051439.03543  24433588.000                    24433597.848
 106176493.853 8  82734915.13046  20204702.273                    20204711.426
 113366888.634 8  88337859.49945  21572995.859                    21573004.582
 128612596.297 6 100217612.72342  24474183.484                    24474197.594
 11  8 20 18 52 30.0000000  0 10G17G07G28G01G24G26G19G08G11G13
 117739136.699 8  91744814.679 7  22405000.656                    22405010.750
 107604295.526 8  83847597.336 7  20476435.563                    20476444.566
 115802371.979 7  90235678.95144  22036458.859                    22036468.363
 116092884.960 7  90462125.078 7  22091754.438                    22091767.430
 116254658.646 7  90588059.09844  22122513.383                    22122524.734
 121229520.593 6  94464730.29843  23069243.227                    23069253.633
 128505203.997 6 100133938.36843  24453734.828                    24453745.547
 106145313.412 8  82710618.69746  20198769.008                    20198777.918
 113380634.629 8  88348570.67045  21575611.375                    21575620.699
 128722829.640 6 100303508.72042  24495159.930                    24495174.699
 11  8 20 18 53  0.0000000  0 10G17G07G28G01G24G26G19G08G11G13
 117662233.219 8  91684889.947 7  22390366.414                    22390376.105
 107633331.007 8  83870222.358 8  20481961.477                    20481969.609
 115778911.039 7  90217397.69244  22031995.656                    22032003.715
 116055364.329 7  90432888.261 7  22084614.398                    22084628.074
 116224161.910 7  90564295.43944  22116711.063                    22116721.332
 121187937.116 6  94432327.62843  23061329.648                    23061340.902
 128611121.104 6 100216471.09543  24473889.977                    24473900.484
 106114571.194 8  82686663.70646  20192919.000                    20192928.191
 113394960.016 8  88359733.31145  21578337.438                    21578345.227
 128832991.796 6                  24516122.367
 11  8 20 18 53 30.0000000  0 10G17G07G28G01G24G26G19G08G11G13
 117585650.473 7  91625215.120 7  22375793.133                    22375802.539
 107662853.216 8  83893226.658 7  20487579.203                    20487587.738
 115755485.707 7  90199144.18144  22027537.898                    22027545.551
 116018310.274 7  90404014.973 7  22077563.477                    22077577.105
 116194144.383 7  90540905.18644  22110999.000                    22111009.473
 121146931.155 7  94400374.94943  23053527.141                    23053537.621
 128717078.676 6 100299035.38543  24494053.078                    24494062.926
 106084269.594 8  82663052.05846  20187152.836                    20187161.324
 113409864.660 8  88371347.34345  21581173.664                    21581181.883
 128943079.994 6                  24537072.875
 11  8 20 18 54  0.0000000  0 10G17G07G28G01G24G26G19G08G11G13
 117509389.930 7  91565791.319 7  22361281.836                    22361290.586
 107692862.850 8  83916610.764 7  20493289.641                    20493298.469
 115732095.406 7  90180917.98144  22023086.609                    22023094.805
 115981725.616 7  90375507.469 7  22070602.016                    22070614.871
 116164608.007 7  90517889.87444  22105377.930                    22105389.273
 121106504.049 7  94368873.30943  23045833.898                    23045844.031
 128823074.788 6 100381629.67643  24514223.617                    24514233.227
 106054410.945 8  82639785.57846  20181471.023                    20181479.488
 113425348.959 8  88383413.02045  21584120.000                    21584128.660
 129053091.486 6                  24558007.039
 11  8 20 18 54 30.0000000  0 10G17G07G28G01G24G26G19G08G11G13
 117433452.157 7  91506619.113 7  22346830.539                    22346840.180
 107723359.540 8  83940374.399 8  20499092.875                    20499101.973
 115708739.460 7  90162718.53445  22018642.125                    22018649.867
 115945611.258 7  90347366.451 7  22063728.992                    22063742.660
 116135554.452 7  90495250.78745  22099849.039                    22099859.805
 121066656.484 6  94337823.25143  23038251.258                    23038260.898
 128929106.903 6 100464252.03143  24534400.875                    24534411.008
 106024996.700 8  82616865.37646  20175873.555                    20175882.313
 113441412.041 8  88395929.70145  21587176.813                    21587185.563
 129163023.570 6                  24578926.203
 11  8 20 18 55  0.0000000  0 10G17G07G28G01G24G26G19G08G11G13
 117357838.649 7  91447699.544 7  22332442.219                    22332451.805
 107754343.777 8  83964517.962 7  20504989.281                    20504997.938
 115685417.638 7  90144545.70145  22014204.289                    22014212.051
 115909970.134 7  90319594.169 7  22056947.430                    22056960.148
 116106986.031 7  90472989.71745  22094413.680                    22094424.355
 121027389.758 6  94307225.82443  23030778.859                    23030788.488
 129035172.706 6 100546900.62143  24554584.992                    24554594.949
 105996029.523 8  82594293.53546  20170361.422                    20170369.973
 113458054.041 7  88408897.50045  21590343.484                    21590352.805
 129272873.231 6                  24599831.711
 11  8 20 18 55 30.0000000  0 10G17G07G28G01G24G26G19G08G11G13
 117282550.324 7  91389033.410 7  22318115.367                    22318125.145
 107785815.852 8  83989041.627 7  20510978.133                    20510986.582
 115662129.610 7  90126399.20144  22009772.352                    22009780.590
 115874804.026 7  90292192.034 7  22050255.383                    22050268.625
 116078904.743 7  90451108.19445  22089069.477                    22089080.250
 120988704.827 6  94277081.75343  23023416.781                    23023426.934
 129141270.006 6 100629573.77843  24574774.063                    24574783.789
 105967511.569 8  82572071.74946  20164934.406                    20164943.031
 113475274.874 8  88422316.33045  21593621.172                    21593629.496
 129382638.252 6                  24620717.242
 11  8 20 18 56  0.0000000  0 10G17G07G28G01G24G26G19G08G11G13
 117207588.634 8  91330621.775 7  22303850.148                    22303860.234
 107817776.252 8  84013945.793 7  20517059.797                    20517068.500
 115638874.887 7  90108278.67445  22005347.633                    22005355.605
 115840115.256 7  90265161.874 7  22043654.180                    22043667.164
 116051312.686 7  90429607.94245  22083819.016                    22083830.129
 120950603.216 6  94247392.16143  23016166.688                    23016176.223
 129247396.452 6 100712269.68643  24594969.375                    24594979.316
 105939445.485 8  82550202.05546  20159593.984                    20159602.691
 113493074.312 7  88436186.01845  21597008.016                    21597017.301
 129492316.146 6                  24641589.266
 11  8 20 18 56 30.0000000  0 10G17G07G28G01G24G26G19G08G11G13
 117132954.569 8  91272465.425 7  22289647.984                    22289657.969
 107850224.949 8  84039230.476 7  20523235.180                    20523244.430
 115615652.953 7  90090183.66145  22000928.273                    22000936.074
 115805905.561 7  90238504.981 7  22037144.352                    22037157.203
 116024211.451 7  90408490.11445  22078661.055                    22078672.586
 120913085.518 6  94218157.64343  23009026.398                    23009037.539
 129353550.064 6 100794986.66543  24615169.953                    24615179.211
 105911832.910 8  82528685.76546  20154339.086                    20154347.750
 113511451.968 8  88450506.24445  21600505.500                    21600513.707
 129601903.632 6                  24662443.148
 11  8 20 18 57  0.0000000  0  9G17G07G28G01G24G26G19G08G11
 117058650.275 7  91214566.019 7  22275508.086                    22275517.871
 107883163.007 8  84064896.458 8  20529502.859                    20529511.535
 115592464.378 7  90072114.68845  21996515.758                    21996523.676
 115772178.207 7  90212223.956 7  22030726.109                    22030738.363
 115997604.132 7  90387757.15645  22073598.063                    22073608.973
 120876153.688 6  94189379.53542  23001999.609                    23002008.867
 129459729.534 6 100877723.92343  24635374.820                    24635385.594
 105884677.400 8  82507525.62346  20149171.266                    20149180.332
 113530408.482 8  88465277.55845  21604112.906                    21604121.289
 11  8 20 18 57 30.0000000  0  9G17G07G28G01G24G26G19G08G11
 116984675.822 7  91156923.641 7  22261431.094                    22261440.605
 107916589.513 8  84090943.049 7  20535863.320                    20535872.363
 115569308.039 7  90054070.81245  21992108.961                    21992117.133
 115738934.070 7  90186319.469 7  22024399.922                    22024412.391
 115971491.359 7  90367409.58845  22068629.133                    22068639.727
 120839807.850 6  94161058.11942  22995081.945                    22995092.602
 129565931.860 6 100960478.93942  24655584.609                    24655595.410
 105857980.254 8  82486722.65046  20144091.172                    20144100.145
 113549942.953 8  88480499.24745  21607829.922                    21607838.516
 11  8 20 18 58  0.0000000  0  9G17G07G28G01G24G26G19G08G11
 116911031.884 8  91099538.817 7  22247417.336                    22247426.480
 107950504.681 8  84117370.432 7  20542317.813                    20542326.391
 115546183.376 7  90036051.60445  21987708.523                    21987716.688
 115706175.072 7  90160792.995 7  22018165.867                    22018178.211
 115945874.999 7  90347448.77344  22063754.922                    22063765.500
 120804048.796 6  94133193.90943  22988278.398                    22988287.934
 129672154.812 6 101043250.03042  24675798.719                    24675808.820
 105831743.428 8  82466278.37646  20139098.641                    20139107.367
 113570055.115 8  88496171.05645  21611657.023                    21611664.953
 11  8 20 18 58 30.0000000  0  9G17G07G28G01G24G26G19G08G11
 116837719.930 8  91042412.677 7  22233466.203                    22233475.938
 107984908.705 8  84144178.735 7  20548864.680                    20548872.738
 115523089.661 7  90018056.53445  21983313.844                    21983321.703
 115673903.290 7  90135646.154 7  22012024.898                    22012037.887
 115920756.757 7  90327876.17444  22058974.789                    22058985.609
 120768877.380 6  94105787.61343  22981586.086                    22981595.469
 129778395.845 6 101126035.16242  24696015.984                    24696025.855
 105805969.025 8  82446194.41846  20134193.828                    20134202.930
 113590744.324 7  88512292.53345  21615593.469                    21615602.441
 11  8 20 18 59  0.0000000  0  9G17G07G28G01G24G26G19G08G11
 116764740.828 8  90985545.914 7  22219579.578                    22219588.461
 108019801.557 8  84171367.942 7  20555504.586                    20555512.504
 115500027.062 7  90000085.70845  21978925.383                    21978933.180
 115642120.611 7  90110880.448 7  22005976.359                    22005989.664
 115896138.554 7  90308693.17845  22054290.063                    22054300.977
 120734294.585 6  94078840.03143  22975004.648                    22975014.371
 129884653.022 6 101208832.91742  24716236.172                    24716245.695
 105780659.168 8  82426472.44646  20129377.844                    20129386.824
 113612010.231 8  88528863.35345  21619640.992                    21619649.844
 11  8 20 18 59 30.0000000  0  9G17G07G28G01G24G26G19G08G11
 116692095.790 8  90928939.439 7  22205754.750                    22205763.910
 108055183.189 8  84198938.030 7  20562236.977                    20562245.758
 115476994.911 7  89982138.60245  21974542.422                    21974550.578
 115610828.933 7  90086497.337 7  22000022.281                    22000035.406
 115872022.104 7  90289901.14645  22049700.813                    22049711.645
 120700301.092 6  94052351.58643  22968535.727                    22968545.691
 129990923.891 6 101291641.38342  24736459.203                    24736469.074
 105755815.891 8  82407114.04346  20124650.305                    20124658.801
 113633852.615 8  88545883.39245  21623797.609                    21623806.293
 11  8 20 19  0  0.0000000  0  9G17G07G28G01G24G26G19G08G11
 116619785.477 7  90872593.763 7  22191994.141                    22192003.863
 108091053.534 8  84226888.915 7  20569062.750                    20569072.027
 115453992.550 7  89964214.72645  21970164.781                    21970173.305
 115580029.788 7  90062498.043 7  21994161.414                    21994173.750
 115848408.876 7  90271501.21745  22045207.523                    22045219.016
 120666897.669 6  94026322.96443  22962178.852                    22962189.129
 130097206.363 6 101374458.77642  24756683.602                    24756692.922
 105731441.009 8  82388120.63346  20120011.727                    20120020.715
 113656270.873 8  88563352.16745  21628063.758                    21628072.047
 11  8 20 19  0 30.0000000  0  9G17G07G28G01G24G26G19G08G11
 116547811.165 7  90816509.909 7  22178298.297                    22178308.082
 108127413.367 8  84255221.221 7  20575981.852                    20575990.391
 115431020.324 7  89946314.31945  21965793.852                    21965802.129
 115549725.778 7  90038884.560 7  21988393.797                    21988406.965
 115825301.172 7  90253495.22845  22040809.914                    22040820.684
 120634085.312 6  94000754.96643  22955934.063                    22955945.254
 130203498.490 6 101457283.72842  24776910.297                    24776919.742
 105707537.080 8  82369494.20646  20115462.953                    20115471.738
 113679264.792 8  88581269.47945  21632438.867                    21632447.734
 11  8 20 19  1  0.0000000  0  9G17G07G28G01G24G26G19G08G11
 116476173.410 7  90760688.329 7  22164666.344                    22164675.527
 108164261.552 8  84283934.065 7  20582993.992                    20583002.559
 115408077.316 7  89928436.66745  21961427.586                    21961436.039
 115519917.726 7  90015657.542 7  21982722.516                    21982735.145
 115802700.209 7  90235884.10745  22036508.938                    22036519.441
 120601864.635 6  93975647.97743  22949803.164                    22949814.012
 130309797.822 6 101540114.32642  24797138.453                    24797147.898
 105684105.520 8  82351235.83746  20111004.188                    20111013.273
 113702833.654 8  88599634.81645  21636923.664                    21636932.926
 11  8 20 19  1 30.0000000  0  8G17G07G28G01G24G26G08G11
 116404873.960 8  90705130.380 7  22151098.773                    22151108.102
 108201599.306 8  84313028.401 7  20590099.648                    20590108.262
 115385163.775 7  89910581.98045  21957067.469                    21957075.969
 115490608.856 7  89992819.487 7  21977145.016                    21977157.859
 115780608.485 7  90218669.83345  22032305.461                    22032315.477
 120570237.076 6  93951003.14343  22943785.102                    22943795.336
 105661149.473 8  82333347.99546  20106635.734                    20106644.758
 113726977.798 8  88618448.42445  21641518.672                    21641527.516
 11  8 20 19  2  0.0000000  0  8G17G07G28G01G24G26G08G11
 116333913.777 8  90649836.810 7  22137595.258                    22137604.887
 108239426.259 8  84342503.919 7  20597297.844                    20597306.293
 115362279.568 7  89892750.15745  21952712.594                    21952720.953
 115461800.511 7  89970371.457 7  21971663.266                    21971675.930
 115759027.390 7  90201853.40845  22028198.328                    22028209.211
 120539203.109 6  93926820.85443  22937879.445                    22937890.246
 105638671.144 8  82315832.41746  20102358.227                    20102366.961
 113751696.486 8  88637709.73445  21646222.055                    21646230.758
 11  8 20 19  2 30.0000000  0  8G17G07G28G01G24G26G08G11
 116263293.739 7  90594808.253 7  22124156.188                    22124166.121
 108277742.318 8  84372360.550 7  20604588.805                    20604597.387
 115339423.965 7  89874940.59844  21948363.531                    21948371.625
 115433494.141 8  89948314.548 7  21966276.844                    21966289.285
 115737958.359 7  90185436.01745  22024188.734                    22024199.852
 120508763.096 6  93903101.38543  22932087.531                    22932097.414
 105616672.044 8  82298690.26446  20098171.391                    20098180.930
 113776988.762 8  88657418.00345  21651035.453                    21651043.648
 11  8 20 19  3  0.0000000  0  8G17G07G28G01G24G26G08G11
 116193014.429 7  90540045.201 7  22110781.813                    22110792.152
 108316547.178 8  84402598.075 7  20611972.922                    20611981.613
 115316596.627 6  89857153.06644  21944018.938                    21944027.945
 115405691.695 7  89926650.318 7  21960986.063                    21960998.449
 115717403.089 7  90169418.96445  22020277.289                    22020288.906
 120478917.648 7  93879845.19643  22926407.648                    22926418.141
 105595154.075 8  82281923.01346  20094077.148                    20094086.156
 113802853.902 8  88677572.66545  21655957.172                    21655965.309
 11  8 20 19  3 30.0000000  0  8G17G07G28G01G24G26G08G11
 116123076.510 7  90485548.182 7  22097472.867                    22097483.094
 108355840.507 8  84433216.225 7  20619450.453                    20619459.113
 115293796.628 6  89839386.82844  21939680.719                    21939689.449
 115378394.556 7  89905379.849 7  21955791.266                    21955803.789
 115697362.755 7  90153803.17245  22016464.219                    22016475.117
 120449667.247 7  93857052.69543  22920841.008                    22920851.781
 105574118.774 8  82265531.86146  20090074.039                    20090083.344
 113829291.214 8  88698173.15345  21660987.906                    21660997.020
 11  8 20 19  4  0.0000000  0  8G17G07G28G01G24G26G08G11
 116053481.159 7  90431318.078 7  22084229.078                    22084239.598
 108395622.203 8  84464214.913 7  20627020.727                    20627029.570
 115271024.083 6  89821642.02144  21935346.695                    21935355.445
 115351604.593 7  89884504.584 7  21950693.430                    21950705.449
 115677839.020 7  90138589.87945  22012748.695                    22012759.668
 120421012.491 6  93834724.32443  22915387.805                    22915398.820
 105553568.345 8  82249518.54046  20086163.719                    20086172.750
 113856300.242 8  88719219.14345  21666128.141                    21666136.676
 11  8 20 19  4 30.0000000  0  8G17G07G28G01G24G26G08G11
 115984229.424 8  90377355.742 7  22071051.602                    22071061.516
 108435892.089 8  84495593.961 7  20634684.094                    20634692.625
 115248278.812 7  89803918.43244  21931018.117                    21931027.605
 115325323.287 7  89864025.692 7  21945691.414                    21945705.309
 115658833.593 7  90123780.47745  22009132.492                    22009143.168
 120392953.993 7  93812860.56944  22910048.664                    22910060.004
 105533504.932 8  82233884.70946  20082345.578                    20082354.266
 113883880.467 8  88740710.22945  21671376.227                    21671384.961
 11  8 20 19  5  0.0000000  0  8G17G07G28G01G24G26G08G11
 115915321.414 8  90323661.226 7  22057939.578                    22057949.250
 108476649.863 8  84527353.279 7  20642440.336                    20642448.004
 115225560.141 6  89786215.59944  21926695.141                    21926704.023
 115299552.571 7  89843944.627 7  21940787.578                    21940800.883
 115640347.599 7  90109375.85645  22005614.461                    22005625.055
 120365492.168 6  93791461.73043  22904822.578                    22904834.145
 105513929.890 8  82218631.43246  20078620.641                    20078629.609
 113912031.022 7  88762645.71945  21676732.969                    21676741.852
 11  8 20 19  5 30.0000000  0  8G17G07G28G01G24G26G08G11
 115846759.256 8  90270236.219 7  22044892.250                    22044901.324
 108517896.101 8  84559493.152 7  20650288.602                    20650297.523
 115202868.665 6  89768533.96644  21922377.711                    21922385.969
 115274294.622 7  89824263.155 7  21935981.430                    21935994.395
 115622383.089 7  90095377.56645  22002195.539                    22002206.422
 120338628.060 6  93770528.70343  22899710.734                    22899721.945
 105494846.362 8  82203761.14046  20074988.984                    20074998.082
 113940751.660 7  88785025.44445  21682198.008                    21682207.465
 11  8 20 19  6  0.0000000  0  8G17G07G28G01G24G26G08G11
 115778543.277 8  90217080.947 7  22031911.297                    22031920.695
 108559630.645 8  84592013.517 7  20658230.805                    20658239.363
 115180203.860 7  89750873.05744  21918064.570                    21918072.914
 115249550.979 7  89804982.414 7  21931273.195                    21931285.809
 115604941.754 7  90081786.94345  21998876.656                    21998887.973
 120312362.233 7  93750061.85943  22894713.242                    22894723.340
 105476256.293 8  82189275.37646  20071451.789                    20071460.344
 113970041.893 7  88807848.98545  21687771.680                    21687780.410
 11  8 20 19  6 30.0000000  0  8G17G07G28G01G24G26G08G11
 115710674.425 8  90164196.189 7  22018996.188                    22019005.387
 108601852.868 8  84624913.903 7  20666264.961                    20666274.406
 115157565.407 6  89733232.70544  21913756.828                    21913764.754
 115225322.765 7  89786103.321 7  21926662.852                    21926675.605
 115588024.770 7  90068604.91345  21995657.773                    21995668.789
 120286694.852 7  93730061.29344  22889828.406                    22889839.188
 105458161.134 8  82175175.23146  20068008.109                    20068016.898
 113999900.546 8  88831115.44745  21693453.922                    21693462.680
 11  8 20 19  7  0.0000000  0  8G17G07G28G01G24G26G08G11
 115643153.403 8  90111582.466 7  22006147.242                    22006156.020
 108644562.799 8  84658194.356 7  20674392.672                    20674401.680
 115134952.717 7  89715612.44444  21909453.781                    21909461.570
 115201611.930 7  89767627.354 7  21922150.820                    21922163.434
 115571633.574 7  90055832.58345  21992538.742                    21992549.109
 120261626.387 7  93710527.45144  22885058.297                    22885068.945
 105440562.780 8  82161462.21746  20064659.609                    20064668.059
 114030327.067 7  88854824.42445  21699243.398                    21699251.836
 11  8 20 19  7 30.0000000  0  8G17G07G28G01G24G26G08G11
 115575981.064 8  90059240.446 7  21993364.125                    21993374.203
 108687759.844 8  84691854.380 7  20682613.031                    20682621.227
 115112365.701 7  89698012.18544  21905155.555                    21905163.570
 115178420.125 7  89749555.831 7  21917736.773                    21917749.293
 115555769.563 7  90043471.05745  21989519.430                    21989530.465
 120237157.304 7  93691460.63944  22880402.078                    22880413.395
 105423463.191 8  82148137.87146  20061405.484                    20061414.363
 114061320.441 7  88878975.13445  21705140.984                    21705150.746
 11  8 20 19  8  0.0000000  0  8G17G07G28G01G24G26G08G11
 115509158.396 8  90007170.882 7  21980648.148                    21980658.332
 108731444.163 8  84725894.104 7  20690925.516                    20690934.648
 115089804.820 7  89680432.27744  21900862.484                    21900870.461
 115155748.902 7  89731889.980 7  21913422.719                    21913435.797
 115540434.556 7  90031521.70545  21986601.688                    21986612.051
 120213288.082 7  93672861.26544  22875860.023                    22875870.227
 105406864.507 8  82135203.82746  20058246.344                    20058255.895
 114092880.123 7  88903567.07645  21711147.211                    21711156.031
 11  8 20 19  8 30.0000000  0  8G17G07G28G01G24G26G08G11
 115442686.325 8  89955374.476 7  21968000.000                    21968009.629
 108775615.180 8  84760313.045 7  20699331.070                    20699340.223
 115067269.594 7  89662872.36944  21896574.219                    21896582.363
 115133599.513 7  89714630.764 7  21909208.320                    21909220.793
 115525629.603 7  90019985.39145  21983783.648                    21983795.223
 120190018.983 7  93654729.49244  22871431.922                    22871442.785
 105390768.504 8  82122661.47546  20055184.031                    20055193.004
 114125005.335 7  88928599.69645  21717260.367                    21717269.496
 11  8 20 19  9  0.0000000  0  8G17G07G28G01G24G26G08G11
 115376564.825 7  89903851.292 7  21955416.664                    21955426.500
 108820272.307 8  84795110.780 7  20707828.766                    20707838.059
 115044759.303 7  89645331.88045  21892290.508                    21892298.910
 115111973.610 7  89697779.415 7  21905093.352                    21905105.324
 115511355.871 7  90008863.00945  21981067.992                    21981079.328
 120167350.080 7  93637065.42544  22867117.367                    22867128.473
 105375176.416 8  82110511.78946  20052216.781                    20052225.496
 114157694.838 7  88954072.03445  21723481.117                    21723489.617
 11  8 20 19  9 30.0000000  0  8G17G07G28G01G24G26G08G11
 115310795.190 7  89852602.253 7  21942901.094                    21942910.770
 108865415.592 8  84830287.319 7  20716419.836                    20716428.609
 115022274.001 7  89627810.88045  21888011.359                    21888019.613
 115090872.583 7  89681337.096 7  21901077.500                    21901089.582
 115497614.696 7  89998155.60945  21978452.938                    21978464.066
 120145281.822 7  93619869.35844  22862918.570                    22862928.926
 105360090.403 8  82098756.44946  20049346.234                    20049354.828
 114190948.047 7  88979983.62145  21729809.234                    21729817.313
 11  8 20 19 10  0.0000000  0  8G17G07G28G01G24G26G08G11
 115245377.884 7  89801627.776 7  21930452.281                    21930462.109
 108911044.452 8  84865842.225 7  20725102.859                    20725111.531
 114999813.070 7  89610308.87045  21883737.539                    21883745.891
 115070297.598 7  89665304.659 7  21897162.156                    21897174.977
 115484407.039 7  89987863.96645  21975940.148                    21975950.254
 120123814.192 7  93603141.34544  22858832.625                    22858843.863
 105345511.787 8  82087396.47946  20046572.086                    20046580.234
 114224763.697 7  89006333.47345  21736244.289                    21736252.816
 11  8 20 19 10 30.0000000  0  8G17G07G28G01G24G26G08G11
 115180314.118 8  89750928.778 7  21918071.383                    21918080.555
 108957158.253 8  84901775.013 7  20733877.695                    20733887.020
 114977376.655 7  89592825.95945  21879467.508                    21879475.957
 115050250.461 7  89649683.524 7  21893347.320                    21893360.289
 115471734.586 7  89977989.35945  21973528.227                    21973538.965
 120102947.651 7  93586881.66944  22854862.641                    22854873.148
 105331442.863 8  82076433.65946  20043894.313                    20043903.238
 114259140.993 7  89033120.99145  21742785.453                    21742794.477
 11  8 20 19 11  0.0000000  0  8G17G07G28G01G24G26G08G11
 115115604.191 7  89700505.535 7  21905757.008                    21905766.902
 109003756.890 8  84938085.598 7  20742745.461                    20742753.891
 114954964.564 7  89575361.99345  21875202.719                    21875211.293
 115030732.676 7  89634474.888 8  21889633.180                    21889646.750
 115459598.508 7  89968532.67645  21971218.867                    21971229.332
 120082682.547 7  93571090.67744  22851006.164                    22851016.590
 105317885.243 8  82065869.25246  20041314.586                    20041323.527
 114294078.958 7  89060345.38145  21749434.219                    21749442.563
 11  8 20 19 11 30.0000000  0  8G17G07G28G01G24G26G08G11
 115051249.018 8  89650358.678 7  21893511.016                    21893520.750
 109050839.794 8  84974773.550 7  20751705.109                    20751713.520
 114932576.633 7  89557916.86545  21870942.953                    21870950.656
 115011745.497 7  89619679.702 7  21886019.961                    21886033.191
 115448000.114 7  89959494.97445  21969011.430                    21969022.031
 120063018.759 7  93555768.23844  22847264.313                    22847274.441
 105304840.691 8  82055704.68446  20038832.648                    20038841.555
 114329576.665 7  89088005.91945  21756189.164                    21756197.738
 11  8 20 19 12  0.0000000  0  8G17G07G28G01G24G26G08G11
 114987249.409 8  89600488.894 7  21881332.047                    21881341.961
 109098406.902 8  85011838.801 7  20760756.914                    20760765.797
 114910213.042 8  89540490.68745  21866687.305                    21866695.320
 114993289.988 7  89605298.794 7  21882507.922                    21882520.402
 115436940.554 7  89950877.15645  21966907.234                    21966917.746
 120043956.718 7  93540914.71844  22843637.227                    22843647.738
 105292310.983 8  82045941.26246  20036448.000                    20036456.418
 114365633.140 7  89116101.86545  21763050.352                    21763059.852
 11  8 20 19 12 30.0000000  0  8G17G07G28G01G24G26G08G11
 114923605.540 7  89550896.286 7  21869221.859                    21869230.891
 109146457.396 8  85049280.702 7  20769900.180                    20769909.043
 114887872.901 8  89523082.80145  21862435.742                    21862444.281
 114975367.734 7  89591333.416 7  21879097.258                    21879109.746
 115426420.778 7  89942679.93645  21964905.516                    21964916.105
 120025496.444 7  93526530.08944  22840124.023                    22840134.656
 105280297.585 8  82036580.17546  20034162.203                    20034170.738
 114402247.262 8  89144632.36845  21770018.383                    21770026.918
 11  8 20 19 13  0.0000000  0  8G17G07G28G01G24G26G08G11
 114860318.975 8  89501582.142 7  21857178.414                    21857187.809
 109194991.357 8  85087099.320 7  20779136.430                    20779145.273
 114865557.213 8  89505693.95345  21858189.430                    21858197.457
 114957980.825 7  89577785.214 7  21875788.852                    21875801.695
 115416442.852 7  89934904.96045  21963006.305                    21963016.992
 120007638.513 7  93512614.82544  22836726.180                    22836736.324
 105268803.403 8  82027623.66546  20031974.555                    20031983.418
 114439418.656 8  89173597.07945  21777091.508                    21777099.883
 11  8 20 19 13 30.0000000  0  8G17G07G28G01G24G26G08G11
 114797389.995 8  89452546.631 7  21845203.047                    21845212.902
 109244007.875 8  85125293.953 7  20788463.680                    20788472.566
 114843265.418 8  89488323.70945  21853947.711                    21853955.496
 114941130.048 8  89564654.768 7  21872582.266                    21872595.121
 115407007.398 7  89927552.65045  21961210.961                    21961221.672
 119990382.699 7  93499168.76744  22833442.055                    22833452.605
 105257829.383 8  82019072.46446  20029886.648                    20029895.492
 114477145.744 8  89202994.80345  21784271.289                    21784279.504
 11  8 20 19 14  0.0000000  0  8G17G07G28G01G24G26G08G11
 114734818.725 7  89403789.836 7  21833296.305                    21833305.922
 109293506.257 8  85163864.099 7  20797883.313                    20797892.035
 114820996.666 8  89470971.40945  21849709.836                    21849717.734
 114924815.974 8  89551942.532 7  21869477.953                    21869490.742
 115398115.057 7  89920623.60345  21959518.703                    21959529.676
 119973728.420 7  93486191.41844  22830272.852                    22830282.531
 105247376.452 8  82010927.31646  20027897.383                    20027906.375
 114515427.203 8  89232824.46945  21791555.438                    21791564.254
 11  8 20 19 14 30.0000000  0  8G17G07G28G01G24G26G08G11
 114672606.004 8  89355312.433 7  21821457.813                    21821467.125
 109343486.193 8  85202809.464 7  20807393.406                    20807403.051
 114798751.290 8  89453637.38945  21845476.844                    21845484.836
 114909040.408 8  89539649.898 7  21866476.109                    21866488.340
 115389767.097 7  89914118.69545  21957930.367                    21957940.152
 119957676.276 7  93473683.23244  22827217.844                    22827228.637
 105237446.824 8  82003189.92646  20026007.750                    20026017.016
 114554262.264 7  89263085.55345  21798944.797                    21798954.445
 11  8 20 19 15  0.0000000  0  8G17G07G28G01G24G26G08G11
 114610752.767 8  89307115.165 7  21809687.414                    21809696.906
 109393947.150 8  85242129.662 7  20816996.156                    20817005.586
 114776529.371 8  89436321.59545  21841248.047                    21841256.008
 114893804.779 7  89527778.011 7  21863576.781                    21863588.949
 115381964.850 7  89908039.03345  21956445.711                    21956456.297
 119942226.424 7  93461644.37744  22824277.844                    22824287.711
 105228042.362 8  81995861.75446  20024218.094                    20024227.477
 114593649.638 7  89293777.00645  21806440.117                    21806449.738
 11  8 20 19 15 30.0000000  0  8G17G07G28G01G24G26G08G11
 114549260.013 7  89259198.787 7  21797985.430                    21797995.309
 109444888.924 8  85281824.485 7  20826690.219                    20826698.750
 114754331.341 8  89419024.41645  21837024.000                    21837032.125
 114879110.618 7  89516328.020 7  21860780.180                    21860792.734
 115374709.579 7  89902385.59645  21955064.344                    21955075.578
 119927379.064 7  93450075.02644  22821453.031                    22821463.230
 105219165.126 8  81988944.42546  20022528.633                    20022537.992
 114633588.589 7  89324898.22845  21814040.617                    21814049.805
 11  8 20 19 16  0.0000000  0  8G17G07G28G01G24G26G08G11
 114488127.840 8  89211563.387 7  21786352.414                    21786361.965
 109496310.691 8  85321893.342 7  20836475.609                    20836484.516
 114732156.563 7  89401745.36945  21832804.266                    21832812.707
 114864958.700 8  89505300.559 7  21858087.750                    21858099.629
 115368002.113 7  89897158.99845  21953788.141                    21953799.313
 119913133.445 7  93438974.55844  22818742.625                    22818752.117
 105210816.069 8  81982438.65046  20020940.141                    20020949.090
 114674077.553 7  89356448.05845  21821745.422                    21821754.773
 11  8 20 19 16 30.0000000  0  8G17G07G28G01G24G26G08G11
 114427356.765 7  89164209.346 7  21774787.625                    21774797.734
 109548211.427 8  85362335.393 7  20846352.086                    20846361.008
 114710004.881 7  89384484.37045  21828588.867                    21828596.863
 114851350.086 8  89494696.500 7  21855497.672                    21855510.383
 115361843.268 7  89892359.91245  21952616.461                    21952627.203
 119899489.880 7  93428343.22844  22816145.945                    22816155.918
 105202996.892 8  81976345.76846  20019452.219                    20019461.141
 114715115.495 7  89388425.64645  21829554.992                    21829563.719
 11  8 20 19 17  0.0000000  0  8G17G07G28G01G24G26G08G11
 114366947.170 8  89117136.968 7  21763292.578                    21763302.129
 109600590.426 8  85403150.178 7  20856319.453                    20856328.895
 114687875.859 7  89367240.94545  21824377.625                    21824385.570
 114838285.565 8  89484516.373 7  21853011.273                    21853023.980
 115356233.656 7  89887988.82945  21951549.266                    21951560.051
 119886447.630 7  93418180.38244  22813663.875                    22813673.758
 105195708.449 8  81970666.42046  20018065.305                    20018073.852
 114756700.710 8  89420829.70545  21837468.359                    21837476.766
 11  8 20 19 17 30.0000000  0  8G17G07G28G01G24G26G08G11
 114306899.451 8  89070346.578 7  21751865.961                    21751875.598
 109653447.204 8  85444337.234 7  20866377.625                    20866387.070
 114665769.770 7  89350015.47345  21820170.914                    21820178.965
 114825766.531 7  89474761.323 7  21850629.352                    21850641.379
 115351174.457 7  89884046.61345  21950586.211                    21950596.473
 119874006.906 7  93408486.32044  22811296.414                    22811306.813
 105188952.694 8  81965402.19846  20016779.953                    20016788.684
 114798832.370 8  89453659.55945  21845485.781                    21845494.637
 11  8 20 19 18  0.0000000  0  8G17G07G28G01G24G26G08G11
 114247214.683 8  89023839.031 7  21740508.016                    21740517.934
 109706781.835 8  85485896.658 7  20876526.922                    20876536.066
 114643687.100 7  89332808.24245  21815968.445                    21815977.098
 114813794.588 8  89465432.576 7  21848350.680                    21848362.906
 115346667.074 7  89880534.37445  21949728.688                    21949738.773
 119862167.862 7  93399261.09544  22809043.789                    22809054.184
 105182731.922 8  81960554.83446  20015595.992                    20015604.813
 114841509.467 8  89486914.41545  21853607.078                    21853615.406
 11  8 20 19 18 30.0000000  0  8G17G07G28G01G24G26G08G11
 114187893.279 8  88977614.589 7  21729219.180                    21729228.773
 109760592.960 8  85527827.373 7  20886766.805                    20886776.441
 114621627.116 8  89315618.65445  21811771.102                    21811778.859
 114802369.965 8  89456530.275 7  21846176.547                    21846189.555
 115342711.778 7  89877452.33845  21948975.711                    21948985.965
 119850929.967 7  93390504.29044  22806905.281                    22806915.684
 105177046.928 7  81956124.97646  20014513.992                    20014523.012
 114884730.261 8  89520592.96645  21861831.563                    21861840.133
 11  8 20 19 19  0.0000000  0  8G17G07G28G01G24G26G08G11
 114128936.032 8  88931673.911 7  21718000.063                    21718009.617
 109814880.000 8  85570128.909 7  20897096.727                    20897107.000
 114599590.436 8  89298447.23245  21807578.063                    21807585.691
 114791494.576 7  89448056.002 7  21844107.008                    21844119.551
 115339309.706 7  89874801.42145  21948328.195                    21948338.988
 119840293.295 7  93382215.97744  22804881.391                    22804891.660
 105171899.689 8  81952114.13746  20013534.586                    20013543.508
 114928493.835 8  89554694.44445  21870159.789                    21870168.156
 11  8 20 19 19 30.0000000  0  8G17G07G28G01G24G26G08G11
 114070343.080 8  88886017.118 7  21706850.367                    21706859.539
 109869641.906 8  85612800.481 7  20907518.297                    20907527.246
 114577576.400 7  89281293.46045  21803388.195                    21803396.258
 114781168.683 7  89440009.857 7  21842142.328                    21842155.305
 115336461.304 7  89872581.91145  21947785.742                    21947796.867
 119830256.959 7  93374395.43844  22802970.703                    22802981.344
 105167290.745 8  81948522.75346  20012657.453                    20012666.496
 114972798.094 8  89589217.24645  21878590.734                    21878599.016
 11  8 20 19 20  0.0000000  0  8G17G07G28G01G24G26G08G11
 114012114.383 8  88840644.150 7  21695769.992                    21695778.418
 109924877.932 8  85655841.492 7  20918029.531                    20918038.543
 114555584.925 7  89264157.24145  21799203.734                    21799211.691
 114771393.533 8  89432392.879 7  21840282.555                    21840294.992
 115334167.560 7  89870794.59145  21947349.914                    21947360.395
 119820820.810 7  93367042.61844  22801175.422                    22801186.055
 105163221.723 8  81945352.06246  20011883.531                    20011892.398
 115017642.105 8  89624160.63045  21887123.742                    21887132.840
 11  8 20 19 20 30.0000000  0  8G17G07G28G01G24G26G08G11
 113954250.769 8  88795555.650 7  21684758.508                    21684767.770
 109980587.342 8  85699251.377 7  20928630.734                    20928639.539
 114533616.412 8  89247038.93645  21795023.234                    21795031.125
 114762169.741 7  89425205.540 7  21838526.961                    21838540.004
 115332429.297 7  89869440.11845  21947018.742                    21947029.668
 119811984.644 7  93360157.25743  22799493.664                    22799504.297
 105159694.094 8  81942603.25646  20011212.422                    20011220.715
 115063024.536 8  89659523.56745  21895759.445                    21895768.879
 11  8 20 19 21  0.0000000  0  8G17G07G28G01G24G26G08G11
 113896753.218 8  88750752.382 7  21673817.078                    21673826.344
 110036770.110 8  85743030.110 7  20939322.125                    20939331.313
 114511671.313 8  89229938.86845  21790847.172                    21790855.414
 114753499.216 7  89418449.291 7  21836876.914                    21836889.328
 115331247.933 7  89868519.60945  21946794.188                    21946805.207
 119803748.587 7  93353739.55344  22797926.891                    22797937.180
 105156710.344 8  81940278.23246  20010644.453                    20010653.469
 115108944.527 8  89695305.36845  21904497.828                    21904507.395
 11  8 20 19 21 30.0000000  0  8G17G07G28G01G24G26G08G11
 113839621.340 8  88706234.080 7  21662945.789                    21662954.367
 110093424.497 8  85787176.349 7  20950103.047                    20950111.410
 114489748.786 8  89212856.39245  21786675.633                    21786683.691
 114745381.912 7  89412124.154 7  21835332.328                    21835344.535
 115330623.186 7  89868032.80845  21946675.250                    21946685.707
 119796111.491 7  93347788.57144  22796473.984                    22796483.859
 105154270.269 8  81938376.86946  20010180.086                    20010189.031
 115155399.700 7  89731504.19945  21913337.977                    21913347.195
 11  8 20 19 22  0.0000000  0  8G17G07G28G01G24G26G08G11
 113782856.304 7  88662001.623 7  21652143.461                    21652152.680
 110150550.413 8  85831689.998 7  20960973.734                    20960982.121
 114467849.742 7  89195792.20045  21782507.883                    21782516.352
 114737819.568 7  89406231.427 7  21833893.617                    21833905.840
 115330556.242 7  89867980.67345  21946662.313                    21946672.441
 119789073.846 7  93342304.66444  22795134.742                    22795144.938
 105152376.423 8  81936901.13646  20009819.461                    20009828.941
 115202389.240 7  89768119.40545  21922280.016                    21922288.727
 11  8 20 19 22 30.0000000  0  8G17G07G28G01G24G26G08G11
 113726458.155 7  88618055.049 7  21641410.898                    21641420.070
 110208146.462 7  85876569.987 7  20971933.820                    20971942.250
 114445973.359 8  89178745.67045  21778345.203                    21778353.504
 114730812.296 7  89400771.249 7  21832560.039                    21832572.480
 115331047.370 7  89868363.40945  21946755.563                    21946766.109
 119782634.339 7  93337286.87444  22793909.180                    22793919.953
 105151029.390 8  81935851.48046  20009563.383                    20009572.285
 115249911.513 7  89805149.73245  21931323.148                    21931332.301
 11  8 20 19 23  0.0000000  0  8G17G07G28G01G24G26G08G11
 113670427.444 7  88574394.768 7  21630748.500                    21630757.793
 110266211.400 8  85921815.350 7  20982983.578                    20982992.758
 114424119.694 7  89161716.83545  21774186.328                    21774194.656
 114724360.920 7  89395744.222 7  21831332.258                    21831344.828
 115332097.253 7  89869181.52145  21946955.586                    21946966.535
 119776792.577 7  93332734.85045  22792797.406                    22792808.246
 105150230.422 8  81935228.90546  20009411.172                    20009420.180
 115297964.901 8  89842593.90645  21940467.750                    21940476.773
 11  8 20 19 23 30.0000000  0  8G17G07G28G01G24G26G08G11
 113614764.259 8  88531020.892 7  21620156.695                    21620165.582
 110324745.299 7  85967426.146 7  20994121.602                    20994131.195
 114402289.521 7  89144706.31445  21770032.117                    21770040.785
 114718466.713 7  89391151.328 7  21830210.641                    21830223.527
 115333707.212 7  89870436.05045  21947262.719                    21947273.316
 119771548.592 7  93328648.64744  22791799.883                    22791809.895
 105149981.451 8  81935034.87746  20009363.984                    20009373.445
 115346548.241 8  89880451.04545  21949713.141                    21949721.359
 11  8 20 19 24  0.0000000  0  8G17G07G28G01G24G26G08G11
 113559468.673 7  88487933.477 7  21609634.086                    21609643.430
 110383746.577 7  86013401.090 7  21005349.766                    21005357.992
 114380481.852 7  89127713.35945  21765882.492                    21765890.551
 114713129.984 7  89386992.865 7  21829194.742                    21829207.422
 115335877.250 7  89872126.98245  21947675.188                    21947686.223
 119766901.267 7  93325027.32544  22790915.125                    22790925.156
 105150282.910 8  81935269.75846  20009421.180                    20009430.293
 115395659.234 7  89918719.34044  21959057.547                    21959065.910
 11  8 20 19 24 30.0000000  0  8G17G07G28G01G24G26G08G11
 113504541.762 7  88445133.314 7  21599181.828                    21599191.051
 110443214.970 8  86059740.046 7  21016666.039                    21016674.980
 114358698.036 7  89110738.96145  21761737.086                    21761744.762
 114708352.086 7  89383269.850 7  21828285.469                    21828298.316
 115338608.328 7  89874255.11445  21948194.070                    21948205.648
 119762850.623 7  93321870.97944  22790144.289                    22790154.965
 105151136.974 8  81935935.24546  20009583.484                    20009592.598
 115445297.503 8  89957398.47545  21968504.828                    21968512.484
 11  8 20 19 25  0.0000000  0  8G17G07G28G01G24G26G08G11
 113449983.784 8  88402620.636 7  21588799.813                    21588808.875
 110503149.193 7  86106441.993 7  21028071.258                    21028080.219
 114336937.600 7  89093782.77545  21757596.086                    21757604.172
 114704133.349 7  89379982.524 7  21827483.000                    21827494.887
 115341901.006 7  89876820.84945  21948821.094                    21948831.785
 119759395.949 7  93319179.02245  22789487.063                    22789497.953
 105152544.837 8  81937032.27046  20009851.602                    20009860.609
 115495461.108 8  89996487.00945  21978050.063                    21978058.039
 11  8 20 19 25 30.0000000  0  8G17G07G28G01G24G26G08G11
 113395795.302 7  88360395.887 7  21578488.078                    21578496.691
 110563548.313 7  86153506.201 7  21039564.898                    21039573.707
 114315200.761 8  89076844.97345  21753460.203                    21753467.816
 114700474.750 7  89377131.682 7  21826786.898                    21826798.852
 115345755.712 7  89879824.54145  21949553.789                    21949565.184
 119756536.545 7  93316950.90644  22788942.992                    22788953.340
 105154507.459 7  81938561.57746  20010225.297                    20010234.426
 115546148.320 8  90035983.54545  21987695.531                    21987704.695
 11  8 20 19 26  0.0000000  0  8G17G07G28G01G24G26G08G11
 113341975.891 7  88318458.726 7  21568246.055                    21568255.699
 110624411.231 7  86200931.795 7  21051146.586                    21051155.637
 114293487.609 8  89059925.61645  21749328.766                    21749335.652
 114697376.886 7  89374717.786 7  21826197.102                    21826209.008
 115350172.745 7  89883266.39145  21950395.289                    21950405.891
 119754271.686 7  93315186.06045  22788511.695                    22788522.668
 105157025.587 8  81940523.74046  20010704.398                    20010713.617
 115597357.406 8  90075886.70545  21997439.859                    21997449.418
 11  8 20 19 26 30.0000000  0  8G17G07G28G01G24G26G08G11
 113288526.169 7  88276809.598 7  21558075.102                    21558084.160
 110685736.796 7  86248717.906 7  21062816.531                    21062825.082
 114271797.871 7  89043024.51445  21745201.398                    21745208.078
 114694840.497 7  89372741.384 7  21825714.195                    21825727.164
 115355152.584 7  89887146.80345  21951342.969                    21951352.723
 119752600.930 7  93313884.14544  22788194.133                    22788204.918
 105160100.712 8  81942919.90946  20011289.875                    20011299.031
 115649086.809 7  90116195.31144  22007283.781                    22007292.176
 11  8 20 19 27  0.0000000  0  8G17G07G28G01G24G26G08G11
 113235446.117 7  88235448.539 7  21547974.547                    21547983.523
 110747524.220 7  86296863.913 7  21074573.656                    21074583.262
 114250131.958 8  89026141.96545  21741078.305                    21741085.746
 114692865.808 7  89371202.673 7  21825339.023                    21825351.387
 115360695.616 7  89891466.09745  21952397.617                    21952407.742
 119751523.328 7  93313044.45444  22787989.219                    22787999.660
 105163733.734 8  81945750.80746  20011980.648                    20011989.973
 115701335.163 7  90156908.29945  22017226.453                    22017235.313
 11  8 20 19 27 30.0000000  0  8G17G07G28G01G24G26G08G11
 113182736.414 7  88194376.097 7  21537944.094                    21537953.203
 110809772.610 7  86345369.104 7  21086419.797                    21086428.738
 114228490.503 7  89009278.50545  21736959.844                    21736967.711
 114691454.049 8  89370102.639 7  21825070.148                    21825082.008
 115366802.707 7  89896224.88945  21953560.039                    21953570.164
 119751038.620 6  93312666.76344  22787897.359                    22787907.359
 105167926.236 8  81949017.67046  20012778.672                    20012788.105
 115754100.736 7  90198024.34144  22027266.586                    22027276.219
 11  8 20 19 28  0.0000000  0  8G17G07G28G01G24G26G08G11
 113130397.627 8  88153592.644 7  21527984.602                    21527993.398
 110872480.899 7  86394232.658 7  21098352.727                    21098362.156
 114206873.329 7  88992433.95345  21732845.781                    21732853.902
 114690605.840 8  89369441.701 7  21824909.070                    21824920.813
 115373474.040 7  89901423.35245  21954829.328                    21954839.699
 119751145.817 7  93312750.27044  22787917.086                    22787927.758
 105172679.299 7  81952721.36546  20013683.102                    20013692.219
 115807381.885 7  90239542.10845  22037405.945                    22037414.941
 11  8 20 19 28 30.0000000  0  8G17G07G28G01G24G26G08G11
 113078428.924 8  88113097.611 7  21518094.891                    21518103.887
 110935647.263 8  86443453.161 7  21110373.031                    21110382.109
 114185279.824 7  88975607.84045  21728736.664                    21728744.828
 114690320.834 7  89369219.654 7  21824854.117                    21824866.367
 115380709.376 7  89907061.26345  21956205.680                    21956216.527
 119751843.604 7  93313293.99744  22788050.039                    22788060.691
 105177992.720 7  81956861.67046  20014693.992                    20014703.117
 115861175.951 7  90281459.56644  22047642.438                    22047651.723
 11  8 20 19 29  0.0000000  0  8G17G07G28G01G24G26G08G11
 113026831.146 7  88072891.593 7  21508276.242                    21508285.316
 110999271.319 7  86493030.285 7  21122479.906                    21122489.250
 114163710.694 7  88958800.77845  21724632.031                    21724640.285
 114690599.942 7  89369437.148 7  21824906.828                    21824919.191
 115388509.333 7  89913139.16645  21957690.398                    21957701.328
 119753131.668 7  93314297.64944  22788295.141                    22788305.375
 105183868.560 8  81961440.23346  20015812.633                    20015821.250
 115915482.037 7  90323775.93044  22057977.195                    22057985.902
 11  8 20 19 29 30.0000000  0  8G17G07G28G01G24G26G08G11
 112975605.036 8  88032975.162 7  21498528.219                    21498536.855
 111063352.032 7  86542963.246 7  21134674.781                    21134683.344
 114142166.425 7  88942013.04345  21720532.383                    21720540.348
 114691444.011 7  89370094.876 7  21825068.227                    21825080.008
 115396874.556 7  89919657.52645  21959282.039                    21959292.625
 119755009.146 7  93315760.60044  22788651.820                    22788662.820
 105190308.118 7  81966458.03246  20017037.938                    20017046.980
 115970298.701 7  90366490.19445  22068408.305                    22068417.246
 11  8 20 19 30  0.0000000  0  8G17G07G28G01G24G26G08G11
 112924750.291 8  87993348.111 7  21488850.680                    21488859.625
 111127888.411 7  86593251.268 7  21146955.430                    21146964.441
 114120647.311 7  88925244.92045  21716437.406                    21716445.465
 114692853.750 7  89371193.397 7  21825336.539                    21825348.629
 115405805.589 7  89926616.77145  21960981.609                    21960992.969
 119757475.716 7  93317682.61544  22789121.734                    22789132.359
 105197312.669 8  81971916.09446  20018370.961                    20018379.961
 116025624.236 7  90409600.98245  22078936.414                    22078945.215
 11  8 20 19 30 30.0000000  0  8G17G07G28G01G24G26G08G11
 112874266.932 7  87954010.445 7  21479243.461                    21479252.707
 111192878.823 7  86643893.080 7  21159322.727                    21159331.934
 114099152.960 7  88908496.09445  21712347.945                    21712355.605
 114694829.147 7  89372732.683 7  21825711.797                    21825724.355
 115415301.992 7  89934016.57145  21962788.836                    21962799.871
 119760529.996 7  93320062.54644  22789702.539                    22789713.551
 105204882.386 7  81977814.54846  20019811.484                    20019820.590
 116081456.387 7  90453106.51745  22089561.336                    22089570.086
 11  8 20 19 31  0.0000000  0  8G17G07G28G01G24G26G08G11
 112824154.961 8  87914962.189 7  21469708.070                    21469717.070
 111258321.813 7  86694887.571 7  21171776.164                    21171785.434
 114077683.438 7  88891766.59845  21708261.852                    21708269.539
 114697370.317 7  89374712.817 7  21826195.828                    21826207.887
 115425364.040 7  89941857.13645  21964703.172                    21964714.668
 119764170.661 7  93322899.41644  22790395.805                    22790405.684
 105213017.856 8  81984153.84846  20021359.523                    20021369.043
 116137793.396 7  90497005.47345  22100281.578                    22100290.094
 11  8 20 19 31 30.0000000  0  8G17G07G28G01G24G26G08G11
 112774414.816 8  87876203.663 7  21460243.031                    21460251.789
 111324216.857 7  86746234.324 7  21184315.813                    21184324.590
 114056239.396 7  88875056.97246  21704181.320                    21704188.852
 114700478.111 7  89377134.461 7  21826787.172                    21826799.898
 115435992.404 7  89950138.95945  21966726.195                    21966736.758
 119768397.268 6  93326192.87044  22791199.688                    22791209.902
 105221720.663 8  81990935.24946  20023015.680                    20023024.941
 116194633.411 7  90541296.34845  22111098.047                    22111106.711
 11  8 20 19 32  0.0000000  0  8G17G07G28G01G24G26G08G11
 112725046.509 8  87837734.872 7  21450848.180                    21450857.461
 111390562.392 7  86797932.077 7  21196940.445                    21196949.961
 114034821.060 7  88858367.36545  21700105.055                    21700113.578
 114704152.861 7  89379997.915 7  21827487.211                    21827499.160
 115447186.994 7  89958862.04745  21968856.781                    21968866.461
 119773208.470 7  93329941.84044  22792114.938                    22792126.262
 105230991.271 8  81998159.08446  20024779.656                    20024788.945
 116251974.840 8  90585977.95845  22122010.438                    22122018.398
 11  8 20 19 32 30.0000000  0  8G17G07G28G01G24G26G08G11
 112676050.084 8  87799555.866 7  21441524.758                    21441534.109
 111457357.072 8  86849979.830 7  21209652.008                    21209660.566
 114013428.158 7  88841697.55945  21696034.180                    21696042.559
 114708394.597 7  89383303.186 7  21828294.148                    21828306.113
 115458947.786 7  89968026.29945  21971094.883                    21971104.688
 119778603.330 7  93334145.59844  22793142.234                    22793152.297
 105240830.488 8  82005825.99946  20026652.125                    20026660.742
 116309815.330 8  90631048.45445  22133017.391                    22133025.133
